Wetterdaten: Donnerstag, 10.10.2019
Datum Zeit Temp. A. Feuchte A. Luftdruck Regen Wind Richtung Richtung Sonnenschein ET UV Solar Taupunkt Windchill Windböen
10.10.2019 00:00 7,9 °C 86 % 1013,6 hPa 0,0 mm 4,4 km/h (1 Bft) W-NW 294 ° 0 min 0,000 mm 0,0 UV-I 0 W/m² 5,7 °C 7,9 °C 6,4 km/h (2 Bft)
10.10.2019 00:01 7,9 °C 86 % 1013,6 hPa 0,0 mm 8,3 km/h (2 Bft) W-SW 238 ° 0 min 0,000 mm 0,0 UV-I 0 W/m² 5,7 °C 6,5 °C 12,9 km/h (3 Bft)
10.10.2019 00:02 7,9 °C 87 % 1013,5 hPa 0,2 mm 9,7 km/h (2 Bft) W-SW 244 ° 0 min 0,000 mm 0,0 UV-I 0 W/m² 5,9 °C 6,2 °C 16,1 km/h (3 Bft)
10.10.2019 00:03 7,9 °C 87 % 1013,4 hPa 0,0 mm 7,6 km/h (2 Bft) W 261 ° 0 min 0,000 mm 0,0 UV-I 0 W/m² 5,9 °C 6,6 °C 12,9 km/h (3 Bft)
10.10.2019 00:04 7,9 °C 87 % 1013,4 hPa 0,0 mm 6,0 km/h (2 Bft) W-SW 248 ° 0 min 0,000 mm 0,0 UV-I 0 W/m² 5,9 °C 7,1 °C 9,7 km/h (2 Bft)
10.10.2019 00:05 7,8 °C 87 % 1013,4 hPa 0,0 mm 5,7 km/h (1 Bft) W 263 ° 0 min 0,000 mm 0,0 UV-I 0 W/m² 5,8 °C 7,0 °C 11,3 km/h (2 Bft)
10.10.2019 00:06 7,8 °C 87 % 1013,4 hPa 0,0 mm 6,8 km/h (2 Bft) W 271 ° 0 min 0,000 mm 0,0 UV-I 0 W/m² 5,8 °C 6,7 °C 12,9 km/h (3 Bft)
10.10.2019 00:07 7,8 °C 87 % 1013,4 hPa 0,0 mm 7,7 km/h (2 Bft) W 271 ° 0 min 0,000 mm 0,0 UV-I 0 W/m² 5,8 °C 6,5 °C 12,9 km/h (3 Bft)
10.10.2019 00:08 7,8 °C 87 % 1013,5 hPa 0,0 mm 7,6 km/h (2 Bft) W-SW 239 ° 0 min 0,000 mm 0,0 UV-I 0 W/m² 5,8 °C 6,5 °C 12,9 km/h (3 Bft)
10.10.2019 00:09 7,8 °C 87 % 1013,5 hPa 0,0 mm 4,7 km/h (1 Bft) W-SW 242 ° 0 min 0,000 mm 0,0 UV-I 0 W/m² 5,8 °C 7,4 °C 6,4 km/h (2 Bft)
10.10.2019 00:10 7,8 °C 87 % 1013,4 hPa 0,0 mm 8,0 km/h (2 Bft) W-SW 244 ° 0 min 0,000 mm 0,0 UV-I 0 W/m² 5,8 °C 6,4 °C 12,9 km/h (3 Bft)
10.10.2019 00:11 7,9 °C 87 % 1013,5 hPa 0,0 mm 5,4 km/h (1 Bft) W 261 ° 0 min 0,000 mm 0,0 UV-I 0 W/m² 5,9 °C 7,2 °C 9,7 km/h (2 Bft)
10.10.2019 00:12 7,9 °C 87 % 1013,5 hPa 0,0 mm 5,0 km/h (1 Bft) W-SW 242 ° 0 min 0,000 mm 0,0 UV-I 0 W/m² 5,9 °C 7,4 °C 6,4 km/h (2 Bft)
10.10.2019 00:13 7,9 °C 87 % 1013,5 hPa 0,0 mm 10,2 km/h (2 Bft) S-SW 211 ° 0 min 0,000 mm 0,0 UV-I 0 W/m² 5,9 °C 6,1 °C 19,3 km/h (3 Bft)
10.10.2019 00:14 7,9 °C 87 % 1013,5 hPa 0,0 mm 5,8 km/h (2 Bft) SW 232 ° 0 min 0,000 mm 0,0 UV-I 0 W/m² 5,9 °C 7,1 °C 9,7 km/h (2 Bft)
10.10.2019 00:15 8,0 °C 87 % 1013,5 hPa 0,0 mm 3,0 km/h (1 Bft) W 264 ° 0 min 0,000 mm 0,0 UV-I 0 W/m² 6,0 °C 8,0 °C 4,8 km/h (1 Bft)
10.10.2019 00:16 8,1 °C 87 % 1013,5 hPa 0,0 mm 4,6 km/h (1 Bft) SW 218 ° 0 min 0,000 mm 0,0 UV-I 0 W/m² 6,1 °C 7,7 °C 11,3 km/h (2 Bft)
10.10.2019 00:17 8,1 °C 87 % 1013,4 hPa 0,0 mm 3,6 km/h (1 Bft) W-SW 248 ° 0 min 0,000 mm 0,0 UV-I 0 W/m² 6,1 °C 8,1 °C 8,0 km/h (2 Bft)
10.10.2019 00:18 8,1 °C 87 % 1013,4 hPa 0,0 mm 5,2 km/h (1 Bft) SW 227 ° 0 min 0,000 mm 0,0 UV-I 0 W/m² 6,1 °C 7,5 °C 11,3 km/h (2 Bft)
10.10.2019 00:19 8,2 °C 87 % 1013,3 hPa 0,0 mm 4,4 km/h (1 Bft) W-SW 243 ° 0 min 0,000 mm 0,0 UV-I 0 W/m² 6,2 °C 8,2 °C 9,7 km/h (2 Bft)
10.10.2019 00:20 8,2 °C 86 % 1013,4 hPa 0,0 mm 6,8 km/h (2 Bft) W-SW 238 ° 0 min 0,000 mm 0,0 UV-I 0 W/m² 6,0 °C 7,2 °C 11,3 km/h (2 Bft)
10.10.2019 00:21 8,3 °C 87 % 1013,4 hPa 0,0 mm 6,6 km/h (2 Bft) W 263 ° 0 min 0,000 mm 0,0 UV-I 0 W/m² 6,3 °C 7,4 °C 12,9 km/h (3 Bft)
10.10.2019 00:22 8,3 °C 86 % 1013,2 hPa 0,0 mm 4,1 km/h (1 Bft) S-SW 192 ° 0 min 0,000 mm 0,0 UV-I 0 W/m² 6,1 °C 8,3 °C 6,4 km/h (2 Bft)
10.10.2019 00:23 8,3 °C 86 % 1013,2 hPa 0,0 mm 6,8 km/h (2 Bft) W 268 ° 0 min 0,000 mm 0,0 UV-I 0 W/m² 6,1 °C 7,3 °C 16,1 km/h (3 Bft)
10.10.2019 00:24 8,3 °C 86 % 1013,1 hPa 0,0 mm 6,2 km/h (2 Bft) SW 232 ° 0 min 0,000 mm 0,0 UV-I 0 W/m² 6,1 °C 7,5 °C 12,9 km/h (3 Bft)
10.10.2019 00:25 8,3 °C 85 % 1013,1 hPa 0,0 mm 5,6 km/h (1 Bft) W-SW 240 ° 0 min 0,000 mm 0,0 UV-I 0 W/m² 5,9 °C 7,6 °C 11,3 km/h (2 Bft)
10.10.2019 00:26 8,3 °C 85 % 1013,1 hPa 0,0 mm 7,1 km/h (2 Bft) W-SW 254 ° 0 min 0,000 mm 0,0 UV-I 0 W/m² 5,9 °C 7,2 °C 11,3 km/h (2 Bft)
10.10.2019 00:27 8,4 °C 85 % 1013,1 hPa 0,0 mm 9,5 km/h (2 Bft) W-SW 240 ° 0 min 0,000 mm 0,0 UV-I 0 W/m² 6,0 °C 6,8 °C 12,9 km/h (3 Bft)
10.10.2019 00:28 8,4 °C 85 % 1013,0 hPa 0,0 mm 5,8 km/h (2 Bft) W 278 ° 0 min 0,000 mm 0,0 UV-I 0 W/m² 6,0 °C 7,7 °C 12,9 km/h (3 Bft)
10.10.2019 00:29 8,3 °C 85 % 1013,1 hPa 0,0 mm 8,1 km/h (2 Bft) W-SW 257 ° 0 min 0,000 mm 0,0 UV-I 0 W/m² 5,9 °C 7,0 °C 12,9 km/h (3 Bft)
10.10.2019 00:30 8,3 °C 85 % 1013,1 hPa 0,0 mm 4,8 km/h (1 Bft) W-SW 256 ° 0 min 0,000 mm 0,0 UV-I 0 W/m² 5,9 °C 7,9 °C 6,4 km/h (2 Bft)
10.10.2019 00:31 8,4 °C 85 % 1013,1 hPa 0,0 mm 2,8 km/h (1 Bft) W-SW 257 ° 0 min 0,000 mm 0,0 UV-I 0 W/m² 6,0 °C 8,4 °C 4,8 km/h (1 Bft)
10.10.2019 00:32 8,3 °C 85 % 1013,1 hPa 0,0 mm 4,8 km/h (1 Bft) S 191 ° 0 min 0,000 mm 0,0 UV-I 0 W/m² 5,9 °C 7,9 °C 6,4 km/h (2 Bft)
10.10.2019 00:33 8,3 °C 85 % 1013,1 hPa 0,0 mm 2,2 km/h (1 Bft) S-SW 204 ° 0 min 0,000 mm 0,0 UV-I 0 W/m² 5,9 °C 8,3 °C 4,8 km/h (1 Bft)
10.10.2019 00:34 8,3 °C 85 % 1013,1 hPa 0,0 mm 5,4 km/h (1 Bft) W-NW 288 ° 0 min 0,000 mm 0,0 UV-I 0 W/m² 5,9 °C 7,7 °C 9,7 km/h (2 Bft)
10.10.2019 00:35 8,3 °C 85 % 1013,1 hPa 0,0 mm 8,0 km/h (2 Bft) W 273 ° 0 min 0,000 mm 0,0 UV-I 0 W/m² 5,9 °C 7,0 °C 16,1 km/h (3 Bft)
10.10.2019 00:36 8,3 °C 85 % 1013,1 hPa 0,0 mm 6,2 km/h (2 Bft) W 262 ° 0 min 0,000 mm 0,0 UV-I 0 W/m² 5,9 °C 7,5 °C 11,3 km/h (2 Bft)
10.10.2019 00:37 8,3 °C 85 % 1013,1 hPa 0,0 mm 6,1 km/h (2 Bft) SW 232 ° 0 min 0,000 mm 0,0 UV-I 0 W/m² 5,9 °C 7,5 °C 8,0 km/h (2 Bft)
10.10.2019 00:38 8,3 °C 85 % 1013,2 hPa 0,0 mm 7,8 km/h (2 Bft) W 262 ° 0 min 0,000 mm 0,0 UV-I 0 W/m² 5,9 °C 7,1 °C 14,5 km/h (3 Bft)
10.10.2019 00:39 8,3 °C 85 % 1013,3 hPa 0,0 mm 3,6 km/h (1 Bft) W 271 ° 0 min 0,000 mm 0,0 UV-I 0 W/m² 5,9 °C 8,3 °C 6,4 km/h (2 Bft)
10.10.2019 00:40 8,4 °C 84 % 1013,3 hPa 0,0 mm 3,6 km/h (1 Bft) W-SW 250 ° 0 min 0,000 mm 0,0 UV-I 0 W/m² 5,9 °C 8,4 °C 4,8 km/h (1 Bft)
10.10.2019 00:41 8,4 °C 85 % 1013,2 hPa 0,0 mm 4,5 km/h (1 Bft) W 278 ° 0 min 0,000 mm 0,0 UV-I 0 W/m² 6,0 °C 8,4 °C 6,4 km/h (2 Bft)
10.10.2019 00:42 8,4 °C 85 % 1013,2 hPa 0,0 mm 6,0 km/h (2 Bft) W 280 ° 0 min 0,000 mm 0,0 UV-I 0 W/m² 6,0 °C 7,6 °C 11,3 km/h (2 Bft)
10.10.2019 00:43 8,4 °C 85 % 1013,3 hPa 0,0 mm 8,9 km/h (2 Bft) W 265 ° 0 min 0,000 mm 0,0 UV-I 0 W/m² 6,0 °C 6,9 °C 12,9 km/h (3 Bft)
10.10.2019 00:44 8,4 °C 85 % 1013,3 hPa 0,0 mm 5,0 km/h (1 Bft) W-SW 252 ° 0 min 0,000 mm 0,0 UV-I 0 W/m² 6,0 °C 7,9 °C 6,4 km/h (2 Bft)
10.10.2019 00:45 8,4 °C 85 % 1013,4 hPa 0,0 mm 5,0 km/h (1 Bft) SW 229 ° 0 min 0,000 mm 0,0 UV-I 0 W/m² 6,0 °C 7,9 °C 8,0 km/h (2 Bft)
10.10.2019 00:46 8,4 °C 85 % 1013,7 hPa 0,0 mm 5,9 km/h (2 Bft) W 275 ° 0 min 0,000 mm 0,0 UV-I 0 W/m² 6,0 °C 7,7 °C 9,7 km/h (2 Bft)
10.10.2019 00:47 8,3 °C 85 % 1013,7 hPa 0,0 mm 5,7 km/h (1 Bft) W 275 ° 0 min 0,000 mm 0,0 UV-I 0 W/m² 5,9 °C 7,6 °C 11,3 km/h (2 Bft)
10.10.2019 00:48 8,3 °C 85 % 1013,6 hPa 0,0 mm 9,3 km/h (2 Bft) W 259 ° 0 min 0,000 mm 0,0 UV-I 0 W/m² 5,9 °C 6,7 °C 20,9 km/h (4 Bft)
10.10.2019 00:49 8,3 °C 86 % 1013,6 hPa 0,0 mm 11,3 km/h (2 Bft) NW 315 ° 0 min 0,000 mm 0,0 UV-I 0 W/m² 6,1 °C 6,4 °C 16,1 km/h (3 Bft)
10.10.2019 00:50 8,3 °C 86 % 1013,7 hPa 0,0 mm 8,4 km/h (2 Bft) W-NW 295 ° 0 min 0,000 mm 0,0 UV-I 0 W/m² 6,1 °C 6,9 °C 16,1 km/h (3 Bft)
10.10.2019 00:51 8,3 °C 86 % 1013,7 hPa 0,0 mm 9,6 km/h (2 Bft) W-NW 286 ° 0 min 0,000 mm 0,0 UV-I 0 W/m² 6,1 °C 6,7 °C 14,5 km/h (3 Bft)
10.10.2019 00:52 8,3 °C 86 % 1013,8 hPa 0,0 mm 8,6 km/h (2 Bft) W-SW 245 ° 0 min 0,000 mm 0,0 UV-I 0 W/m² 6,1 °C 6,9 °C 14,5 km/h (3 Bft)
10.10.2019 00:53 8,3 °C 86 % 1013,9 hPa 0,0 mm 11,1 km/h (2 Bft) W 266 ° 0 min 0,000 mm 0,0 UV-I 0 W/m² 6,1 °C 6,4 °C 16,1 km/h (3 Bft)
10.10.2019 00:54 8,4 °C 87 % 1013,9 hPa 0,0 mm 16,3 km/h (3 Bft) W-NW 302 ° 0 min 0,000 mm 0,0 UV-I 0 W/m² 6,4 °C 5,8 °C 24,1 km/h (4 Bft)
10.10.2019 00:55 8,3 °C 87 % 1013,9 hPa 0,0 mm 16,6 km/h (3 Bft) W-SW 252 ° 0 min 0,000 mm 0,0 UV-I 0 W/m² 6,3 °C 5,6 °C 22,5 km/h (4 Bft)
10.10.2019 00:56 8,3 °C 87 % 1013,9 hPa 0,0 mm 19,1 km/h (3 Bft) W-SW 256 ° 0 min 0,000 mm 0,0 UV-I 0 W/m² 6,3 °C 5,3 °C 30,6 km/h (5 Bft)
10.10.2019 00:57 8,4 °C 87 % 1014,0 hPa 0,0 mm 13,0 km/h (3 Bft) W 260 ° 0 min 0,000 mm 0,0 UV-I 0 W/m² 6,4 °C 6,2 °C 33,8 km/h (5 Bft)
10.10.2019 00:58 8,4 °C 86 % 1014,0 hPa 0,0 mm 21,5 km/h (4 Bft) W-NW 290 ° 0 min 0,000 mm 0,0 UV-I 0 W/m² 6,2 °C 5,2 °C 29,0 km/h (5 Bft)
10.10.2019 00:59 8,4 °C 86 % 1014,0 hPa 0,0 mm 19,4 km/h (3 Bft) W-NW 291 ° 0 min 0,000 mm 0,0 UV-I 0 W/m² 6,2 °C 5,4 °C 30,6 km/h (5 Bft)
10.10.2019 01:00 8,4 °C 86 % 1014,0 hPa 0,0 mm 16,4 km/h (3 Bft) W 266 ° 0 min 0,025 mm 0,0 UV-I 0 W/m² 6,2 °C 5,8 °C 24,1 km/h (4 Bft)
10.10.2019 01:01 8,4 °C 86 % 1014,0 hPa 0,0 mm 18,4 km/h (3 Bft) W-NW 289 ° 0 min 0,000 mm 0,0 UV-I 0 W/m² 6,2 °C 5,5 °C 33,8 km/h (5 Bft)
10.10.2019 01:02 8,4 °C 86 % 1014,0 hPa 0,0 mm 6,3 km/h (2 Bft) W 261 ° 0 min 0,000 mm 0,0 UV-I 0 W/m² 6,2 °C 7,5 °C 12,9 km/h (3 Bft)
10.10.2019 01:03 8,4 °C 87 % 1014,0 hPa 0,0 mm 12,4 km/h (3 Bft) W 272 ° 0 min 0,000 mm 0,0 UV-I 0 W/m² 6,4 °C 6,3 °C 19,3 km/h (3 Bft)
10.10.2019 01:04 8,3 °C 87 % 1013,9 hPa 0,0 mm 10,3 km/h (2 Bft) W 262 ° 0 min 0,000 mm 0,0 UV-I 0 W/m² 6,3 °C 6,5 °C 14,5 km/h (3 Bft)
10.10.2019 01:05 8,3 °C 87 % 1013,9 hPa 0,0 mm 5,7 km/h (1 Bft) W-SW 253 ° 0 min 0,000 mm 0,0 UV-I 0 W/m² 6,3 °C 7,6 °C 8,0 km/h (2 Bft)
10.10.2019 01:06 8,3 °C 88 % 1013,7 hPa 0,0 mm 8,3 km/h (2 Bft) W 277 ° 0 min 0,000 mm 0,0 UV-I 0 W/m² 6,4 °C 6,9 °C 20,9 km/h (4 Bft)
10.10.2019 01:07 8,2 °C 88 % 1013,7 hPa 0,0 mm 15,7 km/h (3 Bft) W 263 ° 0 min 0,000 mm 0,0 UV-I 0 W/m² 6,3 °C 5,6 °C 24,1 km/h (4 Bft)
10.10.2019 01:08 8,2 °C 88 % 1013,7 hPa 0,0 mm 21,3 km/h (4 Bft) NW 312 ° 0 min 0,000 mm 0,0 UV-I 0 W/m² 6,3 °C 5,0 °C 35,4 km/h (5 Bft)
10.10.2019 01:09 8,2 °C 88 % 1013,9 hPa 0,0 mm 17,5 km/h (3 Bft) W 272 ° 0 min 0,000 mm 0,0 UV-I 0 W/m² 6,3 °C 5,4 °C 27,4 km/h (4 Bft)
10.10.2019 01:10 8,1 °C 88 % 1013,7 hPa 0,0 mm 9,3 km/h (2 Bft) S-SW 210 ° 0 min 0,000 mm 0,0 UV-I 0 W/m² 6,2 °C 6,5 °C 16,1 km/h (3 Bft)
10.10.2019 01:11 8,1 °C 88 % 1013,6 hPa 0,0 mm 9,2 km/h (2 Bft) W-SW 248 ° 0 min 0,000 mm 0,0 UV-I 0 W/m² 6,2 °C 6,5 °C 17,7 km/h (3 Bft)
10.10.2019 01:12 8,0 °C 88 % 1013,7 hPa 0,0 mm 13,7 km/h (3 Bft) W-NW 284 ° 0 min 0,000 mm 0,0 UV-I 0 W/m² 6,1 °C 5,6 °C 20,9 km/h (4 Bft)
10.10.2019 01:13 7,9 °C 88 % 1013,8 hPa 0,0 mm 16,6 km/h (3 Bft) W 261 ° 0 min 0,000 mm 0,0 UV-I 0 W/m² 6,0 °C 5,1 °C 25,7 km/h (4 Bft)
10.10.2019 01:14 7,9 °C 89 % 1013,8 hPa 0,0 mm 10,1 km/h (2 Bft) W 269 ° 0 min 0,000 mm 0,0 UV-I 0 W/m² 6,2 °C 6,1 °C 14,5 km/h (3 Bft)
10.10.2019 01:15 7,8 °C 88 % 1013,7 hPa 0,0 mm 13,8 km/h (3 Bft) W 281 ° 0 min 0,000 mm 0,0 UV-I 0 W/m² 5,9 °C 5,4 °C 27,4 km/h (4 Bft)
10.10.2019 01:16 7,8 °C 89 % 1013,8 hPa 0,0 mm 12,6 km/h (3 Bft) W 275 ° 0 min 0,000 mm 0,0 UV-I 0 W/m² 6,1 °C 5,6 °C 25,7 km/h (4 Bft)
10.10.2019 01:17 7,8 °C 89 % 1013,9 hPa 0,0 mm 11,7 km/h (2 Bft) W-SW 239 ° 0 min 0,000 mm 0,0 UV-I 0 W/m² 6,1 °C 5,7 °C 17,7 km/h (3 Bft)
10.10.2019 01:18 7,7 °C 89 % 1013,9 hPa 0,0 mm 10,2 km/h (2 Bft) W-SW 246 ° 0 min 0,000 mm 0,0 UV-I 0 W/m² 6,0 °C 5,8 °C 16,1 km/h (3 Bft)
10.10.2019 01:19 7,7 °C 89 % 1013,9 hPa 0,0 mm 11,5 km/h (2 Bft) SW 231 ° 0 min 0,000 mm 0,0 UV-I 0 W/m² 6,0 °C 5,6 °C 16,1 km/h (3 Bft)
10.10.2019 01:20 7,7 °C 90 % 1013,9 hPa 0,0 mm 19,2 km/h (3 Bft) W-SW 241 ° 0 min 0,000 mm 0,0 UV-I 0 W/m² 6,2 °C 4,6 °C 27,4 km/h (4 Bft)
10.10.2019 01:21 7,7 °C 90 % 1013,8 hPa 0,0 mm 14,1 km/h (3 Bft) W-SW 251 ° 0 min 0,000 mm 0,0 UV-I 0 W/m² 6,2 °C 5,2 °C 19,3 km/h (3 Bft)
10.10.2019 01:22 7,7 °C 90 % 1013,8 hPa 0,0 mm 11,3 km/h (2 Bft) W-SW 248 ° 0 min 0,000 mm 0,0 UV-I 0 W/m² 6,2 °C 5,6 °C 19,3 km/h (3 Bft)
10.10.2019 01:23 7,7 °C 90 % 1013,8 hPa 0,0 mm 13,3 km/h (3 Bft) W 277 ° 0 min 0,000 mm 0,0 UV-I 0 W/m² 6,2 °C 5,3 °C 17,7 km/h (3 Bft)
10.10.2019 01:24 7,7 °C 90 % 1013,9 hPa 0,0 mm 12,7 km/h (3 Bft) W 263 ° 0 min 0,000 mm 0,0 UV-I 0 W/m² 6,2 °C 5,4 °C 17,7 km/h (3 Bft)
10.10.2019 01:25 7,7 °C 90 % 1013,8 hPa 0,0 mm 12,9 km/h (3 Bft) W 261 ° 0 min 0,000 mm 0,0 UV-I 0 W/m² 6,2 °C 5,4 °C 17,7 km/h (3 Bft)
10.10.2019 01:26 7,7 °C 90 % 1013,8 hPa 0,0 mm 13,7 km/h (3 Bft) W-SW 248 ° 0 min 0,000 mm 0,0 UV-I 0 W/m² 6,2 °C 5,3 °C 24,1 km/h (4 Bft)
10.10.2019 01:27 7,7 °C 90 % 1013,9 hPa 0,0 mm 12,5 km/h (3 Bft) W-SW 248 ° 0 min 0,000 mm 0,0 UV-I 0 W/m² 6,2 °C 5,4 °C 16,1 km/h (3 Bft)
10.10.2019 01:28 7,7 °C 90 % 1013,8 hPa 0,0 mm 12,7 km/h (3 Bft) W 259 ° 0 min 0,000 mm 0,0 UV-I 0 W/m² 6,2 °C 5,4 °C 20,9 km/h (4 Bft)
10.10.2019 01:29 7,7 °C 90 % 1013,7 hPa 0,0 mm 11,3 km/h (2 Bft) W-SW 252 ° 0 min 0,000 mm 0,0 UV-I 0 W/m² 6,2 °C 5,6 °C 16,1 km/h (3 Bft)
10.10.2019 01:30 7,6 °C 91 % 1013,7 hPa 0,0 mm 12,0 km/h (2 Bft) W-SW 253 ° 0 min 0,000 mm 0,0 UV-I 0 W/m² 6,2 °C 5,4 °C 19,3 km/h (3 Bft)
10.10.2019 01:31 7,6 °C 91 % 1013,7 hPa 0,0 mm 9,2 km/h (2 Bft) W 271 ° 0 min 0,000 mm 0,0 UV-I 0 W/m² 6,2 °C 5,9 °C 12,9 km/h (3 Bft)
10.10.2019 01:32 7,6 °C 91 % 1013,8 hPa 0,0 mm 9,1 km/h (2 Bft) W 266 ° 0 min 0,000 mm 0,0 UV-I 0 W/m² 6,2 °C 5,9 °C 14,5 km/h (3 Bft)
10.10.2019 01:33 7,6 °C 91 % 1013,8 hPa 0,0 mm 10,9 km/h (2 Bft) W 271 ° 0 min 0,000 mm 0,0 UV-I 0 W/m² 6,2 °C 5,6 °C 19,3 km/h (3 Bft)
10.10.2019 01:34 7,6 °C 91 % 1013,8 hPa 0,0 mm 8,6 km/h (2 Bft) SW 217 ° 0 min 0,000 mm 0,0 UV-I 0 W/m² 6,2 °C 6,1 °C 14,5 km/h (3 Bft)
10.10.2019 01:35 7,6 °C 91 % 1013,9 hPa 0,0 mm 10,9 km/h (2 Bft) W 275 ° 0 min 0,000 mm 0,0 UV-I 0 W/m² 6,2 °C 5,6 °C 14,5 km/h (3 Bft)
10.10.2019 01:36 7,6 °C 91 % 1014,0 hPa 0,0 mm 5,6 km/h (1 Bft) W-NW 286 ° 0 min 0,000 mm 0,0 UV-I 0 W/m² 6,2 °C 6,8 °C 9,7 km/h (2 Bft)
10.10.2019 01:37 7,5 °C 91 % 1014,0 hPa 0,0 mm 10,4 km/h (2 Bft) W 259 ° 0 min 0,000 mm 0,0 UV-I 0 W/m² 6,1 °C 5,6 °C 20,9 km/h (4 Bft)
10.10.2019 01:38 7,6 °C 91 % 1014,0 hPa 0,0 mm 10,0 km/h (2 Bft) W 266 ° 0 min 0,000 mm 0,0 UV-I 0 W/m² 6,2 °C 5,8 °C 16,1 km/h (3 Bft)
10.10.2019 01:39 7,6 °C 91 % 1014,2 hPa 0,0 mm 7,2 km/h (2 Bft) W-SW 257 ° 0 min 0,000 mm 0,0 UV-I 0 W/m² 6,2 °C 6,4 °C 11,3 km/h (2 Bft)
10.10.2019 01:40 7,6 °C 91 % 1014,2 hPa 0,0 mm 11,3 km/h (2 Bft) W 272 ° 0 min 0,000 mm 0,0 UV-I 0 W/m² 6,2 °C 5,5 °C 17,7 km/h (3 Bft)
10.10.2019 01:41 7,6 °C 91 % 1014,3 hPa 0,0 mm 9,7 km/h (2 Bft) W 263 ° 0 min 0,000 mm 0,0 UV-I 0 W/m² 6,2 °C 5,8 °C 12,9 km/h (3 Bft)
10.10.2019 01:42 7,6 °C 91 % 1014,3 hPa 0,0 mm 10,4 km/h (2 Bft) W 274 ° 0 min 0,000 mm 0,0 UV-I 0 W/m² 6,2 °C 5,7 °C 16,1 km/h (3 Bft)
10.10.2019 01:43 7,6 °C 91 % 1014,5 hPa 0,0 mm 11,5 km/h (2 Bft) W-NW 296 ° 0 min 0,000 mm 0,0 UV-I 0 W/m² 6,2 °C 5,5 °C 19,3 km/h (3 Bft)
10.10.2019 01:44 7,6 °C 91 % 1014,6 hPa 0,0 mm 14,3 km/h (3 Bft) W 274 ° 0 min 0,000 mm 0,0 UV-I 0 W/m² 6,2 °C 5,1 °C 19,3 km/h (3 Bft)
10.10.2019 01:45 7,6 °C 91 % 1014,6 hPa 0,0 mm 10,4 km/h (2 Bft) W-SW 241 ° 0 min 0,000 mm 0,0 UV-I 0 W/m² 6,2 °C 5,7 °C 17,7 km/h (3 Bft)
10.10.2019 01:46 7,6 °C 91 % 1014,6 hPa 0,0 mm 13,4 km/h (3 Bft) W 268 ° 0 min 0,000 mm 0,0 UV-I 0 W/m² 6,2 °C 5,2 °C 22,5 km/h (4 Bft)
10.10.2019 01:47 7,6 °C 91 % 1014,5 hPa 0,0 mm 16,0 km/h (3 Bft) W 260 ° 0 min 0,000 mm 0,0 UV-I 0 W/m² 6,2 °C 4,8 °C 20,9 km/h (4 Bft)
10.10.2019 01:48 7,6 °C 91 % 1014,6 hPa 0,0 mm 19,2 km/h (3 Bft) NW 305 ° 0 min 0,000 mm 0,0 UV-I 0 W/m² 6,2 °C 4,4 °C 27,4 km/h (4 Bft)
10.10.2019 01:49 7,6 °C 91 % 1014,5 hPa 0,0 mm 14,8 km/h (3 Bft) W-SW 256 ° 0 min 0,000 mm 0,0 UV-I 0 W/m² 6,2 °C 5,0 °C 24,1 km/h (4 Bft)
10.10.2019 01:50 7,6 °C 91 % 1014,5 hPa 0,0 mm 20,6 km/h (4 Bft) W 270 ° 0 min 0,000 mm 0,0 UV-I 0 W/m² 6,2 °C 4,3 °C 29,0 km/h (5 Bft)
10.10.2019 01:51 7,6 °C 92 % 1014,5 hPa 0,0 mm 13,1 km/h (3 Bft) W 266 ° 0 min 0,000 mm 0,0 UV-I 0 W/m² 6,4 °C 5,2 °C 24,1 km/h (4 Bft)
10.10.2019 01:52 7,6 °C 91 % 1014,6 hPa 0,0 mm 13,2 km/h (3 Bft) W 261 ° 0 min 0,000 mm 0,0 UV-I 0 W/m² 6,2 °C 5,2 °C 22,5 km/h (4 Bft)
10.10.2019 01:53 7,6 °C 91 % 1014,7 hPa 0,0 mm 17,6 km/h (3 Bft) W-SW 242 ° 0 min 0,000 mm 0,0 UV-I 0 W/m² 6,2 °C 4,6 °C 29,0 km/h (5 Bft)
10.10.2019 01:54 7,6 °C 92 % 1014,7 hPa 0,0 mm 18,1 km/h (3 Bft) W-SW 255 ° 0 min 0,000 mm 0,0 UV-I 0 W/m² 6,4 °C 4,6 °C 27,4 km/h (4 Bft)
10.10.2019 01:55 7,6 °C 92 % 1014,6 hPa 0,0 mm 16,8 km/h (3 Bft) W-NW 293 ° 0 min 0,000 mm 0,0 UV-I 0 W/m² 6,4 °C 4,7 °C 35,4 km/h (5 Bft)
10.10.2019 01:56 7,6 °C 92 % 1014,5 hPa 0,0 mm 18,0 km/h (3 Bft) W 276 ° 0 min 0,000 mm 0,0 UV-I 0 W/m² 6,4 °C 4,6 °C 32,2 km/h (5 Bft)
10.10.2019 01:57 7,6 °C 92 % 1014,6 hPa 0,0 mm 17,0 km/h (3 Bft) W-SW 254 ° 0 min 0,000 mm 0,0 UV-I 0 W/m² 6,4 °C 4,7 °C 30,6 km/h (5 Bft)
10.10.2019 01:58 7,6 °C 91 % 1014,6 hPa 0,0 mm 19,9 km/h (4 Bft) W 270 ° 0 min 0,000 mm 0,0 UV-I 0 W/m² 6,2 °C 4,4 °C 32,2 km/h (5 Bft)
10.10.2019 01:59 7,5 °C 91 % 1014,6 hPa 0,0 mm 13,2 km/h (3 Bft) W 281 ° 0 min 0,000 mm 0,0 UV-I 0 W/m² 6,1 °C 5,1 °C 22,5 km/h (4 Bft)
10.10.2019 02:00 7,6 °C 91 % 1014,6 hPa 0,0 mm 20,1 km/h (4 Bft) W-SW 252 ° 0 min 0,026 mm 0,0 UV-I 0 W/m² 6,2 °C 4,3 °C 37,0 km/h (5 Bft)
10.10.2019 02:01 7,5 °C 91 % 1014,6 hPa 0,0 mm 17,6 km/h (3 Bft) W 277 ° 0 min 0,000 mm 0,0 UV-I 0 W/m² 6,1 °C 4,5 °C 29,0 km/h (5 Bft)
10.10.2019 02:02 7,5 °C 91 % 1014,6 hPa 0,0 mm 11,6 km/h (2 Bft) W-NW 296 ° 0 min 0,000 mm 0,0 UV-I 0 W/m² 6,1 °C 5,4 °C 17,7 km/h (3 Bft)
10.10.2019 02:03 7,4 °C 91 % 1014,7 hPa 0,0 mm 14,3 km/h (3 Bft) W-SW 251 ° 0 min 0,000 mm 0,0 UV-I 0 W/m² 6,0 °C 4,8 °C 35,4 km/h (5 Bft)
10.10.2019 02:04 7,4 °C 91 % 1014,6 hPa 0,0 mm 23,4 km/h (4 Bft) W 269 ° 0 min 0,000 mm 0,0 UV-I 0 W/m² 6,0 °C 3,7 °C 35,4 km/h (5 Bft)
10.10.2019 02:05 7,4 °C 91 % 1014,6 hPa 0,0 mm 23,0 km/h (4 Bft) W 265 ° 0 min 0,000 mm 0,0 UV-I 0 W/m² 6,0 °C 3,8 °C 33,8 km/h (5 Bft)
10.10.2019 02:06 7,4 °C 91 % 1014,7 hPa 0,0 mm 19,0 km/h (3 Bft) W-NW 287 ° 0 min 0,000 mm 0,0 UV-I 0 W/m² 6,0 °C 4,2 °C 25,7 km/h (4 Bft)
10.10.2019 02:07 7,4 °C 91 % 1014,8 hPa 0,0 mm 15,1 km/h (3 Bft) W 260 ° 0 min 0,000 mm 0,0 UV-I 0 W/m² 6,0 °C 4,7 °C 19,3 km/h (3 Bft)
10.10.2019 02:08 7,4 °C 91 % 1014,8 hPa 0,0 mm 12,6 km/h (3 Bft) W 267 ° 0 min 0,000 mm 0,0 UV-I 0 W/m² 6,0 °C 5,1 °C 24,1 km/h (4 Bft)
10.10.2019 02:09 7,4 °C 91 % 1014,8 hPa 0,0 mm 21,9 km/h (4 Bft) SW 233 ° 0 min 0,000 mm 0,0 UV-I 0 W/m² 6,0 °C 3,9 °C 40,2 km/h (6 Bft)
10.10.2019 02:10 7,4 °C 91 % 1014,8 hPa 0,0 mm 14,0 km/h (3 Bft) W-NW 290 ° 0 min 0,000 mm 0,0 UV-I 0 W/m² 6,0 °C 4,9 °C 20,9 km/h (4 Bft)
10.10.2019 02:11 7,4 °C 91 % 1014,8 hPa 0,0 mm 13,3 km/h (3 Bft) W-NW 286 ° 0 min 0,000 mm 0,0 UV-I 0 W/m² 6,0 °C 5,0 °C 19,3 km/h (3 Bft)
10.10.2019 02:12 7,4 °C 91 % 1014,8 hPa 0,0 mm 16,6 km/h (3 Bft) W 260 ° 0 min 0,000 mm 0,0 UV-I 0 W/m² 6,0 °C 4,5 °C 25,7 km/h (4 Bft)
10.10.2019 02:13 7,3 °C 91 % 1014,8 hPa 0,0 mm 18,2 km/h (3 Bft) W-NW 293 ° 0 min 0,000 mm 0,0 UV-I 0 W/m² 5,9 °C 4,2 °C 25,7 km/h (4 Bft)
10.10.2019 02:14 7,3 °C 91 % 1014,8 hPa 0,0 mm 21,1 km/h (4 Bft) SW 232 ° 0 min 0,000 mm 0,0 UV-I 0 W/m² 5,9 °C 3,9 °C 33,8 km/h (5 Bft)
10.10.2019 02:15 7,3 °C 92 % 1014,8 hPa 0,0 mm 15,3 km/h (3 Bft) W 263 ° 0 min 0,000 mm 0,0 UV-I 0 W/m² 6,1 °C 4,5 °C 25,7 km/h (4 Bft)
10.10.2019 02:16 7,3 °C 92 % 1014,8 hPa 0,0 mm 12,4 km/h (3 Bft) W 280 ° 0 min 0,000 mm 0,0 UV-I 0 W/m² 6,1 °C 5,0 °C 19,3 km/h (3 Bft)
10.10.2019 02:17 7,3 °C 92 % 1014,8 hPa 0,0 mm 14,4 km/h (3 Bft) W 272 ° 0 min 0,000 mm 0,0 UV-I 0 W/m² 6,1 °C 4,7 °C 22,5 km/h (4 Bft)
10.10.2019 02:18 7,3 °C 92 % 1014,8 hPa 0,0 mm 16,4 km/h (3 Bft) W 260 ° 0 min 0,000 mm 0,0 UV-I 0 W/m² 6,1 °C 4,4 °C 22,5 km/h (4 Bft)
10.10.2019 02:19 7,3 °C 92 % 1014,8 hPa 0,0 mm 17,1 km/h (3 Bft) W-NW 284 ° 0 min 0,000 mm 0,0 UV-I 0 W/m² 6,1 °C 4,3 °C 24,1 km/h (4 Bft)
10.10.2019 02:20 7,3 °C 92 % 1014,8 hPa 0,0 mm 19,3 km/h (3 Bft) W 267 ° 0 min 0,000 mm 0,0 UV-I 0 W/m² 6,1 °C 4,0 °C 30,6 km/h (5 Bft)
10.10.2019 02:21 7,3 °C 92 % 1014,8 hPa 0,0 mm 23,4 km/h (4 Bft) W 271 ° 0 min 0,000 mm 0,0 UV-I 0 W/m² 6,1 °C 3,6 °C 33,8 km/h (5 Bft)
10.10.2019 02:22 7,3 °C 92 % 1014,8 hPa 0,0 mm 8,5 km/h (2 Bft) W-SW 257 ° 0 min 0,000 mm 0,0 UV-I 0 W/m² 6,1 °C 5,7 °C 14,5 km/h (3 Bft)
10.10.2019 02:23 7,3 °C 92 % 1014,7 hPa 0,0 mm 11,0 km/h (2 Bft) W-SW 254 ° 0 min 0,000 mm 0,0 UV-I 0 W/m² 6,1 °C 5,2 °C 20,9 km/h (4 Bft)
10.10.2019 02:24 7,2 °C 92 % 1014,7 hPa 0,0 mm 10,8 km/h (2 Bft) W 261 ° 0 min 0,000 mm 0,0 UV-I 0 W/m² 6,0 °C 5,1 °C 22,5 km/h (4 Bft)
10.10.2019 02:25 7,2 °C 92 % 1014,7 hPa 0,0 mm 14,6 km/h (3 Bft) W 279 ° 0 min 0,000 mm 0,0 UV-I 0 W/m² 6,0 °C 4,5 °C 27,4 km/h (4 Bft)
10.10.2019 02:26 7,2 °C 92 % 1014,7 hPa 0,0 mm 20,3 km/h (4 Bft) W 264 ° 0 min 0,000 mm 0,0 UV-I 0 W/m² 6,0 °C 3,8 °C 35,4 km/h (5 Bft)
10.10.2019 02:27 7,2 °C 92 % 1014,8 hPa 0,0 mm 12,6 km/h (3 Bft) W 270 ° 0 min 0,000 mm 0,0 UV-I 0 W/m² 6,0 °C 4,8 °C 22,5 km/h (4 Bft)
10.10.2019 02:28 7,2 °C 92 % 1014,7 hPa 0,0 mm 17,1 km/h (3 Bft) S-SW 213 ° 0 min 0,000 mm 0,0 UV-I 0 W/m² 6,0 °C 4,2 °C 30,6 km/h (5 Bft)
10.10.2019 02:29 7,2 °C 92 % 1014,6 hPa 0,0 mm 11,0 km/h (2 Bft) W-NW 289 ° 0 min 0,000 mm 0,0 UV-I 0 W/m² 6,0 °C 5,1 °C 17,7 km/h (3 Bft)
10.10.2019 02:30 7,2 °C 92 % 1014,7 hPa 0,0 mm 12,1 km/h (2 Bft) W 279 ° 0 min 0,000 mm 0,0 UV-I 0 W/m² 6,0 °C 4,9 °C 17,7 km/h (3 Bft)
10.10.2019 02:31 7,2 °C 92 % 1014,7 hPa 0,0 mm 13,5 km/h (3 Bft) W 266 ° 0 min 0,000 mm 0,0 UV-I 0 W/m² 6,0 °C 4,7 °C 17,7 km/h (3 Bft)
10.10.2019 02:32 7,2 °C 92 % 1014,7 hPa 0,0 mm 19,2 km/h (3 Bft) W 264 ° 0 min 0,000 mm 0,0 UV-I 0 W/m² 6,0 °C 3,9 °C 25,7 km/h (4 Bft)
10.10.2019 02:33 7,2 °C 92 % 1014,7 hPa 0,0 mm 10,7 km/h (2 Bft) W 267 ° 0 min 0,000 mm 0,0 UV-I 0 W/m² 6,0 °C 5,2 °C 14,5 km/h (3 Bft)
10.10.2019 02:34 7,1 °C 92 % 1014,7 hPa 0,0 mm 7,4 km/h (2 Bft) W 281 ° 0 min 0,000 mm 0,0 UV-I 0 W/m² 5,9 °C 5,7 °C 12,9 km/h (3 Bft)
10.10.2019 02:35 7,1 °C 92 % 1014,7 hPa 0,0 mm 10,5 km/h (2 Bft) W 259 ° 0 min 0,000 mm 0,0 UV-I 0 W/m² 5,9 °C 5,1 °C 14,5 km/h (3 Bft)
10.10.2019 02:36 7,1 °C 92 % 1014,7 hPa 0,0 mm 9,8 km/h (2 Bft) W-SW 257 ° 0 min 0,000 mm 0,0 UV-I 0 W/m² 5,9 °C 5,2 °C 17,7 km/h (3 Bft)
10.10.2019 02:37 7,1 °C 92 % 1014,7 hPa 0,0 mm 10,5 km/h (2 Bft) W-SW 258 ° 0 min 0,000 mm 0,0 UV-I 0 W/m² 5,9 °C 5,1 °C 22,5 km/h (4 Bft)
10.10.2019 02:38 7,1 °C 92 % 1014,7 hPa 0,0 mm 12,8 km/h (3 Bft) W-SW 243 ° 0 min 0,000 mm 0,0 UV-I 0 W/m² 5,9 °C 4,7 °C 17,7 km/h (3 Bft)
10.10.2019 02:39 7,0 °C 92 % 1014,7 hPa 0,0 mm 13,6 km/h (3 Bft) W 259 ° 0 min 0,000 mm 0,0 UV-I 0 W/m² 5,8 °C 4,4 °C 22,5 km/h (4 Bft)
10.10.2019 02:40 7,0 °C 92 % 1014,7 hPa 0,0 mm 14,7 km/h (3 Bft) W-SW 257 ° 0 min 0,000 mm 0,0 UV-I 0 W/m² 5,8 °C 4,3 °C 17,7 km/h (3 Bft)
10.10.2019 02:41 7,0 °C 92 % 1014,6 hPa 0,0 mm 8,4 km/h (2 Bft) W-SW 247 ° 0 min 0,000 mm 0,0 UV-I 0 W/m² 5,8 °C 5,4 °C 16,1 km/h (3 Bft)
10.10.2019 02:42 7,0 °C 92 % 1014,6 hPa 0,0 mm 7,5 km/h (2 Bft) W-SW 246 ° 0 min 0,000 mm 0,0 UV-I 0 W/m² 5,8 °C 5,6 °C 16,1 km/h (3 Bft)
10.10.2019 02:43 7,1 °C 92 % 1014,6 hPa 0,0 mm 13,2 km/h (3 Bft) W 269 ° 0 min 0,000 mm 0,0 UV-I 0 W/m² 5,9 °C 4,6 °C 27,4 km/h (4 Bft)
10.10.2019 02:44 7,1 °C 92 % 1014,6 hPa 0,0 mm 10,7 km/h (2 Bft) W-SW 257 ° 0 min 0,000 mm 0,0 UV-I 0 W/m² 5,9 °C 5,0 °C 20,9 km/h (4 Bft)
10.10.2019 02:45 7,1 °C 92 % 1014,6 hPa 0,0 mm 10,6 km/h (2 Bft) W-NW 292 ° 0 min 0,000 mm 0,0 UV-I 0 W/m² 5,9 °C 5,1 °C 17,7 km/h (3 Bft)
10.10.2019 02:46 7,1 °C 92 % 1014,6 hPa 0,0 mm 13,9 km/h (3 Bft) W 261 ° 0 min 0,000 mm 0,0 UV-I 0 W/m² 5,9 °C 4,5 °C 22,5 km/h (4 Bft)
10.10.2019 02:47 7,1 °C 92 % 1014,6 hPa 0,0 mm 13,8 km/h (3 Bft) W-SW 248 ° 0 min 0,000 mm 0,0 UV-I 0 W/m² 5,9 °C 4,5 °C 19,3 km/h (3 Bft)
10.10.2019 02:48 7,1 °C 92 % 1014,6 hPa 0,0 mm 9,5 km/h (2 Bft) W-SW 248 ° 0 min 0,000 mm 0,0 UV-I 0 W/m² 5,9 °C 5,3 °C 17,7 km/h (3 Bft)
10.10.2019 02:49 7,1 °C 92 % 1014,8 hPa 0,0 mm 10,4 km/h (2 Bft) W-NW 286 ° 0 min 0,000 mm 0,0 UV-I 0 W/m² 5,9 °C 5,1 °C 14,5 km/h (3 Bft)
10.10.2019 02:50 7,1 °C 93 % 1014,8 hPa 0,0 mm 11,3 km/h (2 Bft) W-SW 244 ° 0 min 0,000 mm 0,0 UV-I 0 W/m² 6,0 °C 4,9 °C 14,5 km/h (3 Bft)
10.10.2019 02:51 7,1 °C 93 % 1014,7 hPa 0,0 mm 4,3 km/h (1 Bft) W 281 ° 0 min 0,000 mm 0,0 UV-I 0 W/m² 6,0 °C 7,1 °C 6,4 km/h (2 Bft)
10.10.2019 02:52 7,1 °C 93 % 1014,7 hPa 0,0 mm 10,3 km/h (2 Bft) W 261 ° 0 min 0,000 mm 0,0 UV-I 0 W/m² 6,0 °C 5,1 °C 19,3 km/h (3 Bft)
10.10.2019 02:53 7,1 °C 93 % 1014,7 hPa 0,0 mm 11,9 km/h (2 Bft) W 267 ° 0 min 0,000 mm 0,0 UV-I 0 W/m² 6,0 °C 4,8 °C 22,5 km/h (4 Bft)
10.10.2019 02:54 7,1 °C 93 % 1014,7 hPa 0,0 mm 17,0 km/h (3 Bft) W-SW 254 ° 0 min 0,000 mm 0,0 UV-I 0 W/m² 6,0 °C 4,1 °C 22,5 km/h (4 Bft)
10.10.2019 02:55 7,1 °C 93 % 1014,7 hPa 0,0 mm 18,6 km/h (3 Bft) W 264 ° 0 min 0,000 mm 0,0 UV-I 0 W/m² 6,0 °C 3,9 °C 20,9 km/h (4 Bft)
10.10.2019 02:56 7,1 °C 93 % 1014,7 hPa 0,0 mm 13,5 km/h (3 Bft) W 272 ° 0 min 0,000 mm 0,0 UV-I 0 W/m² 6,0 °C 4,6 °C 22,5 km/h (4 Bft)
10.10.2019 02:57 7,1 °C 93 % 1014,7 hPa 0,0 mm 11,7 km/h (2 Bft) SW 222 ° 0 min 0,000 mm 0,0 UV-I 0 W/m² 6,0 °C 4,9 °C 17,7 km/h (3 Bft)
10.10.2019 02:58 7,1 °C 93 % 1014,7 hPa 0,0 mm 10,9 km/h (2 Bft) W-SW 257 ° 0 min 0,000 mm 0,0 UV-I 0 W/m² 6,0 °C 5,0 °C 16,1 km/h (3 Bft)
10.10.2019 02:59 7,1 °C 93 % 1014,7 hPa 0,0 mm 14,5 km/h (3 Bft) W 267 ° 0 min 0,000 mm 0,0 UV-I 0 W/m² 6,0 °C 4,4 °C 20,9 km/h (4 Bft)
10.10.2019 03:00 7,1 °C 93 % 1014,7 hPa 0,0 mm 11,5 km/h (2 Bft) SW 236 ° 0 min 0,000 mm 0,0 UV-I 0 W/m² 6,0 °C 4,9 °C 16,1 km/h (3 Bft)
10.10.2019 03:01 7,1 °C 93 % 1014,8 hPa 0,0 mm 10,0 km/h (2 Bft) W-SW 258 ° 0 min 0,000 mm 0,0 UV-I 0 W/m² 6,0 °C 5,2 °C 16,1 km/h (3 Bft)
10.10.2019 03:02 7,1 °C 93 % 1014,8 hPa 0,0 mm 8,7 km/h (2 Bft) W-SW 238 ° 0 min 0,000 mm 0,0 UV-I 0 W/m² 6,0 °C 5,4 °C 17,7 km/h (3 Bft)
10.10.2019 03:03 7,1 °C 93 % 1014,9 hPa 0,0 mm 10,3 km/h (2 Bft) W-SW 239 ° 0 min 0,000 mm 0,0 UV-I 0 W/m² 6,0 °C 5,1 °C 16,1 km/h (3 Bft)
10.10.2019 03:04 7,1 °C 93 % 1014,9 hPa 0,0 mm 11,9 km/h (2 Bft) S-SW 197 ° 0 min 0,000 mm 0,0 UV-I 0 W/m² 6,0 °C 4,8 °C 22,5 km/h (4 Bft)
10.10.2019 03:05 7,1 °C 93 % 1014,9 hPa 0,0 mm 16,2 km/h (3 Bft) S-SW 194 ° 0 min 0,000 mm 0,0 UV-I 0 W/m² 6,0 °C 4,2 °C 25,7 km/h (4 Bft)
10.10.2019 03:06 7,1 °C 93 % 1014,8 hPa 0,0 mm 11,5 km/h (2 Bft) W-SW 242 ° 0 min 0,000 mm 0,0 UV-I 0 W/m² 6,0 °C 4,9 °C 17,7 km/h (3 Bft)
10.10.2019 03:07 7,2 °C 93 % 1014,8 hPa 0,0 mm 16,2 km/h (3 Bft) W 271 ° 0 min 0,000 mm 0,0 UV-I 0 W/m² 6,1 °C 4,3 °C 25,7 km/h (4 Bft)
10.10.2019 03:08 7,2 °C 93 % 1014,8 hPa 0,0 mm 15,2 km/h (3 Bft) W 265 ° 0 min 0,000 mm 0,0 UV-I 0 W/m² 6,1 °C 4,4 °C 19,3 km/h (3 Bft)
10.10.2019 03:09 7,2 °C 93 % 1014,8 hPa 0,0 mm 13,0 km/h (3 Bft) W 264 ° 0 min 0,000 mm 0,0 UV-I 0 W/m² 6,1 °C 4,8 °C 22,5 km/h (4 Bft)
10.10.2019 03:10 7,2 °C 93 % 1014,8 hPa 0,0 mm 14,1 km/h (3 Bft) W-SW 254 ° 0 min 0,000 mm 0,0 UV-I 0 W/m² 6,1 °C 4,6 °C 17,7 km/h (3 Bft)
10.10.2019 03:11 7,2 °C 93 % 1014,8 hPa 0,0 mm 12,1 km/h (2 Bft) W 267 ° 0 min 0,000 mm 0,0 UV-I 0 W/m² 6,1 °C 4,9 °C 16,1 km/h (3 Bft)
10.10.2019 03:12 7,2 °C 93 % 1014,7 hPa 0,0 mm 11,8 km/h (2 Bft) S 183 ° 0 min 0,000 mm 0,0 UV-I 0 W/m² 6,1 °C 5,0 °C 20,9 km/h (4 Bft)
10.10.2019 03:13 7,2 °C 93 % 1014,6 hPa 0,0 mm 15,6 km/h (3 Bft) W-SW 255 ° 0 min 0,000 mm 0,0 UV-I 0 W/m² 6,1 °C 4,4 °C 22,5 km/h (4 Bft)
10.10.2019 03:14 7,2 °C 93 % 1014,6 hPa 0,0 mm 4,9 km/h (1 Bft) W 266 ° 0 min 0,000 mm 0,0 UV-I 0 W/m² 6,1 °C 6,6 °C 12,9 km/h (3 Bft)
10.10.2019 03:15 7,1 °C 93 % 1014,7 hPa 0,0 mm 8,5 km/h (2 Bft) W-NW 284 ° 0 min 0,000 mm 0,0 UV-I 0 W/m² 6,0 °C 5,5 °C 20,9 km/h (4 Bft)
10.10.2019 03:16 7,1 °C 93 % 1014,7 hPa 0,0 mm 10,2 km/h (2 Bft) SW 222 ° 0 min 0,000 mm 0,0 UV-I 0 W/m² 6,0 °C 5,1 °C 14,5 km/h (3 Bft)
10.10.2019 03:17 7,1 °C 93 % 1014,7 hPa 0,0 mm 11,7 km/h (2 Bft) SW 215 ° 0 min 0,000 mm 0,0 UV-I 0 W/m² 6,0 °C 4,9 °C 16,1 km/h (3 Bft)
10.10.2019 03:18 7,1 °C 93 % 1014,6 hPa 0,0 mm 11,4 km/h (2 Bft) W-SW 244 ° 0 min 0,000 mm 0,0 UV-I 0 W/m² 6,0 °C 4,9 °C 17,7 km/h (3 Bft)
10.10.2019 03:19 7,1 °C 93 % 1014,6 hPa 0,0 mm 9,1 km/h (2 Bft) W-SW 239 ° 0 min 0,000 mm 0,0 UV-I 0 W/m² 6,0 °C 5,4 °C 14,5 km/h (3 Bft)
10.10.2019 03:20 7,1 °C 93 % 1014,6 hPa 0,0 mm 8,9 km/h (2 Bft) W 261 ° 0 min 0,000 mm 0,0 UV-I 0 W/m² 6,0 °C 5,4 °C 14,5 km/h (3 Bft)
10.10.2019 03:21 7,1 °C 93 % 1014,6 hPa 0,0 mm 13,5 km/h (3 Bft) W-SW 243 ° 0 min 0,000 mm 0,0 UV-I 0 W/m² 6,0 °C 4,6 °C 22,5 km/h (4 Bft)
10.10.2019 03:22 7,1 °C 93 % 1014,7 hPa 0,0 mm 7,5 km/h (2 Bft) S 190 ° 0 min 0,000 mm 0,0 UV-I 0 W/m² 6,0 °C 5,7 °C 11,3 km/h (2 Bft)
10.10.2019 03:23 7,1 °C 93 % 1014,7 hPa 0,0 mm 10,6 km/h (2 Bft) W-SW 238 ° 0 min 0,000 mm 0,0 UV-I 0 W/m² 6,0 °C 5,1 °C 16,1 km/h (3 Bft)
10.10.2019 03:24 7,1 °C 93 % 1014,7 hPa 0,0 mm 7,4 km/h (2 Bft) W 259 ° 0 min 0,000 mm 0,0 UV-I 0 W/m² 6,0 °C 5,7 °C 11,3 km/h (2 Bft)
10.10.2019 03:25 7,1 °C 93 % 1014,7 hPa 0,0 mm 12,7 km/h (3 Bft) W-SW 237 ° 0 min 0,000 mm 0,0 UV-I 0 W/m² 6,0 °C 4,7 °C 20,9 km/h (4 Bft)
10.10.2019 03:26 7,1 °C 93 % 1014,7 hPa 0,0 mm 5,5 km/h (1 Bft) S-SW 213 ° 0 min 0,000 mm 0,0 UV-I 0 W/m² 6,0 °C 6,3 °C 9,7 km/h (2 Bft)
10.10.2019 03:27 7,1 °C 93 % 1014,7 hPa 0,0 mm 8,9 km/h (2 Bft) SW 236 ° 0 min 0,000 mm 0,0 UV-I 0 W/m² 6,0 °C 5,4 °C 16,1 km/h (3 Bft)
10.10.2019 03:28 7,1 °C 93 % 1014,7 hPa 0,0 mm 5,2 km/h (1 Bft) W-SW 258 ° 0 min 0,000 mm 0,0 UV-I 0 W/m² 6,0 °C 6,4 °C 9,7 km/h (2 Bft)
10.10.2019 03:29 7,1 °C 92 % 1014,6 hPa 0,0 mm 10,1 km/h (2 Bft) W-NW 283 ° 0 min 0,000 mm 0,0 UV-I 0 W/m² 5,9 °C 5,1 °C 16,1 km/h (3 Bft)
10.10.2019 03:30 7,1 °C 92 % 1014,6 hPa 0,0 mm 12,0 km/h (2 Bft) W-SW 238 ° 0 min 0,000 mm 0,0 UV-I 0 W/m² 5,9 °C 4,8 °C 17,7 km/h (3 Bft)
10.10.2019 03:31 7,2 °C 92 % 1014,7 hPa 0,0 mm 9,3 km/h (2 Bft) W-SW 240 ° 0 min 0,000 mm 0,0 UV-I 0 W/m² 6,0 °C 5,4 °C 16,1 km/h (3 Bft)
10.10.2019 03:32 7,2 °C 92 % 1014,7 hPa 0,0 mm 5,9 km/h (2 Bft) S-SW 198 ° 0 min 0,000 mm 0,0 UV-I 0 W/m² 6,0 °C 6,3 °C 14,5 km/h (3 Bft)
10.10.2019 03:33 7,2 °C 92 % 1014,7 hPa 0,0 mm 8,3 km/h (2 Bft) W 267 ° 0 min 0,000 mm 0,0 UV-I 0 W/m² 6,0 °C 5,6 °C 12,9 km/h (3 Bft)
10.10.2019 03:34 7,2 °C 92 % 1014,8 hPa 0,0 mm 11,9 km/h (2 Bft) S-SW 212 ° 0 min 0,000 mm 0,0 UV-I 0 W/m² 6,0 °C 4,9 °C 16,1 km/h (3 Bft)
10.10.2019 03:35 7,2 °C 92 % 1014,8 hPa 0,0 mm 10,3 km/h (2 Bft) W-SW 257 ° 0 min 0,000 mm 0,0 UV-I 0 W/m² 6,0 °C 5,2 °C 14,5 km/h (3 Bft)
10.10.2019 03:36 7,2 °C 92 % 1014,8 hPa 0,0 mm 10,0 km/h (2 Bft) W-SW 247 ° 0 min 0,000 mm 0,0 UV-I 0 W/m² 6,0 °C 5,3 °C 14,5 km/h (3 Bft)
10.10.2019 03:37 7,2 °C 92 % 1014,8 hPa 0,0 mm 8,9 km/h (2 Bft) W 275 ° 0 min 0,000 mm 0,0 UV-I 0 W/m² 6,0 °C 5,5 °C 14,5 km/h (3 Bft)
10.10.2019 03:38 7,2 °C 92 % 1014,8 hPa 0,0 mm 10,6 km/h (2 Bft) W-SW 249 ° 0 min 0,000 mm 0,0 UV-I 0 W/m² 6,0 °C 5,2 °C 17,7 km/h (3 Bft)
10.10.2019 03:39 7,2 °C 92 % 1014,8 hPa 0,0 mm 8,0 km/h (2 Bft) W-SW 247 ° 0 min 0,000 mm 0,0 UV-I 0 W/m² 6,0 °C 5,7 °C 11,3 km/h (2 Bft)
10.10.2019 03:40 7,2 °C 92 % 1014,8 hPa 0,0 mm 8,8 km/h (2 Bft) W-SW 251 ° 0 min 0,000 mm 0,0 UV-I 0 W/m² 6,0 °C 5,5 °C 16,1 km/h (3 Bft)
10.10.2019 03:41 7,2 °C 92 % 1014,8 hPa 0,0 mm 6,2 km/h (2 Bft) W 273 ° 0 min 0,000 mm 0,0 UV-I 0 W/m² 6,0 °C 6,2 °C 11,3 km/h (2 Bft)
10.10.2019 03:42 7,2 °C 92 % 1014,8 hPa 0,0 mm 8,9 km/h (2 Bft) W 263 ° 0 min 0,000 mm 0,0 UV-I 0 W/m² 6,0 °C 5,5 °C 16,1 km/h (3 Bft)
10.10.2019 03:43 7,2 °C 92 % 1014,8 hPa 0,0 mm 8,8 km/h (2 Bft) W-SW 246 ° 0 min 0,000 mm 0,0 UV-I 0 W/m² 6,0 °C 5,5 °C 14,5 km/h (3 Bft)
10.10.2019 03:44 7,2 °C 92 % 1014,9 hPa 0,0 mm 8,1 km/h (2 Bft) W-SW 247 ° 0 min 0,000 mm 0,0 UV-I 0 W/m² 6,0 °C 5,7 °C 11,3 km/h (2 Bft)
10.10.2019 03:45 7,2 °C 92 % 1014,8 hPa 0,0 mm 6,7 km/h (2 Bft) W 276 ° 0 min 0,000 mm 0,0 UV-I 0 W/m² 6,0 °C 6,1 °C 12,9 km/h (3 Bft)
10.10.2019 03:46 7,2 °C 92 % 1014,8 hPa 0,0 mm 6,1 km/h (2 Bft) W 271 ° 0 min 0,000 mm 0,0 UV-I 0 W/m² 6,0 °C 6,2 °C 11,3 km/h (2 Bft)
10.10.2019 03:47 7,2 °C 92 % 1014,9 hPa 0,0 mm 8,8 km/h (2 Bft) W 262 ° 0 min 0,000 mm 0,0 UV-I 0 W/m² 6,0 °C 5,5 °C 12,9 km/h (3 Bft)
10.10.2019 03:48 7,2 °C 92 % 1014,8 hPa 0,0 mm 7,2 km/h (2 Bft) W-NW 297 ° 0 min 0,000 mm 0,0 UV-I 0 W/m² 6,0 °C 5,9 °C 12,9 km/h (3 Bft)
10.10.2019 03:49 7,2 °C 92 % 1014,8 hPa 0,0 mm 9,8 km/h (2 Bft) W-SW 248 ° 0 min 0,000 mm 0,0 UV-I 0 W/m² 6,0 °C 5,3 °C 14,5 km/h (3 Bft)
10.10.2019 03:50 7,2 °C 92 % 1014,8 hPa 0,0 mm 5,1 km/h (1 Bft) W-SW 246 ° 0 min 0,000 mm 0,0 UV-I 0 W/m² 6,0 °C 6,5 °C 8,0 km/h (2 Bft)
10.10.2019 03:51 7,2 °C 92 % 1014,8 hPa 0,0 mm 5,7 km/h (1 Bft) S-SW 193 ° 0 min 0,000 mm 0,0 UV-I 0 W/m² 6,0 °C 6,3 °C 11,3 km/h (2 Bft)
10.10.2019 03:52 7,2 °C 92 % 1014,8 hPa 0,0 mm 7,6 km/h (2 Bft) W-SW 247 ° 0 min 0,000 mm 0,0 UV-I 0 W/m² 6,0 °C 5,8 °C 16,1 km/h (3 Bft)
10.10.2019 03:53 7,2 °C 92 % 1014,8 hPa 0,0 mm 10,8 km/h (2 Bft) W-SW 256 ° 0 min 0,000 mm 0,0 UV-I 0 W/m² 6,0 °C 5,1 °C 16,1 km/h (3 Bft)
10.10.2019 03:54 7,2 °C 92 % 1014,8 hPa 0,0 mm 6,6 km/h (2 Bft) SW 235 ° 0 min 0,000 mm 0,0 UV-I 0 W/m² 6,0 °C 6,1 °C 12,9 km/h (3 Bft)
10.10.2019 03:55 7,2 °C 92 % 1014,8 hPa 0,0 mm 8,8 km/h (2 Bft) W-SW 254 ° 0 min 0,000 mm 0,0 UV-I 0 W/m² 6,0 °C 5,5 °C 12,9 km/h (3 Bft)
10.10.2019 03:56 7,2 °C 92 % 1014,8 hPa 0,0 mm 7,8 km/h (2 Bft) W-SW 237 ° 0 min 0,000 mm 0,0 UV-I 0 W/m² 6,0 °C 5,8 °C 14,5 km/h (3 Bft)
10.10.2019 03:57 7,3 °C 92 % 1014,8 hPa 0,0 mm 9,0 km/h (2 Bft) W-SW 240 ° 0 min 0,000 mm 0,0 UV-I 0 W/m² 6,1 °C 5,6 °C 12,9 km/h (3 Bft)
10.10.2019 03:58 7,2 °C 92 % 1014,8 hPa 0,2 mm 15,5 km/h (3 Bft) SW 229 ° 0 min 0,000 mm 0,0 UV-I 0 W/m² 6,0 °C 4,4 °C 24,1 km/h (4 Bft)
10.10.2019 03:59 7,3 °C 92 % 1014,8 hPa 0,0 mm 8,7 km/h (2 Bft) W 263 ° 0 min 0,000 mm 0,0 UV-I 0 W/m² 6,1 °C 5,7 °C 16,1 km/h (3 Bft)
10.10.2019 04:00 7,3 °C 92 % 1014,8 hPa 0,0 mm 10,5 km/h (2 Bft) W-SW 252 ° 0 min 0,000 mm 0,0 UV-I 0 W/m² 6,1 °C 5,3 °C 19,3 km/h (3 Bft)
10.10.2019 04:01 7,3 °C 92 % 1014,8 hPa 0,0 mm 11,7 km/h (2 Bft) W 272 ° 0 min 0,000 mm 0,0 UV-I 0 W/m² 6,1 °C 5,1 °C 14,5 km/h (3 Bft)
10.10.2019 04:02 7,3 °C 92 % 1014,8 hPa 0,0 mm 11,1 km/h (2 Bft) W 271 ° 0 min 0,000 mm 0,0 UV-I 0 W/m² 6,1 °C 5,2 °C 24,1 km/h (4 Bft)
10.10.2019 04:03 7,3 °C 92 % 1014,8 hPa 0,0 mm 13,5 km/h (3 Bft) W-SW 246 ° 0 min 0,000 mm 0,0 UV-I 0 W/m² 6,1 °C 4,8 °C 20,9 km/h (4 Bft)
10.10.2019 04:04 7,3 °C 92 % 1014,8 hPa 0,0 mm 6,0 km/h (2 Bft) W-SW 254 ° 0 min 0,000 mm 0,0 UV-I 0 W/m² 6,1 °C 6,4 °C 11,3 km/h (2 Bft)
10.10.2019 04:05 7,3 °C 92 % 1014,8 hPa 0,0 mm 9,3 km/h (2 Bft) W 267 ° 0 min 0,000 mm 0,0 UV-I 0 W/m² 6,1 °C 5,5 °C 16,1 km/h (3 Bft)
10.10.2019 04:06 7,2 °C 92 % 1014,8 hPa 0,0 mm 8,9 km/h (2 Bft) W 264 ° 0 min 0,000 mm 0,0 UV-I 0 W/m² 6,0 °C 5,5 °C 16,1 km/h (3 Bft)
10.10.2019 04:07 7,3 °C 92 % 1014,7 hPa 0,0 mm 8,7 km/h (2 Bft) W-SW 253 ° 0 min 0,000 mm 0,0 UV-I 0 W/m² 6,1 °C 5,7 °C 14,5 km/h (3 Bft)
10.10.2019 04:08 7,2 °C 92 % 1014,8 hPa 0,0 mm 6,8 km/h (2 Bft) W-NW 303 ° 0 min 0,000 mm 0,0 UV-I 0 W/m² 6,0 °C 6,0 °C 11,3 km/h (2 Bft)
10.10.2019 04:09 7,2 °C 92 % 1014,8 hPa 0,0 mm 6,1 km/h (2 Bft) W-NW 294 ° 0 min 0,000 mm 0,0 UV-I 0 W/m² 6,0 °C 6,2 °C 11,3 km/h (2 Bft)
10.10.2019 04:10 7,2 °C 92 % 1014,7 hPa 0,0 mm 8,7 km/h (2 Bft) W 271 ° 0 min 0,000 mm 0,0 UV-I 0 W/m² 6,0 °C 5,6 °C 17,7 km/h (3 Bft)
10.10.2019 04:11 7,2 °C 92 % 1014,7 hPa 0,0 mm 10,3 km/h (2 Bft) W-SW 240 ° 0 min 0,000 mm 0,0 UV-I 0 W/m² 6,0 °C 5,2 °C 19,3 km/h (3 Bft)
10.10.2019 04:12 7,2 °C 92 % 1014,8 hPa 0,0 mm 10,3 km/h (2 Bft) SW 222 ° 0 min 0,000 mm 0,0 UV-I 0 W/m² 6,0 °C 5,2 °C 19,3 km/h (3 Bft)
10.10.2019 04:13 7,2 °C 92 % 1014,7 hPa 0,0 mm 6,0 km/h (2 Bft) W-NW 300 ° 0 min 0,000 mm 0,0 UV-I 0 W/m² 6,0 °C 6,3 °C 9,7 km/h (2 Bft)
10.10.2019 04:14 7,2 °C 92 % 1014,8 hPa 0,0 mm 9,2 km/h (2 Bft) W 259 ° 0 min 0,000 mm 0,0 UV-I 0 W/m² 6,0 °C 5,4 °C 16,1 km/h (3 Bft)
10.10.2019 04:15 7,2 °C 92 % 1014,7 hPa 0,0 mm 6,3 km/h (2 Bft) W-SW 247 ° 0 min 0,000 mm 0,0 UV-I 0 W/m² 6,0 °C 6,2 °C 11,3 km/h (2 Bft)
10.10.2019 04:16 7,2 °C 92 % 1014,7 hPa 0,0 mm 6,4 km/h (2 Bft) W 260 ° 0 min 0,000 mm 0,0 UV-I 0 W/m² 6,0 °C 6,1 °C 11,3 km/h (2 Bft)
10.10.2019 04:17 7,2 °C 92 % 1014,7 hPa 0,0 mm 9,4 km/h (2 Bft) W-SW 252 ° 0 min 0,000 mm 0,0 UV-I 0 W/m² 6,0 °C 5,4 °C 14,5 km/h (3 Bft)
10.10.2019 04:18 7,2 °C 92 % 1014,7 hPa 0,0 mm 12,8 km/h (3 Bft) SW 221 ° 0 min 0,000 mm 0,0 UV-I 0 W/m² 6,0 °C 4,8 °C 20,9 km/h (4 Bft)
10.10.2019 04:19 7,2 °C 92 % 1014,8 hPa 0,0 mm 7,0 km/h (2 Bft) W-SW 251 ° 0 min 0,000 mm 0,0 UV-I 0 W/m² 6,0 °C 6,0 °C 16,1 km/h (3 Bft)
10.10.2019 04:20 7,2 °C 92 % 1014,8 hPa 0,0 mm 10,7 km/h (2 Bft) W 261 ° 0 min 0,000 mm 0,0 UV-I 0 W/m² 6,0 °C 5,2 °C 16,1 km/h (3 Bft)
10.10.2019 04:21 7,2 °C 92 % 1014,8 hPa 0,0 mm 4,5 km/h (1 Bft) W 273 ° 0 min 0,000 mm 0,0 UV-I 0 W/m² 6,0 °C 7,2 °C 6,4 km/h (2 Bft)
10.10.2019 04:22 7,1 °C 92 % 1014,8 hPa 0,0 mm 2,7 km/h (1 Bft) W-SW 257 ° 0 min 0,000 mm 0,0 UV-I 0 W/m² 5,9 °C 7,1 °C 4,8 km/h (1 Bft)
10.10.2019 04:23 7,1 °C 92 % 1014,8 hPa 0,0 mm 7,5 km/h (2 Bft) W 275 ° 0 min 0,000 mm 0,0 UV-I 0 W/m² 5,9 °C 5,7 °C 14,5 km/h (3 Bft)
10.10.2019 04:24 7,1 °C 92 % 1014,7 hPa 0,0 mm 6,0 km/h (2 Bft) W 279 ° 0 min 0,000 mm 0,0 UV-I 0 W/m² 5,9 °C 6,1 °C 11,3 km/h (2 Bft)
10.10.2019 04:25 7,1 °C 92 % 1014,7 hPa 0,0 mm 6,9 km/h (2 Bft) W 260 ° 0 min 0,000 mm 0,0 UV-I 0 W/m² 5,9 °C 5,9 °C 12,9 km/h (3 Bft)
10.10.2019 04:26 7,1 °C 92 % 1014,8 hPa 0,0 mm 7,5 km/h (2 Bft) W 263 ° 0 min 0,000 mm 0,0 UV-I 0 W/m² 5,9 °C 5,7 °C 12,9 km/h (3 Bft)
10.10.2019 04:27 7,1 °C 92 % 1014,8 hPa 0,0 mm 5,8 km/h (2 Bft) W 269 ° 0 min 0,000 mm 0,0 UV-I 0 W/m² 5,9 °C 6,2 °C 9,7 km/h (2 Bft)
10.10.2019 04:28 7,1 °C 92 % 1014,8 hPa 0,0 mm 7,2 km/h (2 Bft) W 272 ° 0 min 0,000 mm 0,0 UV-I 0 W/m² 5,9 °C 5,8 °C 11,3 km/h (2 Bft)
10.10.2019 04:29 7,1 °C 92 % 1014,8 hPa 0,0 mm 7,5 km/h (2 Bft) W 280 ° 0 min 0,000 mm 0,0 UV-I 0 W/m² 5,9 °C 5,7 °C 11,3 km/h (2 Bft)
10.10.2019 04:30 7,1 °C 92 % 1014,8 hPa 0,0 mm 5,3 km/h (1 Bft) W-SW 257 ° 0 min 0,000 mm 0,0 UV-I 0 W/m² 5,9 °C 6,4 °C 8,0 km/h (2 Bft)
10.10.2019 04:31 7,1 °C 92 % 1014,8 hPa 0,0 mm 2,5 km/h (1 Bft) W 273 ° 0 min 0,000 mm 0,0 UV-I 0 W/m² 5,9 °C 7,1 °C 4,8 km/h (1 Bft)
10.10.2019 04:32 7,1 °C 92 % 1014,8 hPa 0,0 mm 3,6 km/h (1 Bft) W-SW 257 ° 0 min 0,000 mm 0,0 UV-I 0 W/m² 5,9 °C 7,1 °C 11,3 km/h (2 Bft)
10.10.2019 04:33 7,1 °C 92 % 1014,9 hPa 0,0 mm 4,3 km/h (1 Bft) W 274 ° 0 min 0,000 mm 0,0 UV-I 0 W/m² 5,9 °C 7,1 °C 6,4 km/h (2 Bft)
10.10.2019 04:34 7,1 °C 92 % 1014,9 hPa 0,0 mm 1,5 km/h (1 Bft) W 274 ° 0 min 0,000 mm 0,0 UV-I 0 W/m² 5,9 °C 7,1 °C 1,6 km/h (1 Bft)
10.10.2019 04:35 7,0 °C 92 % 1014,9 hPa 0,0 mm 1,5 km/h (1 Bft) W 274 ° 0 min 0,000 mm 0,0 UV-I 0 W/m² 5,8 °C 7,0 °C 3,2 km/h (1 Bft)
10.10.2019 04:36 6,9 °C 93 % 1014,9 hPa 0,0 mm 4,0 km/h (1 Bft) SW 221 ° 0 min 0,000 mm 0,0 UV-I 0 W/m² 5,8 °C 6,9 °C 11,3 km/h (2 Bft)
10.10.2019 04:37 6,9 °C 93 % 1014,9 hPa 0,0 mm 1,9 km/h (1 Bft) W 263 ° 0 min 0,000 mm 0,0 UV-I 0 W/m² 5,8 °C 6,9 °C 6,4 km/h (2 Bft)
10.10.2019 04:38 7,0 °C 93 % 1014,9 hPa 0,0 mm 3,1 km/h (1 Bft) SW 232 ° 0 min 0,000 mm 0,0 UV-I 0 W/m² 5,9 °C 7,0 °C 4,8 km/h (1 Bft)
10.10.2019 04:39 6,9 °C 93 % 1014,8 hPa 0,0 mm 1,3 km/h (1 Bft) SW 233 ° 0 min 0,000 mm 0,0 UV-I 0 W/m² 5,8 °C 6,9 °C 3,2 km/h (1 Bft)
10.10.2019 04:40 6,9 °C 93 % 1014,8 hPa 0,0 mm 1,7 km/h (1 Bft) SW 233 ° 0 min 0,000 mm 0,0 UV-I 0 W/m² 5,8 °C 6,9 °C 3,2 km/h (1 Bft)
10.10.2019 04:41 6,9 °C 93 % 1014,8 hPa 0,0 mm 2,2 km/h (1 Bft) SW 222 ° 0 min 0,000 mm 0,0 UV-I 0 W/m² 5,8 °C 6,9 °C 6,4 km/h (2 Bft)
10.10.2019 04:42 6,9 °C 93 % 1014,8 hPa 0,0 mm 2,2 km/h (1 Bft) SW 223 ° 0 min 0,000 mm 0,0 UV-I 0 W/m² 5,8 °C 6,9 °C 3,2 km/h (1 Bft)
10.10.2019 04:43 6,9 °C 93 % 1014,8 hPa 0,0 mm 4,3 km/h (1 Bft) SW 236 ° 0 min 0,000 mm 0,0 UV-I 0 W/m² 5,8 °C 6,9 °C 8,0 km/h (2 Bft)
10.10.2019 04:44 6,9 °C 93 % 1014,8 hPa 0,0 mm 3,6 km/h (1 Bft) W 259 ° 0 min 0,000 mm 0,0 UV-I 0 W/m² 5,8 °C 6,9 °C 6,4 km/h (2 Bft)
10.10.2019 04:45 6,9 °C 93 % 1014,8 hPa 0,0 mm 5,3 km/h (1 Bft) SW 214 ° 0 min 0,000 mm 0,0 UV-I 0 W/m² 5,8 °C 6,1 °C 14,5 km/h (3 Bft)
10.10.2019 04:46 6,9 °C 93 % 1014,8 hPa 0,0 mm 4,6 km/h (1 Bft) W-SW 248 ° 0 min 0,000 mm 0,0 UV-I 0 W/m² 5,8 °C 6,4 °C 12,9 km/h (3 Bft)
10.10.2019 04:47 6,9 °C 93 % 1014,8 hPa 0,0 mm 5,0 km/h (1 Bft) W-SW 245 ° 0 min 0,000 mm 0,0 UV-I 0 W/m² 5,8 °C 6,2 °C 12,9 km/h (3 Bft)
10.10.2019 04:48 6,9 °C 93 % 1014,7 hPa 0,0 mm 5,9 km/h (2 Bft) W-SW 248 ° 0 min 0,000 mm 0,0 UV-I 0 W/m² 5,8 °C 5,9 °C 12,9 km/h (3 Bft)
10.10.2019 04:49 7,0 °C 93 % 1014,7 hPa 0,0 mm 11,0 km/h (2 Bft) W-SW 250 ° 0 min 0,000 mm 0,0 UV-I 0 W/m² 5,9 °C 4,9 °C 14,5 km/h (3 Bft)
10.10.2019 04:50 7,0 °C 93 % 1014,7 hPa 0,0 mm 5,6 km/h (1 Bft) W-SW 244 ° 0 min 0,000 mm 0,0 UV-I 0 W/m² 5,9 °C 6,1 °C 11,3 km/h (2 Bft)
10.10.2019 04:51 7,1 °C 93 % 1014,7 hPa 0,0 mm 5,4 km/h (1 Bft) W 263 ° 0 min 0,000 mm 0,0 UV-I 0 W/m² 6,0 °C 6,3 °C 11,3 km/h (2 Bft)
10.10.2019 04:52 7,1 °C 93 % 1014,6 hPa 0,0 mm 5,4 km/h (1 Bft) W-SW 240 ° 0 min 0,000 mm 0,0 UV-I 0 W/m² 6,0 °C 6,3 °C 11,3 km/h (2 Bft)
10.10.2019 04:53 7,1 °C 93 % 1014,7 hPa 0,0 mm 6,3 km/h (2 Bft) SW 234 ° 0 min 0,000 mm 0,0 UV-I 0 W/m² 6,0 °C 6,0 °C 14,5 km/h (3 Bft)
10.10.2019 04:54 7,1 °C 93 % 1014,6 hPa 0,0 mm 3,7 km/h (1 Bft) S-SW 207 ° 0 min 0,000 mm 0,0 UV-I 0 W/m² 6,0 °C 7,1 °C 9,7 km/h (2 Bft)
10.10.2019 04:55 7,0 °C 92 % 1014,6 hPa 0,0 mm 4,3 km/h (1 Bft) SW 235 ° 0 min 0,000 mm 0,0 UV-I 0 W/m² 5,8 °C 7,0 °C 6,4 km/h (2 Bft)
10.10.2019 04:56 7,1 °C 92 % 1014,6 hPa 0,0 mm 1,6 km/h (1 Bft) S-SW 213 ° 0 min 0,000 mm 0,0 UV-I 0 W/m² 5,9 °C 7,1 °C 3,2 km/h (1 Bft)
10.10.2019 04:57 7,0 °C 92 % 1014,6 hPa 0,0 mm 7,2 km/h (2 Bft) S-SW 208 ° 0 min 0,000 mm 0,0 UV-I 0 W/m² 5,8 °C 5,7 °C 11,3 km/h (2 Bft)
10.10.2019 04:58 7,0 °C 92 % 1014,6 hPa 0,0 mm 2,7 km/h (1 Bft) SW 217 ° 0 min 0,000 mm 0,0 UV-I 0 W/m² 5,8 °C 7,0 °C 4,8 km/h (1 Bft)
10.10.2019 04:59 7,0 °C 92 % 1014,6 hPa 0,0 mm 1,8 km/h (1 Bft) SW 231 ° 0 min 0,000 mm 0,0 UV-I 0 W/m² 5,8 °C 7,0 °C 4,8 km/h (1 Bft)
10.10.2019 05:00 6,9 °C 92 % 1014,6 hPa 0,0 mm 4,4 km/h (1 Bft) W 259 ° 0 min 0,000 mm 0,0 UV-I 0 W/m² 5,7 °C 6,9 °C 9,7 km/h (2 Bft)
10.10.2019 05:01 6,9 °C 92 % 1014,6 hPa 0,0 mm 3,9 km/h (1 Bft) W-SW 244 ° 0 min 0,000 mm 0,0 UV-I 0 W/m² 5,7 °C 6,9 °C 6,4 km/h (2 Bft)
10.10.2019 05:02 6,9 °C 92 % 1014,6 hPa 0,0 mm 3,5 km/h (1 Bft) W-NW 284 ° 0 min 0,000 mm 0,0 UV-I 0 W/m² 5,7 °C 6,9 °C 4,8 km/h (1 Bft)
10.10.2019 05:03 6,9 °C 92 % 1014,5 hPa 0,0 mm 1,1 km/h (1 Bft) W-NW 284 ° 0 min 0,000 mm 0,0 UV-I 0 W/m² 5,7 °C 6,9 °C 3,2 km/h (1 Bft)
10.10.2019 05:04 6,9 °C 92 % 1014,6 hPa 0,0 mm 0,6 km/h (0 Bft) W-NW 285 ° 0 min 0,000 mm 0,0 UV-I 0 W/m² 5,7 °C 6,9 °C 3,2 km/h (1 Bft)
10.10.2019 05:05 6,8 °C 92 % 1014,5 hPa 0,0 mm 3,6 km/h (1 Bft) W 281 ° 0 min 0,000 mm 0,0 UV-I 0 W/m² 5,6 °C 6,8 °C 4,8 km/h (1 Bft)
10.10.2019 05:06 6,8 °C 92 % 1014,6 hPa 0,0 mm 3,6 km/h (1 Bft) W 260 ° 0 min 0,000 mm 0,0 UV-I 0 W/m² 5,6 °C 6,8 °C 6,4 km/h (2 Bft)
10.10.2019 05:07 6,8 °C 92 % 1014,5 hPa 0,0 mm 4,1 km/h (1 Bft) W 281 ° 0 min 0,000 mm 0,0 UV-I 0 W/m² 5,6 °C 6,8 °C 6,4 km/h (2 Bft)
10.10.2019 05:08 6,7 °C 92 % 1014,5 hPa 0,0 mm 1,4 km/h (1 Bft) W 281 ° 0 min 0,000 mm 0,0 UV-I 0 W/m² 5,5 °C 6,7 °C 3,2 km/h (1 Bft)
10.10.2019 05:09 6,7 °C 92 % 1014,5 hPa 0,0 mm 0,4 km/h (0 Bft) W 281 ° 0 min 0,000 mm 0,0 UV-I 0 W/m² 5,5 °C 6,7 °C 1,6 km/h (1 Bft)
10.10.2019 05:10 6,6 °C 92 % 1014,6 hPa 0,0 mm 2,5 km/h (1 Bft) W 281 ° 0 min 0,000 mm 0,0 UV-I 0 W/m² 5,4 °C 6,6 °C 4,8 km/h (1 Bft)
10.10.2019 05:11 6,5 °C 92 % 1014,6 hPa 0,0 mm 4,0 km/h (1 Bft) S-SW 192 ° 0 min 0,000 mm 0,0 UV-I 0 W/m² 5,3 °C 6,5 °C 12,9 km/h (3 Bft)
10.10.2019 05:12 6,6 °C 92 % 1014,6 hPa 0,0 mm 4,3 km/h (1 Bft) W 265 ° 0 min 0,000 mm 0,0 UV-I 0 W/m² 5,4 °C 6,6 °C 11,3 km/h (2 Bft)
10.10.2019 05:13 6,5 °C 93 % 1014,6 hPa 0,0 mm 2,2 km/h (1 Bft) SW 220 ° 0 min 0,000 mm 0,0 UV-I 0 W/m² 5,5 °C 6,5 °C 4,8 km/h (1 Bft)
10.10.2019 05:14 6,6 °C 93 % 1014,6 hPa 0,0 mm 3,6 km/h (1 Bft) SW 232 ° 0 min 0,000 mm 0,0 UV-I 0 W/m² 5,6 °C 6,6 °C 4,8 km/h (1 Bft)
10.10.2019 05:15 6,6 °C 93 % 1014,6 hPa 0,0 mm 1,0 km/h (0 Bft) SW 232 ° 0 min 0,000 mm 0,0 UV-I 0 W/m² 5,6 °C 6,6 °C 3,2 km/h (1 Bft)
10.10.2019 05:16 6,7 °C 93 % 1014,6 hPa 0,0 mm 5,2 km/h (1 Bft) W-SW 254 ° 0 min 0,000 mm 0,0 UV-I 0 W/m² 5,6 °C 5,9 °C 8,0 km/h (2 Bft)
10.10.2019 05:17 6,7 °C 93 % 1014,6 hPa 0,0 mm 3,1 km/h (1 Bft) W-SW 241 ° 0 min 0,000 mm 0,0 UV-I 0 W/m² 5,6 °C 6,7 °C 4,8 km/h (1 Bft)
10.10.2019 05:18 6,7 °C 93 % 1014,6 hPa 0,0 mm 1,7 km/h (1 Bft) S-SW 198 ° 0 min 0,000 mm 0,0 UV-I 0 W/m² 5,6 °C 6,7 °C 4,8 km/h (1 Bft)
10.10.2019 05:19 6,7 °C 93 % 1014,5 hPa 0,0 mm 2,3 km/h (1 Bft) SW 236 ° 0 min 0,000 mm 0,0 UV-I 0 W/m² 5,6 °C 6,7 °C 4,8 km/h (1 Bft)
10.10.2019 05:20 6,8 °C 93 % 1014,5 hPa 0,0 mm 4,2 km/h (1 Bft) W 276 ° 0 min 0,000 mm 0,0 UV-I 0 W/m² 5,7 °C 6,8 °C 9,7 km/h (2 Bft)
10.10.2019 05:21 6,8 °C 93 % 1014,5 hPa 0,0 mm 4,0 km/h (1 Bft) W-SW 246 ° 0 min 0,000 mm 0,0 UV-I 0 W/m² 5,7 °C 6,8 °C 9,7 km/h (2 Bft)
10.10.2019 05:22 6,8 °C 92 % 1014,6 hPa 0,0 mm 5,3 km/h (1 Bft) W-SW 244 ° 0 min 0,000 mm 0,0 UV-I 0 W/m² 5,6 °C 6,0 °C 12,9 km/h (3 Bft)
10.10.2019 05:23 6,8 °C 92 % 1014,6 hPa 0,0 mm 2,7 km/h (1 Bft) W-NW 283 ° 0 min 0,000 mm 0,0 UV-I 0 W/m² 5,6 °C 6,8 °C 6,4 km/h (2 Bft)
10.10.2019 05:24 6,8 °C 92 % 1014,5 hPa 0,0 mm 4,5 km/h (1 Bft) W-SW 251 ° 0 min 0,000 mm 0,0 UV-I 0 W/m² 5,6 °C 6,8 °C 8,0 km/h (2 Bft)
10.10.2019 05:25 6,9 °C 92 % 1014,6 hPa 0,0 mm 1,0 km/h (0 Bft) W-SW 251 ° 0 min 0,000 mm 0,0 UV-I 0 W/m² 5,7 °C 6,9 °C 4,8 km/h (1 Bft)
10.10.2019 05:26 6,9 °C 92 % 1014,6 hPa 0,0 mm 3,1 km/h (1 Bft) W 267 ° 0 min 0,000 mm 0,0 UV-I 0 W/m² 5,7 °C 6,9 °C 6,4 km/h (2 Bft)
10.10.2019 05:27 6,9 °C 92 % 1014,6 hPa 0,0 mm 4,9 km/h (1 Bft) W-SW 248 ° 0 min 0,000 mm 0,0 UV-I 0 W/m² 5,7 °C 6,3 °C 8,0 km/h (2 Bft)
10.10.2019 05:28 6,9 °C 92 % 1014,5 hPa 0,0 mm 6,3 km/h (2 Bft) SW 217 ° 0 min 0,000 mm 0,0 UV-I 0 W/m² 5,7 °C 5,8 °C 9,7 km/h (2 Bft)
10.10.2019 05:29 7,0 °C 92 % 1014,6 hPa 0,0 mm 4,8 km/h (1 Bft) W 280 ° 0 min 0,000 mm 0,0 UV-I 0 W/m² 5,8 °C 6,4 °C 6,4 km/h (2 Bft)
10.10.2019 05:30 7,0 °C 92 % 1014,6 hPa 0,0 mm 5,0 km/h (1 Bft) W 261 ° 0 min 0,000 mm 0,0 UV-I 0 W/m² 5,8 °C 6,4 °C 9,7 km/h (2 Bft)
10.10.2019 05:31 6,9 °C 92 % 1014,8 hPa 0,0 mm 3,5 km/h (1 Bft) W 267 ° 0 min 0,000 mm 0,0 UV-I 0 W/m² 5,7 °C 6,9 °C 11,3 km/h (2 Bft)
10.10.2019 05:32 6,9 °C 92 % 1014,8 hPa 0,0 mm 5,9 km/h (2 Bft) W 263 ° 0 min 0,000 mm 0,0 UV-I 0 W/m² 5,7 °C 5,9 °C 11,3 km/h (2 Bft)
10.10.2019 05:33 6,9 °C 91 % 1014,8 hPa 0,0 mm 5,4 km/h (1 Bft) W-SW 238 ° 0 min 0,000 mm 0,0 UV-I 0 W/m² 5,5 °C 6,1 °C 12,9 km/h (3 Bft)
10.10.2019 05:34 6,9 °C 92 % 1014,8 hPa 0,0 mm 1,6 km/h (1 Bft) W-SW 238 ° 0 min 0,000 mm 0,0 UV-I 0 W/m² 5,7 °C 6,9 °C 4,8 km/h (1 Bft)
10.10.2019 05:35 6,8 °C 92 % 1014,7 hPa 0,0 mm 1,6 km/h (1 Bft) W-SW 242 ° 0 min 0,000 mm 0,0 UV-I 0 W/m² 5,6 °C 6,8 °C 3,2 km/h (1 Bft)
10.10.2019 05:36 6,8 °C 92 % 1014,7 hPa 0,0 mm 2,8 km/h (1 Bft) S 186 ° 0 min 0,000 mm 0,0 UV-I 0 W/m² 5,6 °C 6,8 °C 4,8 km/h (1 Bft)
10.10.2019 05:37 6,8 °C 92 % 1014,7 hPa 0,0 mm 0,0 km/h (0 Bft) S 186 ° 0 min 0,000 mm 0,0 UV-I 0 W/m² 5,6 °C 6,8 °C 0,0 km/h (0 Bft)
10.10.2019 05:38 6,8 °C 92 % 1014,7 hPa 0,0 mm 0,7 km/h (0 Bft) S-SW 208 ° 0 min 0,000 mm 0,0 UV-I 0 W/m² 5,6 °C 6,8 °C 3,2 km/h (1 Bft)
10.10.2019 05:39 6,8 °C 92 % 1014,7 hPa 0,0 mm 1,8 km/h (1 Bft) W-SW 239 ° 0 min 0,000 mm 0,0 UV-I 0 W/m² 5,6 °C 6,8 °C 4,8 km/h (1 Bft)
10.10.2019 05:40 6,9 °C 92 % 1014,8 hPa 0,0 mm 2,4 km/h (1 Bft) W-SW 238 ° 0 min 0,000 mm 0,0 UV-I 0 W/m² 5,7 °C 6,9 °C 4,8 km/h (1 Bft)
10.10.2019 05:41 6,9 °C 92 % 1014,8 hPa 0,0 mm 0,9 km/h (0 Bft) W-SW 238 ° 0 min 0,000 mm 0,0 UV-I 0 W/m² 5,7 °C 6,9 °C 3,2 km/h (1 Bft)
10.10.2019 05:42 6,9 °C 92 % 1014,8 hPa 0,0 mm 0,0 km/h (0 Bft) W-SW 238 ° 0 min 0,000 mm 0,0 UV-I 0 W/m² 5,7 °C 6,9 °C 0,0 km/h (0 Bft)
10.10.2019 05:43 6,9 °C 92 % 1014,8 hPa 0,0 mm 0,3 km/h (0 Bft) W-SW 238 ° 0 min 0,000 mm 0,0 UV-I 0 W/m² 5,7 °C 6,9 °C 3,2 km/h (1 Bft)
10.10.2019 05:44 7,0 °C 92 % 1014,8 hPa 0,0 mm 1,6 km/h (1 Bft) SW 236 ° 0 min 0,000 mm 0,0 UV-I 0 W/m² 5,8 °C 7,0 °C 4,8 km/h (1 Bft)
10.10.2019 05:45 7,0 °C 92 % 1014,9 hPa 0,0 mm 0,8 km/h (0 Bft) SW 236 ° 0 min 0,000 mm 0,0 UV-I 0 W/m² 5,8 °C 7,0 °C 1,6 km/h (1 Bft)
10.10.2019 05:46 7,1 °C 92 % 1014,8 hPa 0,0 mm 0,0 km/h (0 Bft) SW 236 ° 0 min 0,000 mm 0,0 UV-I 0 W/m² 5,9 °C 7,1 °C 0,0 km/h (0 Bft)
10.10.2019 05:47 7,1 °C 92 % 1014,8 hPa 0,0 mm 2,4 km/h (1 Bft) W-SW 246 ° 0 min 0,000 mm 0,0 UV-I 0 W/m² 5,9 °C 7,1 °C 8,0 km/h (2 Bft)
10.10.2019 05:48 7,1 °C 92 % 1014,8 hPa 0,0 mm 2,4 km/h (1 Bft) W-SW 246 ° 0 min 0,000 mm 0,0 UV-I 0 W/m² 5,9 °C 7,1 °C 4,8 km/h (1 Bft)
10.10.2019 05:49 7,1 °C 92 % 1014,8 hPa 0,0 mm 0,6 km/h (0 Bft) W-SW 241 ° 0 min 0,000 mm 0,0 UV-I 0 W/m² 5,9 °C 7,1 °C 1,6 km/h (1 Bft)
10.10.2019 05:50 7,2 °C 92 % 1014,8 hPa 0,0 mm 0,8 km/h (0 Bft) W-SW 241 ° 0 min 0,000 mm 0,0 UV-I 0 W/m² 6,0 °C 7,2 °C 3,2 km/h (1 Bft)
10.10.2019 05:51 7,2 °C 92 % 1014,8 hPa 0,0 mm 3,4 km/h (1 Bft) W-SW 258 ° 0 min 0,000 mm 0,0 UV-I 0 W/m² 6,0 °C 7,2 °C 4,8 km/h (1 Bft)
10.10.2019 05:52 7,2 °C 92 % 1014,8 hPa 0,0 mm 2,7 km/h (1 Bft) W-SW 255 ° 0 min 0,000 mm 0,0 UV-I 0 W/m² 6,0 °C 7,2 °C 4,8 km/h (1 Bft)
10.10.2019 05:53 7,2 °C 92 % 1014,8 hPa 0,0 mm 1,1 km/h (1 Bft) W-SW 255 ° 0 min 0,000 mm 0,0 UV-I 0 W/m² 6,0 °C 7,2 °C 3,2 km/h (1 Bft)
10.10.2019 05:54 7,2 °C 92 % 1014,8 hPa 0,0 mm 0,7 km/h (0 Bft) W-SW 247 ° 0 min 0,000 mm 0,0 UV-I 0 W/m² 6,0 °C 7,2 °C 4,8 km/h (1 Bft)
10.10.2019 05:55 7,2 °C 92 % 1014,8 hPa 0,0 mm 4,7 km/h (1 Bft) S-SW 204 ° 0 min 0,000 mm 0,0 UV-I 0 W/m² 6,0 °C 6,7 °C 8,0 km/h (2 Bft)
10.10.2019 05:56 7,1 °C 92 % 1014,8 hPa 0,0 mm 0,2 km/h (0 Bft) S-SW 207 ° 0 min 0,000 mm 0,0 UV-I 0 W/m² 5,9 °C 7,1 °C 1,6 km/h (1 Bft)
10.10.2019 05:57 7,1 °C 92 % 1014,8 hPa 0,0 mm 0,0 km/h (0 Bft) S-SW 207 ° 0 min 0,000 mm 0,0 UV-I 0 W/m² 5,9 °C 7,1 °C 0,0 km/h (0 Bft)
10.10.2019 05:58 7,2 °C 92 % 1014,8 hPa 0,0 mm 2,5 km/h (1 Bft) SW 226 ° 0 min 0,000 mm 0,0 UV-I 0 W/m² 6,0 °C 7,2 °C 4,8 km/h (1 Bft)
10.10.2019 05:59 7,2 °C 92 % 1014,8 hPa 0,0 mm 0,2 km/h (0 Bft) SW 233 ° 0 min 0,000 mm 0,0 UV-I 0 W/m² 6,0 °C 7,2 °C 1,6 km/h (1 Bft)
10.10.2019 06:00 7,2 °C 92 % 1014,8 hPa 0,0 mm 4,2 km/h (1 Bft) W-SW 254 ° 0 min 0,000 mm 0,0 UV-I 0 W/m² 6,0 °C 7,2 °C 6,4 km/h (2 Bft)
10.10.2019 06:01 7,2 °C 92 % 1014,8 hPa 0,0 mm 7,0 km/h (2 Bft) W 259 ° 0 min 0,000 mm 0,0 UV-I 0 W/m² 6,0 °C 6,0 °C 12,9 km/h (3 Bft)
10.10.2019 06:02 7,1 °C 92 % 1014,8 hPa 0,0 mm 3,8 km/h (1 Bft) W-SW 254 ° 0 min 0,000 mm 0,0 UV-I 0 W/m² 5,9 °C 7,1 °C 9,7 km/h (2 Bft)
10.10.2019 06:03 7,1 °C 92 % 1014,8 hPa 0,0 mm 3,1 km/h (1 Bft) W 259 ° 0 min 0,000 mm 0,0 UV-I 0 W/m² 5,9 °C 7,1 °C 6,4 km/h (2 Bft)
10.10.2019 06:04 7,1 °C 92 % 1014,7 hPa 0,0 mm 7,3 km/h (2 Bft) W 270 ° 0 min 0,000 mm 0,0 UV-I 0 W/m² 5,9 °C 5,8 °C 12,9 km/h (3 Bft)
10.10.2019 06:05 7,1 °C 92 % 1014,8 hPa 0,0 mm 6,3 km/h (2 Bft) W-SW 254 ° 0 min 0,000 mm 0,0 UV-I 0 W/m² 5,9 °C 6,0 °C 12,9 km/h (3 Bft)
10.10.2019 06:06 7,1 °C 92 % 1014,8 hPa 0,0 mm 6,0 km/h (2 Bft) W-NW 287 ° 0 min 0,000 mm 0,0 UV-I 0 W/m² 5,9 °C 6,1 °C 11,3 km/h (2 Bft)
10.10.2019 06:07 7,1 °C 92 % 1014,8 hPa 0,0 mm 2,5 km/h (1 Bft) W 259 ° 0 min 0,000 mm 0,0 UV-I 0 W/m² 5,9 °C 7,1 °C 6,4 km/h (2 Bft)
10.10.2019 06:08 7,1 °C 92 % 1014,8 hPa 0,0 mm 4,4 km/h (1 Bft) W-SW 253 ° 0 min 0,000 mm 0,0 UV-I 0 W/m² 5,9 °C 7,1 °C 9,7 km/h (2 Bft)
10.10.2019 06:09 7,1 °C 92 % 1014,7 hPa 0,0 mm 0,8 km/h (0 Bft) W-SW 253 ° 0 min 0,000 mm 0,0 UV-I 0 W/m² 5,9 °C 7,1 °C 1,6 km/h (1 Bft)
10.10.2019 06:10 7,0 °C 92 % 1014,7 hPa 0,0 mm 1,4 km/h (1 Bft) SW 234 ° 0 min 0,000 mm 0,0 UV-I 0 W/m² 5,8 °C 7,0 °C 3,2 km/h (1 Bft)
10.10.2019 06:11 7,0 °C 92 % 1014,7 hPa 0,0 mm 1,1 km/h (1 Bft) W-SW 247 ° 0 min 0,000 mm 0,0 UV-I 0 W/m² 5,8 °C 7,0 °C 3,2 km/h (1 Bft)
10.10.2019 06:12 7,0 °C 92 % 1014,7 hPa 0,0 mm 1,5 km/h (1 Bft) W-SW 246 ° 0 min 0,000 mm 0,0 UV-I 0 W/m² 5,8 °C 7,0 °C 3,2 km/h (1 Bft)
10.10.2019 06:13 6,9 °C 92 % 1014,7 hPa 0,0 mm 1,3 km/h (1 Bft) W-SW 246 ° 0 min 0,000 mm 0,0 UV-I 0 W/m² 5,7 °C 6,9 °C 4,8 km/h (1 Bft)
10.10.2019 06:14 6,9 °C 92 % 1014,7 hPa 0,0 mm 1,5 km/h (1 Bft) W-SW 252 ° 0 min 0,000 mm 0,0 UV-I 0 W/m² 5,7 °C 6,9 °C 4,8 km/h (1 Bft)
10.10.2019 06:15 6,9 °C 92 % 1014,7 hPa 0,0 mm 3,1 km/h (1 Bft) SW 235 ° 0 min 0,000 mm 0,0 UV-I 0 W/m² 5,7 °C 6,9 °C 6,4 km/h (2 Bft)
10.10.2019 06:16 6,9 °C 92 % 1014,7 hPa 0,0 mm 2,2 km/h (1 Bft) W-SW 252 ° 0 min 0,000 mm 0,0 UV-I 0 W/m² 5,7 °C 6,9 °C 4,8 km/h (1 Bft)
10.10.2019 06:17 6,9 °C 92 % 1014,7 hPa 0,0 mm 1,9 km/h (1 Bft) S-SW 200 ° 0 min 0,000 mm 0,0 UV-I 0 W/m² 5,7 °C 6,9 °C 4,8 km/h (1 Bft)
10.10.2019 06:18 6,9 °C 92 % 1014,7 hPa 0,0 mm 3,2 km/h (1 Bft) W 261 ° 0 min 0,000 mm 0,0 UV-I 0 W/m² 5,7 °C 6,9 °C 11,3 km/h (2 Bft)
10.10.2019 06:19 6,9 °C 93 % 1014,7 hPa 0,0 mm 3,8 km/h (1 Bft) W-SW 238 ° 0 min 0,000 mm 0,0 UV-I 0 W/m² 5,8 °C 6,9 °C 6,4 km/h (2 Bft)
10.10.2019 06:20 7,0 °C 93 % 1014,7 hPa 0,0 mm 5,7 km/h (1 Bft) W 262 ° 0 min 0,000 mm 0,0 UV-I 0 W/m² 5,9 °C 6,1 °C 8,0 km/h (2 Bft)
10.10.2019 06:21 7,1 °C 93 % 1014,8 hPa 0,0 mm 5,1 km/h (1 Bft) W 270 ° 0 min 0,000 mm 0,0 UV-I 0 W/m² 6,0 °C 6,4 °C 11,3 km/h (2 Bft)
10.10.2019 06:22 7,1 °C 93 % 1014,8 hPa 0,0 mm 6,8 km/h (2 Bft) W 272 ° 0 min 0,000 mm 0,0 UV-I 0 W/m² 6,0 °C 5,9 °C 9,7 km/h (2 Bft)
10.10.2019 06:23 7,1 °C 93 % 1014,8 hPa 0,0 mm 5,3 km/h (1 Bft) W 267 ° 0 min 0,000 mm 0,0 UV-I 0 W/m² 6,0 °C 6,4 °C 11,3 km/h (2 Bft)
10.10.2019 06:24 7,1 °C 93 % 1014,8 hPa 0,0 mm 2,2 km/h (1 Bft) W 267 ° 0 min 0,000 mm 0,0 UV-I 0 W/m² 6,0 °C 7,1 °C 4,8 km/h (1 Bft)
10.10.2019 06:25 7,1 °C 93 % 1014,9 hPa 0,0 mm 3,4 km/h (1 Bft) W-SW 252 ° 0 min 0,000 mm 0,0 UV-I 0 W/m² 6,0 °C 7,1 °C 6,4 km/h (2 Bft)
10.10.2019 06:26 7,1 °C 93 % 1014,9 hPa 0,0 mm 4,5 km/h (1 Bft) W-SW 243 ° 0 min 0,000 mm 0,0 UV-I 0 W/m² 6,0 °C 7,1 °C 8,0 km/h (2 Bft)
10.10.2019 06:27 7,1 °C 93 % 1014,8 hPa 0,0 mm 3,4 km/h (1 Bft) W-SW 253 ° 0 min 0,000 mm 0,0 UV-I 0 W/m² 6,0 °C 7,1 °C 8,0 km/h (2 Bft)
10.10.2019 06:28 7,1 °C 93 % 1014,8 hPa 0,0 mm 1,3 km/h (1 Bft) W-SW 251 ° 0 min 0,000 mm 0,0 UV-I 0 W/m² 6,0 °C 7,1 °C 8,0 km/h (2 Bft)
10.10.2019 06:29 7,1 °C 93 % 1014,8 hPa 0,0 mm 0,3 km/h (0 Bft) W-SW 250 ° 0 min 0,000 mm 0,0 UV-I 0 W/m² 6,0 °C 7,1 °C 1,6 km/h (1 Bft)
10.10.2019 06:30 7,0 °C 93 % 1014,8 hPa 0,0 mm 4,7 km/h (1 Bft) SW 227 ° 0 min 0,000 mm 0,0 UV-I 0 W/m² 5,9 °C 6,5 °C 9,7 km/h (2 Bft)
10.10.2019 06:31 7,1 °C 93 % 1014,8 hPa 0,0 mm 0,8 km/h (0 Bft) SW 227 ° 0 min 0,000 mm 0,0 UV-I 0 W/m² 6,0 °C 7,1 °C 3,2 km/h (1 Bft)
10.10.2019 06:32 7,0 °C 93 % 1014,8 hPa 0,0 mm 0,5 km/h (0 Bft) SW 227 ° 0 min 0,000 mm 0,0 UV-I 0 W/m² 5,9 °C 7,0 °C 3,2 km/h (1 Bft)
10.10.2019 06:33 7,1 °C 93 % 1014,9 hPa 0,0 mm 0,2 km/h (0 Bft) SW 227 ° 0 min 0,000 mm 0,0 UV-I 0 W/m² 6,0 °C 7,1 °C 1,6 km/h (1 Bft)
10.10.2019 06:34 7,1 °C 93 % 1014,9 hPa 0,0 mm 2,7 km/h (1 Bft) W-SW 244 ° 0 min 0,000 mm 0,0 UV-I 0 W/m² 6,0 °C 7,1 °C 6,4 km/h (2 Bft)
10.10.2019 06:35 7,1 °C 93 % 1014,9 hPa 0,0 mm 1,3 km/h (1 Bft) W-SW 244 ° 0 min 0,000 mm 0,0 UV-I 0 W/m² 6,0 °C 7,1 °C 3,2 km/h (1 Bft)
10.10.2019 06:36 7,1 °C 93 % 1014,9 hPa 0,0 mm 0,6 km/h (0 Bft) W-SW 244 ° 0 min 0,000 mm 0,0 UV-I 0 W/m² 6,0 °C 7,1 °C 1,6 km/h (1 Bft)
10.10.2019 06:37 7,1 °C 93 % 1015,0 hPa 0,0 mm 1,1 km/h (1 Bft) W-SW 247 ° 0 min 0,000 mm 0,0 UV-I 0 W/m² 6,0 °C 7,1 °C 6,4 km/h (2 Bft)
10.10.2019 06:38 7,1 °C 93 % 1015,0 hPa 0,0 mm 0,1 km/h (0 Bft) W-SW 247 ° 0 min 0,000 mm 0,0 UV-I 0 W/m² 6,0 °C 7,1 °C 1,6 km/h (1 Bft)
10.10.2019 06:39 7,1 °C 93 % 1015,0 hPa 0,0 mm 0,0 km/h (0 Bft) W-SW 247 ° 0 min 0,000 mm 0,0 UV-I 0 W/m² 6,0 °C 7,1 °C 0,0 km/h (0 Bft)
10.10.2019 06:40 7,1 °C 93 % 1015,0 hPa 0,0 mm 1,1 km/h (1 Bft) W-SW 246 ° 0 min 0,000 mm 0,0 UV-I 0 W/m² 6,0 °C 7,1 °C 3,2 km/h (1 Bft)
10.10.2019 06:41 7,1 °C 93 % 1015,0 hPa 0,0 mm 2,7 km/h (1 Bft) SW 226 ° 0 min 0,000 mm 0,0 UV-I 0 W/m² 6,0 °C 7,1 °C 4,8 km/h (1 Bft)
10.10.2019 06:42 7,1 °C 93 % 1015,0 hPa 0,0 mm 3,6 km/h (1 Bft) S-SW 209 ° 0 min 0,000 mm 0,0 UV-I 0 W/m² 6,0 °C 7,1 °C 6,4 km/h (2 Bft)
10.10.2019 06:43 7,1 °C 93 % 1015,0 hPa 0,0 mm 2,1 km/h (1 Bft) S-SW 205 ° 0 min 0,000 mm 0,0 UV-I 0 W/m² 6,0 °C 7,1 °C 3,2 km/h (1 Bft)
10.10.2019 06:44 7,1 °C 93 % 1015,0 hPa 0,0 mm 0,7 km/h (0 Bft) S-SW 205 ° 0 min 0,000 mm 0,0 UV-I 0 W/m² 6,0 °C 7,1 °C 3,2 km/h (1 Bft)
10.10.2019 06:45 7,1 °C 93 % 1015,0 hPa 0,0 mm 0,7 km/h (0 Bft) S-SW 209 ° 0 min 0,000 mm 0,0 UV-I 0 W/m² 6,0 °C 7,1 °C 3,2 km/h (1 Bft)
10.10.2019 06:46 7,1 °C 93 % 1015,1 hPa 0,0 mm 3,3 km/h (1 Bft) S-SW 200 ° 0 min 0,000 mm 0,0 UV-I 0 W/m² 6,0 °C 7,1 °C 6,4 km/h (2 Bft)
10.10.2019 06:47 7,0 °C 93 % 1015,0 hPa 0,0 mm 3,4 km/h (1 Bft) S 188 ° 0 min 0,000 mm 0,0 UV-I 0 W/m² 5,9 °C 7,0 °C 6,4 km/h (2 Bft)
10.10.2019 06:48 7,0 °C 93 % 1015,0 hPa 0,0 mm 4,0 km/h (1 Bft) S-SW 198 ° 0 min 0,000 mm 0,0 UV-I 0 W/m² 5,9 °C 7,0 °C 9,7 km/h (2 Bft)
10.10.2019 06:49 7,0 °C 93 % 1015,0 hPa 0,0 mm 3,5 km/h (1 Bft) S-SW 209 ° 0 min 0,000 mm 0,0 UV-I 0 W/m² 5,9 °C 7,0 °C 9,7 km/h (2 Bft)
10.10.2019 06:50 6,9 °C 93 % 1014,9 hPa 0,0 mm 2,3 km/h (1 Bft) S-SO 158 ° 0 min 0,000 mm 0,0 UV-I 0 W/m² 5,8 °C 6,9 °C 8,0 km/h (2 Bft)
10.10.2019 06:51 6,9 °C 93 % 1014,9 hPa 0,0 mm 6,0 km/h (2 Bft) S 173 ° 0 min 0,000 mm 0,0 UV-I 0 W/m² 5,8 °C 5,9 °C 11,3 km/h (2 Bft)
10.10.2019 06:52 6,9 °C 93 % 1014,9 hPa 0,0 mm 4,0 km/h (1 Bft) SO 134 ° 0 min 0,000 mm 0,0 UV-I 0 W/m² 5,8 °C 6,9 °C 4,8 km/h (1 Bft)
10.10.2019 06:53 6,9 °C 93 % 1014,9 hPa 0,0 mm 3,0 km/h (1 Bft) S-SW 211 ° 0 min 0,000 mm 0,0 UV-I 0 W/m² 5,8 °C 6,9 °C 4,8 km/h (1 Bft)
10.10.2019 06:54 6,9 °C 93 % 1014,9 hPa 0,0 mm 5,8 km/h (2 Bft) W 270 ° 0 min 0,000 mm 0,0 UV-I 0 W/m² 5,8 °C 6,0 °C 11,3 km/h (2 Bft)
10.10.2019 06:55 7,0 °C 93 % 1014,9 hPa 0,0 mm 0,8 km/h (0 Bft) W 270 ° 0 min 0,000 mm 0,0 UV-I 0 W/m² 5,9 °C 7,0 °C 4,8 km/h (1 Bft)
10.10.2019 06:56 7,1 °C 92 % 1014,8 hPa 0,0 mm 6,9 km/h (2 Bft) W 264 ° 0 min 0,000 mm 0,0 UV-I 0 W/m² 5,9 °C 5,9 °C 12,9 km/h (3 Bft)
10.10.2019 06:57 7,1 °C 92 % 1014,8 hPa 0,0 mm 5,6 km/h (1 Bft) W-SW 248 ° 0 min 0,000 mm 0,0 UV-I 0 W/m² 5,9 °C 6,3 °C 11,3 km/h (2 Bft)
10.10.2019 06:58 7,1 °C 92 % 1014,8 hPa 0,0 mm 5,8 km/h (2 Bft) W-SW 246 ° 0 min 0,000 mm 0,0 UV-I 0 W/m² 5,9 °C 6,2 °C 9,7 km/h (2 Bft)
10.10.2019 06:59 7,1 °C 92 % 1014,7 hPa 0,0 mm 5,4 km/h (1 Bft) W-SW 254 ° 0 min 0,000 mm 0,0 UV-I 0 W/m² 5,9 °C 6,3 °C 11,3 km/h (2 Bft)
10.10.2019 07:00 7,1 °C 92 % 1014,7 hPa 0,0 mm 7,0 km/h (2 Bft) W-SW 244 ° 0 min 0,000 mm 0,0 UV-I 0 W/m² 5,9 °C 5,9 °C 16,1 km/h (3 Bft)
10.10.2019 07:01 7,2 °C 92 % 1014,7 hPa 0,0 mm 8,5 km/h (2 Bft) W-SW 252 ° 0 min 0,000 mm 0,0 UV-I 0 W/m² 6,0 °C 5,6 °C 11,3 km/h (2 Bft)
10.10.2019 07:02 7,2 °C 91 % 1014,7 hPa 0,0 mm 5,8 km/h (2 Bft) W-SW 257 ° 0 min 0,000 mm 0,0 UV-I 0 W/m² 5,8 °C 6,3 °C 9,7 km/h (2 Bft)
10.10.2019 07:03 7,2 °C 91 % 1014,7 hPa 0,0 mm 5,5 km/h (1 Bft) W 271 ° 0 min 0,000 mm 0,0 UV-I 0 W/m² 5,8 °C 6,4 °C 9,7 km/h (2 Bft)
10.10.2019 07:04 7,2 °C 91 % 1014,7 hPa 0,0 mm 12,8 km/h (3 Bft) W 261 ° 0 min 0,000 mm 0,0 UV-I 0 W/m² 5,8 °C 4,8 °C 16,1 km/h (3 Bft)
10.10.2019 07:05 7,2 °C 91 % 1014,7 hPa 0,0 mm 7,4 km/h (2 Bft) S 184 ° 0 min 0,000 mm 0,0 UV-I 0 W/m² 5,8 °C 5,9 °C 12,9 km/h (3 Bft)
10.10.2019 07:06 7,2 °C 91 % 1014,7 hPa 0,0 mm 4,6 km/h (1 Bft) SW 233 ° 0 min 0,000 mm 0,0 UV-I 0 W/m² 5,8 °C 6,7 °C 8,0 km/h (2 Bft)
10.10.2019 07:07 7,2 °C 91 % 1014,7 hPa 0,0 mm 8,4 km/h (2 Bft) W 281 ° 0 min 0,000 mm 0,0 UV-I 0 W/m² 5,8 °C 5,6 °C 14,5 km/h (3 Bft)
10.10.2019 07:08 7,2 °C 91 % 1014,7 hPa 0,0 mm 12,1 km/h (2 Bft) W-SW 258 ° 0 min 0,000 mm 0,0 UV-I 0 W/m² 5,8 °C 4,9 °C 19,3 km/h (3 Bft)
10.10.2019 07:09 7,2 °C 91 % 1014,7 hPa 0,0 mm 6,0 km/h (2 Bft) W 268 ° 0 min 0,000 mm 0,0 UV-I 0 W/m² 5,8 °C 6,3 °C 11,3 km/h (2 Bft)
10.10.2019 07:10 7,2 °C 90 % 1014,7 hPa 0,0 mm 11,3 km/h (2 Bft) W 269 ° 0 min 0,000 mm 0,0 UV-I 0 W/m² 5,7 °C 5,0 °C 16,1 km/h (3 Bft)
10.10.2019 07:11 7,2 °C 91 % 1014,8 hPa 0,0 mm 7,8 km/h (2 Bft) W-SW 254 ° 0 min 0,000 mm 0,0 UV-I 0 W/m² 5,8 °C 5,8 °C 9,7 km/h (2 Bft)
10.10.2019 07:12 7,2 °C 90 % 1014,7 hPa 0,0 mm 6,2 km/h (2 Bft) SW 233 ° 0 min 0,000 mm 0,0 UV-I 0 W/m² 5,7 °C 6,2 °C 12,9 km/h (3 Bft)
10.10.2019 07:13 7,2 °C 90 % 1014,6 hPa 0,0 mm 13,3 km/h (3 Bft) S-SW 213 ° 0 min 0,000 mm 0,0 UV-I 0 W/m² 5,7 °C 4,7 °C 19,3 km/h (3 Bft)
10.10.2019 07:14 7,2 °C 90 % 1014,7 hPa 0,0 mm 10,0 km/h (2 Bft) W-SW 248 ° 0 min 0,000 mm 0,0 UV-I 0 W/m² 5,7 °C 5,3 °C 17,7 km/h (3 Bft)
10.10.2019 07:15 7,2 °C 90 % 1014,8 hPa 0,0 mm 12,2 km/h (2 Bft) W 274 ° 0 min 0,000 mm 0,0 UV-I 0 W/m² 5,7 °C 4,9 °C 17,7 km/h (3 Bft)
10.10.2019 07:16 7,2 °C 90 % 1014,8 hPa 0,0 mm 4,6 km/h (1 Bft) W 264 ° 0 min 0,000 mm 0,0 UV-I 0 W/m² 5,7 °C 6,7 °C 9,7 km/h (2 Bft)
10.10.2019 07:17 7,3 °C 90 % 1014,8 hPa 0,0 mm 4,8 km/h (1 Bft) W 261 ° 0 min 0,000 mm 0,0 UV-I 0 W/m² 5,8 °C 6,8 °C 11,3 km/h (2 Bft)
10.10.2019 07:18 7,3 °C 90 % 1014,8 hPa 0,0 mm 9,3 km/h (2 Bft) W 271 ° 0 min 0,000 mm 0,0 UV-I 0 W/m² 5,8 °C 5,5 °C 11,3 km/h (2 Bft)
10.10.2019 07:19 7,3 °C 89 % 1014,8 hPa 0,0 mm 10,5 km/h (2 Bft) W 281 ° 0 min 0,000 mm 0,0 UV-I 0 W/m² 5,6 °C 5,3 °C 14,5 km/h (3 Bft)
10.10.2019 07:20 7,3 °C 89 % 1014,8 hPa 0,0 mm 11,5 km/h (2 Bft) W-SW 250 ° 0 min 0,000 mm 0,0 UV-I 0 W/m² 5,6 °C 5,1 °C 17,7 km/h (3 Bft)
10.10.2019 07:21 7,2 °C 90 % 1014,8 hPa 0,0 mm 10,5 km/h (2 Bft) W 265 ° 0 min 0,000 mm 0,0 UV-I 0 W/m² 5,7 °C 5,2 °C 14,5 km/h (3 Bft)
10.10.2019 07:22 7,2 °C 90 % 1014,8 hPa 0,0 mm 13,7 km/h (3 Bft) W 259 ° 0 min 0,000 mm 0,0 UV-I 0 W/m² 5,7 °C 4,7 °C 20,9 km/h (4 Bft)
10.10.2019 07:23 7,2 °C 90 % 1014,8 hPa 0,0 mm 9,8 km/h (2 Bft) W-SW 254 ° 0 min 0,000 mm 0,0 UV-I 0 W/m² 5,7 °C 5,3 °C 12,9 km/h (3 Bft)
10.10.2019 07:24 7,3 °C 89 % 1014,8 hPa 0,0 mm 9,3 km/h (2 Bft) W 270 ° 0 min 0,000 mm 0,0 UV-I 0 W/m² 5,6 °C 5,5 °C 14,5 km/h (3 Bft)
10.10.2019 07:25 7,3 °C 89 % 1014,8 hPa 0,0 mm 9,4 km/h (2 Bft) W 262 ° 0 min 0,000 mm 0,0 UV-I 0 W/m² 5,6 °C 5,5 °C 12,9 km/h (3 Bft)
10.10.2019 07:26 7,3 °C 89 % 1014,8 hPa 0,0 mm 9,3 km/h (2 Bft) W 269 ° 0 min 0,000 mm 0,0 UV-I 0 W/m² 5,6 °C 5,5 °C 14,5 km/h (3 Bft)
10.10.2019 07:27 7,3 °C 89 % 1014,8 hPa 0,0 mm 6,2 km/h (2 Bft) W 265 ° 0 min 0,000 mm 0,0 UV-I 0 W/m² 5,6 °C 6,3 °C 12,9 km/h (3 Bft)
10.10.2019 07:28 7,2 °C 89 % 1014,8 hPa 0,0 mm 7,2 km/h (2 Bft) W-SW 249 ° 0 min 0,000 mm 0,0 UV-I 0 W/m² 5,5 °C 5,9 °C 12,9 km/h (3 Bft)
10.10.2019 07:29 7,3 °C 89 % 1014,7 hPa 0,0 mm 5,4 km/h (1 Bft) SW 228 ° 0 min 0,000 mm 0,0 UV-I 0 W/m² 5,6 °C 6,6 °C 8,0 km/h (2 Bft)
10.10.2019 07:30 7,3 °C 89 % 1014,7 hPa 0,0 mm 5,3 km/h (1 Bft) W 270 ° 0 min 0,000 mm 0,0 UV-I 0 W/m² 5,6 °C 6,6 °C 8,0 km/h (2 Bft)
10.10.2019 07:31 7,2 °C 89 % 1014,8 hPa 0,0 mm 8,3 km/h (2 Bft) S 184 ° 0 min 0,000 mm 0,0 UV-I 5 W/m² 5,5 °C 5,6 °C 19,3 km/h (3 Bft)
10.10.2019 07:32 7,2 °C 89 % 1014,7 hPa 0,0 mm 5,2 km/h (1 Bft) S-SW 211 ° 0 min 0,000 mm 0,0 UV-I 5 W/m² 5,5 °C 6,5 °C 9,7 km/h (2 Bft)
10.10.2019 07:33 7,2 °C 89 % 1014,8 hPa 0,0 mm 5,1 km/h (1 Bft) W 269 ° 0 min 0,000 mm 0,0 UV-I 7 W/m² 5,5 °C 6,5 °C 8,0 km/h (2 Bft)
10.10.2019 07:34 7,2 °C 89 % 1014,8 hPa 0,0 mm 8,4 km/h (2 Bft) W-SW 252 ° 0 min 0,000 mm 0,0 UV-I 7 W/m² 5,5 °C 5,6 °C 14,5 km/h (3 Bft)
10.10.2019 07:35 7,2 °C 89 % 1014,8 hPa 0,0 mm 6,3 km/h (2 Bft) W 267 ° 0 min 0,000 mm 0,0 UV-I 7 W/m² 5,5 °C 6,2 °C 14,5 km/h (3 Bft)
10.10.2019 07:36 7,3 °C 89 % 1014,8 hPa 0,0 mm 6,2 km/h (2 Bft) W 262 ° 0 min 0,000 mm 0,0 UV-I 7 W/m² 5,6 °C 6,3 °C 11,3 km/h (2 Bft)
10.10.2019 07:37 7,3 °C 89 % 1014,8 hPa 0,0 mm 9,5 km/h (2 Bft) W-NW 298 ° 0 min 0,000 mm 0,0 UV-I 7 W/m² 5,6 °C 5,5 °C 17,7 km/h (3 Bft)
10.10.2019 07:38 7,3 °C 89 % 1014,8 hPa 0,0 mm 8,6 km/h (2 Bft) W 266 ° 0 min 0,000 mm 0,0 UV-I 7 W/m² 5,6 °C 5,7 °C 12,9 km/h (3 Bft)
10.10.2019 07:39 7,3 °C 89 % 1014,9 hPa 0,0 mm 8,3 km/h (2 Bft) W 279 ° 0 min 0,000 mm 0,0 UV-I 9 W/m² 5,6 °C 5,8 °C 12,9 km/h (3 Bft)
10.10.2019 07:40 7,3 °C 89 % 1014,9 hPa 0,0 mm 11,2 km/h (2 Bft) W 269 ° 0 min 0,000 mm 0,0 UV-I 9 W/m² 5,6 °C 5,2 °C 14,5 km/h (3 Bft)
10.10.2019 07:41 7,3 °C 89 % 1015,0 hPa 0,0 mm 9,4 km/h (2 Bft) W 276 ° 0 min 0,000 mm 0,0 UV-I 9 W/m² 5,6 °C 5,5 °C 12,9 km/h (3 Bft)
10.10.2019 07:42 7,3 °C 89 % 1014,9 hPa 0,0 mm 9,6 km/h (2 Bft) W 263 ° 0 min 0,000 mm 0,0 UV-I 11 W/m² 5,6 °C 5,5 °C 12,9 km/h (3 Bft)
10.10.2019 07:43 7,3 °C 89 % 1014,9 hPa 0,0 mm 10,8 km/h (2 Bft) SW 236 ° 0 min 0,000 mm 0,0 UV-I 11 W/m² 5,6 °C 5,3 °C 16,1 km/h (3 Bft)
10.10.2019 07:44 7,3 °C 89 % 1015,0 hPa 0,0 mm 6,2 km/h (2 Bft) W-SW 256 ° 0 min 0,000 mm 0,0 UV-I 11 W/m² 5,6 °C 6,3 °C 9,7 km/h (2 Bft)
10.10.2019 07:45 7,3 °C 89 % 1015,0 hPa 0,0 mm 6,6 km/h (2 Bft) W 267 ° 0 min 0,000 mm 0,0 UV-I 11 W/m² 5,6 °C 6,2 °C 12,9 km/h (3 Bft)
10.10.2019 07:46 7,3 °C 89 % 1015,0 hPa 0,0 mm 7,1 km/h (2 Bft) W 268 ° 0 min 0,000 mm 0,0 UV-I 12 W/m² 5,6 °C 6,1 °C 14,5 km/h (3 Bft)
10.10.2019 07:47 7,2 °C 89 % 1015,0 hPa 0,0 mm 6,3 km/h (2 Bft) W-NW 282 ° 0 min 0,000 mm 0,0 UV-I 12 W/m² 5,5 °C 6,2 °C 11,3 km/h (2 Bft)
10.10.2019 07:48 7,3 °C 89 % 1015,0 hPa 0,0 mm 6,8 km/h (2 Bft) W 260 ° 0 min 0,000 mm 0,0 UV-I 14 W/m² 5,6 °C 6,1 °C 11,3 km/h (2 Bft)
10.10.2019 07:49 7,2 °C 89 % 1015,0 hPa 0,0 mm 8,5 km/h (2 Bft) W-SW 257 ° 0 min 0,000 mm 0,0 UV-I 14 W/m² 5,5 °C 5,6 °C 14,5 km/h (3 Bft)
10.10.2019 07:50 7,3 °C 89 % 1015,0 hPa 0,0 mm 6,6 km/h (2 Bft) W-SW 240 ° 0 min 0,000 mm 0,0 UV-I 16 W/m² 5,6 °C 6,2 °C 12,9 km/h (3 Bft)
10.10.2019 07:51 7,3 °C 89 % 1015,0 hPa 0,0 mm 5,7 km/h (1 Bft) W 268 ° 0 min 0,000 mm 0,0 UV-I 16 W/m² 5,6 °C 6,5 °C 9,7 km/h (2 Bft)
10.10.2019 07:52 7,3 °C 89 % 1015,0 hPa 0,0 mm 6,3 km/h (2 Bft) W 279 ° 0 min 0,000 mm 0,0 UV-I 16 W/m² 5,6 °C 6,3 °C 12,9 km/h (3 Bft)
10.10.2019 07:53 7,3 °C 89 % 1015,1 hPa 0,0 mm 9,5 km/h (2 Bft) W-SW 252 ° 0 min 0,000 mm 0,0 UV-I 16 W/m² 5,6 °C 5,5 °C 16,1 km/h (3 Bft)
10.10.2019 07:54 7,3 °C 89 % 1015,0 hPa 0,0 mm 8,1 km/h (2 Bft) W-NW 302 ° 0 min 0,000 mm 0,0 UV-I 16 W/m² 5,6 °C 5,8 °C 12,9 km/h (3 Bft)
10.10.2019 07:55 7,3 °C 88 % 1015,1 hPa 0,0 mm 6,7 km/h (2 Bft) W-NW 286 ° 0 min 0,000 mm 0,0 UV-I 16 W/m² 5,4 °C 6,2 °C 14,5 km/h (3 Bft)
10.10.2019 07:56 7,3 °C 88 % 1015,1 hPa 0,0 mm 8,0 km/h (2 Bft) W-SW 254 ° 0 min 0,000 mm 0,0 UV-I 18 W/m² 5,4 °C 5,8 °C 16,1 km/h (3 Bft)
10.10.2019 07:57 7,4 °C 88 % 1015,1 hPa 0,0 mm 8,2 km/h (2 Bft) W 259 ° 0 min 0,000 mm 0,0 UV-I 18 W/m² 5,5 °C 5,9 °C 14,5 km/h (3 Bft)
10.10.2019 07:58 7,4 °C 88 % 1015,1 hPa 0,0 mm 6,3 km/h (2 Bft) W-SW 247 ° 0 min 0,000 mm 0,0 UV-I 19 W/m² 5,5 °C 6,4 °C 11,3 km/h (2 Bft)
10.10.2019 07:59 7,4 °C 88 % 1015,1 hPa 0,0 mm 4,9 km/h (1 Bft) W 271 ° 0 min 0,000 mm 0,0 UV-I 19 W/m² 5,5 °C 6,8 °C 9,7 km/h (2 Bft)
10.10.2019 08:00 7,3 °C 88 % 1015,1 hPa 0,0 mm 7,8 km/h (2 Bft) W 263 ° 0 min 0,000 mm 0,0 UV-I 19 W/m² 5,4 °C 5,9 °C 12,9 km/h (3 Bft)
10.10.2019 08:01 7,3 °C 88 % 1015,1 hPa 0,0 mm 7,3 km/h (2 Bft) W 260 ° 0 min 0,000 mm 0,0 UV-I 19 W/m² 5,4 °C 6,0 °C 11,3 km/h (2 Bft)
10.10.2019 08:02 7,3 °C 88 % 1015,1 hPa 0,0 mm 6,8 km/h (2 Bft) W 271 ° 0 min 0,000 mm 0,0 UV-I 21 W/m² 5,4 °C 6,1 °C 9,7 km/h (2 Bft)
10.10.2019 08:03 7,3 °C 88 % 1015,1 hPa 0,0 mm 4,2 km/h (1 Bft) W-NW 288 ° 0 min 0,000 mm 0,0 UV-I 23 W/m² 5,4 °C 7,3 °C 8,0 km/h (2 Bft)
10.10.2019 08:04 7,3 °C 88 % 1015,2 hPa 0,0 mm 6,8 km/h (2 Bft) W-SW 253 ° 0 min 0,000 mm 0,0 UV-I 25 W/m² 5,4 °C 6,1 °C 11,3 km/h (2 Bft)
10.10.2019 08:05 7,3 °C 88 % 1015,3 hPa 0,0 mm 8,2 km/h (2 Bft) W-NW 291 ° 0 min 0,000 mm 0,0 UV-I 25 W/m² 5,4 °C 5,8 °C 11,3 km/h (2 Bft)
10.10.2019 08:06 7,3 °C 88 % 1015,3 hPa 0,0 mm 6,2 km/h (2 Bft) W 273 ° 0 min 0,000 mm 0,0 UV-I 25 W/m² 5,4 °C 6,3 °C 9,7 km/h (2 Bft)
10.10.2019 08:07 7,2 °C 88 % 1015,3 hPa 0,0 mm 8,6 km/h (2 Bft) W 276 ° 0 min 0,000 mm 0,0 UV-I 25 W/m² 5,3 °C 5,6 °C 12,9 km/h (3 Bft)
10.10.2019 08:08 7,3 °C 88 % 1015,2 hPa 0,0 mm 8,3 km/h (2 Bft) W-SW 244 ° 0 min 0,000 mm 0,0 UV-I 25 W/m² 5,4 °C 5,8 °C 17,7 km/h (3 Bft)
10.10.2019 08:09 7,3 °C 88 % 1015,2 hPa 0,0 mm 10,1 km/h (2 Bft) W-NW 283 ° 0 min 0,000 mm 0,0 UV-I 23 W/m² 5,4 °C 5,4 °C 16,1 km/h (3 Bft)
10.10.2019 08:10 7,3 °C 88 % 1015,3 hPa 0,0 mm 7,6 km/h (2 Bft) W 263 ° 0 min 0,000 mm 0,0 UV-I 23 W/m² 5,4 °C 5,9 °C 12,9 km/h (3 Bft)
10.10.2019 08:11 7,3 °C 88 % 1015,3 hPa 0,0 mm 6,9 km/h (2 Bft) W 265 ° 0 min 0,000 mm 0,0 UV-I 23 W/m² 5,4 °C 6,1 °C 11,3 km/h (2 Bft)
10.10.2019 08:12 7,3 °C 88 % 1015,3 hPa 0,0 mm 8,5 km/h (2 Bft) W-NW 289 ° 0 min 0,000 mm 0,0 UV-I 23 W/m² 5,4 °C 5,7 °C 12,9 km/h (3 Bft)
10.10.2019 08:13 7,3 °C 87 % 1015,3 hPa 0,0 mm 8,8 km/h (2 Bft) W 262 ° 0 min 0,000 mm 0,0 UV-I 25 W/m² 5,3 °C 5,7 °C 14,5 km/h (3 Bft)
10.10.2019 08:14 7,3 °C 88 % 1015,4 hPa 0,0 mm 9,5 km/h (2 Bft) W 260 ° 0 min 0,000 mm 0,0 UV-I 25 W/m² 5,4 °C 5,5 °C 12,9 km/h (3 Bft)
10.10.2019 08:15 7,4 °C 88 % 1015,4 hPa 0,0 mm 12,1 km/h (2 Bft) W-NW 290 ° 0 min 0,000 mm 0,0 UV-I 26 W/m² 5,5 °C 5,1 °C 14,5 km/h (3 Bft)
10.10.2019 08:16 7,3 °C 88 % 1015,5 hPa 0,0 mm 14,1 km/h (3 Bft) W 267 ° 0 min 0,000 mm 0,0 UV-I 28 W/m² 5,4 °C 4,7 °C 19,3 km/h (3 Bft)
10.10.2019 08:17 7,3 °C 88 % 1015,5 hPa 0,0 mm 10,0 km/h (2 Bft) W 275 ° 0 min 0,000 mm 0,0 UV-I 28 W/m² 5,4 °C 5,4 °C 16,1 km/h (3 Bft)
10.10.2019 08:18 7,4 °C 88 % 1015,5 hPa 0,0 mm 11,3 km/h (2 Bft) W 270 ° 0 min 0,000 mm 0,0 UV-I 28 W/m² 5,5 °C 5,3 °C 16,1 km/h (3 Bft)
10.10.2019 08:19 7,4 °C 87 % 1015,4 hPa 0,0 mm 8,0 km/h (2 Bft) W-NW 292 ° 0 min 0,000 mm 0,0 UV-I 28 W/m² 5,4 °C 6,0 °C 11,3 km/h (2 Bft)
10.10.2019 08:20 7,4 °C 87 % 1015,4 hPa 0,0 mm 11,4 km/h (2 Bft) W 281 ° 0 min 0,000 mm 0,0 UV-I 28 W/m² 5,4 °C 5,3 °C 16,1 km/h (3 Bft)
10.10.2019 08:21 7,5 °C 87 % 1015,5 hPa 0,0 mm 7,8 km/h (2 Bft) W 263 ° 0 min 0,000 mm 0,0 UV-I 28 W/m² 5,5 °C 6,1 °C 12,9 km/h (3 Bft)
10.10.2019 08:22 7,6 °C 87 % 1015,5 hPa 0,0 mm 10,0 km/h (2 Bft) W-SW 248 ° 0 min 0,000 mm 0,0 UV-I 28 W/m² 5,6 °C 5,8 °C 14,5 km/h (3 Bft)
10.10.2019 08:23 7,6 °C 87 % 1015,5 hPa 0,0 mm 7,8 km/h (2 Bft) W-NW 282 ° 0 min 0,000 mm 0,0 UV-I 30 W/m² 5,6 °C 6,2 °C 12,9 km/h (3 Bft)
10.10.2019 08:24 7,7 °C 87 % 1015,6 hPa 0,0 mm 7,2 km/h (2 Bft) W-NW 284 ° 0 min 0,000 mm 0,0 UV-I 30 W/m² 5,7 °C 6,5 °C 9,7 km/h (2 Bft)
10.10.2019 08:25 7,7 °C 86 % 1015,6 hPa 0,0 mm 10,1 km/h (2 Bft) SW 219 ° 0 min 0,000 mm 0,0 UV-I 26 W/m² 5,5 °C 5,9 °C 16,1 km/h (3 Bft)
10.10.2019 08:26 7,7 °C 86 % 1015,6 hPa 0,0 mm 3,8 km/h (1 Bft) W-SW 258 ° 0 min 0,000 mm 0,0 UV-I 25 W/m² 5,5 °C 7,7 °C 6,4 km/h (2 Bft)
10.10.2019 08:27 7,8 °C 86 % 1015,5 hPa 0,0 mm 5,6 km/h (1 Bft) W 278 ° 0 min 0,000 mm 0,0 UV-I 23 W/m² 5,6 °C 7,1 °C 9,7 km/h (2 Bft)
10.10.2019 08:28 7,8 °C 86 % 1015,5 hPa 0,0 mm 9,7 km/h (2 Bft) S-SW 203 ° 0 min 0,000 mm 0,0 UV-I 23 W/m² 5,6 °C 6,1 °C 14,5 km/h (3 Bft)
10.10.2019 08:29 7,8 °C 86 % 1015,6 hPa 0,0 mm 5,8 km/h (2 Bft) W-SW 250 ° 0 min 0,000 mm 0,0 UV-I 25 W/m² 5,6 °C 7,0 °C 11,3 km/h (2 Bft)
10.10.2019 08:30 7,9 °C 86 % 1015,6 hPa 0,0 mm 11,3 km/h (2 Bft) W-SW 244 ° 0 min 0,000 mm 0,0 UV-I 25 W/m² 5,7 °C 5,9 °C 20,9 km/h (4 Bft)
10.10.2019 08:31 7,9 °C 85 % 1015,7 hPa 0,0 mm 12,8 km/h (3 Bft) W-SW 250 ° 0 min 0,000 mm 0,0 UV-I 25 W/m² 5,5 °C 5,6 °C 20,9 km/h (4 Bft)
10.10.2019 08:32 8,0 °C 85 % 1015,7 hPa 0,0 mm 12,3 km/h (3 Bft) SW 233 ° 0 min 0,000 mm 0,0 UV-I 26 W/m² 5,6 °C 5,8 °C 24,1 km/h (4 Bft)
10.10.2019 08:33 8,1 °C 85 % 1015,6 hPa 0,0 mm 14,3 km/h (3 Bft) W-SW 253 ° 0 min 0,000 mm 0,0 UV-I 26 W/m² 5,7 °C 5,7 °C 19,3 km/h (3 Bft)
10.10.2019 08:34 8,1 °C 84 % 1015,7 hPa 0,0 mm 8,1 km/h (2 Bft) W-SW 244 ° 0 min 0,000 mm 0,0 UV-I 28 W/m² 5,6 °C 6,8 °C 12,9 km/h (3 Bft)
10.10.2019 08:35 8,2 °C 84 % 1015,7 hPa 0,0 mm 12,2 km/h (2 Bft) NW 310 ° 0 min 0,000 mm 0,0 UV-I 26 W/m² 5,7 °C 6,1 °C 17,7 km/h (3 Bft)
10.10.2019 08:36 8,2 °C 84 % 1015,6 hPa 0,0 mm 8,6 km/h (2 Bft) W-SW 245 ° 0 min 0,000 mm 0,0 UV-I 25 W/m² 5,7 °C 6,8 °C 12,9 km/h (3 Bft)
10.10.2019 08:37 8,2 °C 84 % 1015,7 hPa 0,0 mm 9,5 km/h (2 Bft) W-SW 238 ° 0 min 0,000 mm 0,0 UV-I 26 W/m² 5,7 °C 6,6 °C 12,9 km/h (3 Bft)
10.10.2019 08:38 8,2 °C 84 % 1015,7 hPa 0,0 mm 8,6 km/h (2 Bft) W-SW 247 ° 0 min 0,000 mm 0,0 UV-I 26 W/m² 5,7 °C 6,8 °C 12,9 km/h (3 Bft)
10.10.2019 08:39 8,2 °C 84 % 1015,7 hPa 0,0 mm 8,4 km/h (2 Bft) SW 236 ° 0 min 0,000 mm 0,0 UV-I 26 W/m² 5,7 °C 6,8 °C 12,9 km/h (3 Bft)
10.10.2019 08:40 8,2 °C 84 % 1015,7 hPa 0,0 mm 3,4 km/h (1 Bft) W 269 ° 0 min 0,000 mm 0,0 UV-I 28 W/m² 5,7 °C 8,2 °C 6,4 km/h (2 Bft)
10.10.2019 08:41 8,1 °C 84 % 1015,7 hPa 0,0 mm 8,9 km/h (2 Bft) W 261 ° 0 min 0,000 mm 0,0 UV-I 28 W/m² 5,6 °C 6,6 °C 12,9 km/h (3 Bft)
10.10.2019 08:42 8,1 °C 84 % 1015,7 hPa 0,0 mm 8,4 km/h (2 Bft) SW 220 ° 0 min 0,000 mm 0,0 UV-I 28 W/m² 5,6 °C 6,7 °C 17,7 km/h (3 Bft)
10.10.2019 08:43 8,0 °C 84 % 1015,7 hPa 0,0 mm 6,2 km/h (2 Bft) W 262 ° 0 min 0,000 mm 0,0 UV-I 28 W/m² 5,5 °C 7,1 °C 14,5 km/h (3 Bft)
10.10.2019 08:44 8,0 °C 84 % 1015,7 hPa 0,0 mm 7,8 km/h (2 Bft) W-NW 286 ° 0 min 0,000 mm 0,0 UV-I 28 W/m² 5,5 °C 6,7 °C 12,9 km/h (3 Bft)
10.10.2019 08:45 7,9 °C 85 % 1015,7 hPa 0,0 mm 5,5 km/h (1 Bft) W-SW 239 ° 0 min 0,000 mm 0,0 UV-I 28 W/m² 5,5 °C 7,2 °C 9,7 km/h (2 Bft)
10.10.2019 08:46 7,9 °C 84 % 1015,7 hPa 0,0 mm 5,8 km/h (2 Bft) W-SW 250 ° 0 min 0,000 mm 0,0 UV-I 30 W/m² 5,4 °C 7,1 °C 14,5 km/h (3 Bft)
10.10.2019 08:47 8,0 °C 84 % 1015,6 hPa 0,0 mm 5,7 km/h (1 Bft) W 259 ° 0 min 0,000 mm 0,0 UV-I 30 W/m² 5,5 °C 7,3 °C 11,3 km/h (2 Bft)
10.10.2019 08:48 8,0 °C 84 % 1015,6 hPa 0,0 mm 4,6 km/h (1 Bft) W 272 ° 0 min 0,000 mm 0,0 UV-I 32 W/m² 5,5 °C 7,6 °C 9,7 km/h (2 Bft)
10.10.2019 08:49 8,0 °C 84 % 1015,6 hPa 0,0 mm 11,4 km/h (2 Bft) W-SW 254 ° 0 min 0,000 mm 0,0 UV-I 30 W/m² 5,5 °C 6,0 °C 17,7 km/h (3 Bft)
10.10.2019 08:50 8,1 °C 84 % 1015,7 hPa 0,0 mm 7,3 km/h (2 Bft) W-SW 248 ° 0 min 0,000 mm 0,0 UV-I 30 W/m² 5,6 °C 6,9 °C 12,9 km/h (3 Bft)
10.10.2019 08:51 8,1 °C 84 % 1015,7 hPa 0,0 mm 4,5 km/h (1 Bft) W-SW 258 ° 0 min 0,000 mm 0,0 UV-I 30 W/m² 5,6 °C 8,1 °C 12,9 km/h (3 Bft)
10.10.2019 08:52 8,0 °C 84 % 1015,5 hPa 0,0 mm 3,0 km/h (1 Bft) W-SW 247 ° 0 min 0,000 mm 0,0 UV-I 30 W/m² 5,5 °C 8,0 °C 6,4 km/h (2 Bft)
10.10.2019 08:53 8,0 °C 84 % 1015,6 hPa 0,0 mm 4,9 km/h (1 Bft) W 264 ° 0 min 0,000 mm 0,0 UV-I 32 W/m² 5,5 °C 7,5 °C 6,4 km/h (2 Bft)
10.10.2019 08:54 7,9 °C 84 % 1015,6 hPa 0,0 mm 2,4 km/h (1 Bft) W 266 ° 0 min 0,000 mm 0,0 UV-I 33 W/m² 5,4 °C 7,9 °C 4,8 km/h (1 Bft)
10.10.2019 08:55 7,9 °C 84 % 1015,6 hPa 0,0 mm 8,4 km/h (2 Bft) SW 235 ° 0 min 0,000 mm 0,0 UV-I 33 W/m² 5,4 °C 6,5 °C 20,9 km/h (4 Bft)
10.10.2019 08:56 7,9 °C 84 % 1015,6 hPa 0,0 mm 7,8 km/h (2 Bft) W 265 ° 0 min 0,000 mm 0,0 UV-I 33 W/m² 5,4 °C 6,6 °C 11,3 km/h (2 Bft)
10.10.2019 08:57 8,0 °C 84 % 1015,7 hPa 0,0 mm 5,6 km/h (1 Bft) W 265 ° 0 min 0,000 mm 0,0 UV-I 33 W/m² 5,5 °C 7,3 °C 9,7 km/h (2 Bft)
10.10.2019 08:58 7,9 °C 84 % 1015,6 hPa 0,0 mm 5,8 km/h (2 Bft) S-SW 211 ° 0 min 0,000 mm 0,0 UV-I 33 W/m² 5,4 °C 7,1 °C 12,9 km/h (3 Bft)
10.10.2019 08:59 7,9 °C 85 % 1015,6 hPa 0,0 mm 4,8 km/h (1 Bft) W-SW 257 ° 0 min 0,000 mm 0,0 UV-I 35 W/m² 5,5 °C 7,4 °C 11,3 km/h (2 Bft)
10.10.2019 09:00 8,0 °C 84 % 1015,6 hPa 0,0 mm 3,2 km/h (1 Bft) W 279 ° 0 min 0,025 mm 0,0 UV-I 35 W/m² 5,5 °C 8,0 °C 6,4 km/h (2 Bft)
10.10.2019 09:01 8,0 °C 84 % 1015,6 hPa 0,0 mm 8,7 km/h (2 Bft) W-NW 297 ° 0 min 0,000 mm 0,0 UV-I 35 W/m² 5,5 °C 6,5 °C 12,9 km/h (3 Bft)
10.10.2019 09:02 8,1 °C 84 % 1015,5 hPa 0,0 mm 8,5 km/h (2 Bft) NW 311 ° 0 min 0,000 mm 0,0 UV-I 35 W/m² 5,6 °C 6,7 °C 17,7 km/h (3 Bft)
10.10.2019 09:03 8,1 °C 84 % 1015,5 hPa 0,0 mm 14,6 km/h (3 Bft) SW 221 ° 0 min 0,000 mm 0,0 UV-I 37 W/m² 5,6 °C 5,6 °C 20,9 km/h (4 Bft)
10.10.2019 09:04 8,2 °C 84 % 1015,6 hPa 0,0 mm 8,6 km/h (2 Bft) W-SW 239 ° 0 min 0,000 mm 0,0 UV-I 37 W/m² 5,7 °C 6,8 °C 14,5 km/h (3 Bft)
10.10.2019 09:05 8,2 °C 84 % 1015,6 hPa 0,0 mm 6,0 km/h (2 Bft) W 265 ° 0 min 0,000 mm 0,0 UV-I 37 W/m² 5,7 °C 7,4 °C 9,7 km/h (2 Bft)
10.10.2019 09:06 8,3 °C 83 % 1015,7 hPa 0,0 mm 14,3 km/h (3 Bft) W 261 ° 0 min 0,000 mm 0,0 UV-I 39 W/m² 5,6 °C 5,9 °C 17,7 km/h (3 Bft)
10.10.2019 09:07 8,3 °C 83 % 1015,6 hPa 0,0 mm 9,8 km/h (2 Bft) SW 229 ° 0 min 0,000 mm 0,0 UV-I 39 W/m² 5,6 °C 6,6 °C 12,9 km/h (3 Bft)
10.10.2019 09:08 8,4 °C 83 % 1015,6 hPa 0,0 mm 9,6 km/h (2 Bft) SW 221 ° 0 min 0,000 mm 0,0 UV-I 39 W/m² 5,7 °C 6,8 °C 14,5 km/h (3 Bft)
10.10.2019 09:09 8,4 °C 83 % 1015,6 hPa 0,0 mm 12,5 km/h (3 Bft) SW 215 ° 0 min 0,000 mm 0,0 UV-I 39 W/m² 5,7 °C 6,3 °C 20,9 km/h (4 Bft)
10.10.2019 09:10 8,5 °C 83 % 1015,5 hPa 0,0 mm 11,7 km/h (2 Bft) W 268 ° 0 min 0,000 mm 0,0 UV-I 39 W/m² 5,8 °C 6,5 °C 16,1 km/h (3 Bft)
10.10.2019 09:11 8,6 °C 83 % 1015,5 hPa 0,0 mm 12,7 km/h (3 Bft) W 271 ° 0 min 0,000 mm 0,0 UV-I 39 W/m² 5,9 °C 6,5 °C 20,9 km/h (4 Bft)
10.10.2019 09:12 8,6 °C 83 % 1015,6 hPa 0,0 mm 7,0 km/h (2 Bft) W-NW 283 ° 0 min 0,000 mm 0,0 UV-I 39 W/m² 5,9 °C 7,6 °C 12,9 km/h (3 Bft)
10.10.2019 09:13 8,7 °C 83 % 1015,6 hPa 0,0 mm 7,9 km/h (2 Bft) W-SW 246 ° 0 min 0,000 mm 0,0 UV-I 39 W/m² 6,0 °C 7,5 °C 12,9 km/h (3 Bft)
10.10.2019 09:14 8,7 °C 83 % 1015,6 hPa 0,0 mm 6,0 km/h (2 Bft) S-SO 153 ° 0 min 0,000 mm 0,0 UV-I 40 W/m² 6,0 °C 8,0 °C 9,7 km/h (2 Bft)
10.10.2019 09:15 8,7 °C 83 % 1015,6 hPa 0,0 mm 6,8 km/h (2 Bft) W-NW 285 ° 0 min 0,000 mm 0,0 UV-I 40 W/m² 6,0 °C 7,8 °C 14,5 km/h (3 Bft)
10.10.2019 09:16 8,7 °C 82 % 1015,6 hPa 0,0 mm 11,5 km/h (2 Bft) SW 227 ° 0 min 0,000 mm 0,0 UV-I 40 W/m² 5,8 °C 6,8 °C 16,1 km/h (3 Bft)
10.10.2019 09:17 8,7 °C 82 % 1015,6 hPa 0,0 mm 10,0 km/h (2 Bft) W-NW 286 ° 0 min 0,000 mm 0,0 UV-I 40 W/m² 5,8 °C 7,1 °C 16,1 km/h (3 Bft)
10.10.2019 09:18 8,8 °C 82 % 1015,5 hPa 0,0 mm 7,8 km/h (2 Bft) W 265 ° 0 min 0,000 mm 0,0 UV-I 42 W/m² 5,9 °C 7,6 °C 12,9 km/h (3 Bft)
10.10.2019 09:19 8,8 °C 82 % 1015,5 hPa 0,0 mm 12,5 km/h (3 Bft) W 269 ° 0 min 0,000 mm 0,0 UV-I 42 W/m² 5,9 °C 6,8 °C 19,3 km/h (3 Bft)
10.10.2019 09:20 8,8 °C 82 % 1015,6 hPa 0,0 mm 13,5 km/h (3 Bft) W 265 ° 0 min 0,000 mm 0,0 UV-I 42 W/m² 5,9 °C 6,6 °C 19,3 km/h (3 Bft)
10.10.2019 09:21 8,8 °C 82 % 1015,6 hPa 0,0 mm 12,9 km/h (3 Bft) SO 142 ° 0 min 0,000 mm 0,0 UV-I 42 W/m² 5,9 °C 6,7 °C 17,7 km/h (3 Bft)
10.10.2019 09:22 8,9 °C 81 % 1015,6 hPa 0,0 mm 9,9 km/h (2 Bft) W 263 ° 0 min 0,000 mm 0,0 UV-I 42 W/m² 5,8 °C 7,3 °C 24,1 km/h (4 Bft)
10.10.2019 09:23 8,9 °C 81 % 1015,6 hPa 0,0 mm 12,7 km/h (3 Bft) W 275 ° 0 min 0,000 mm 0,0 UV-I 40 W/m² 5,8 °C 6,9 °C 22,5 km/h (4 Bft)
10.10.2019 09:24 9,0 °C 80 % 1015,7 hPa 0,0 mm 12,4 km/h (3 Bft) W-SW 254 ° 0 min 0,000 mm 0,0 UV-I 51 W/m² 5,7 °C 7,0 °C 19,3 km/h (3 Bft)
10.10.2019 09:25 9,1 °C 81 % 1015,7 hPa 0,0 mm 10,1 km/h (2 Bft) W-NW 298 ° 0 min 0,000 mm 0,0 UV-I 51 W/m² 6,0 °C 7,5 °C 14,5 km/h (3 Bft)
10.10.2019 09:26 9,1 °C 81 % 1015,8 hPa 0,0 mm 6,2 km/h (2 Bft) W 279 ° 0 min 0,000 mm 0,0 UV-I 47 W/m² 6,0 °C 8,4 °C 11,3 km/h (2 Bft)
10.10.2019 09:27 9,1 °C 81 % 1015,8 hPa 0,0 mm 10,8 km/h (2 Bft) W 273 ° 0 min 0,000 mm 0,0 UV-I 46 W/m² 6,0 °C 7,4 °C 14,5 km/h (3 Bft)
10.10.2019 09:28 9,1 °C 81 % 1015,7 hPa 0,0 mm 15,2 km/h (3 Bft) W-NW 292 ° 0 min 0,000 mm 0,0 UV-I 46 W/m² 6,0 °C 6,8 °C 24,1 km/h (4 Bft)
10.10.2019 09:29 9,1 °C 80 % 1015,8 hPa 0,0 mm 19,0 km/h (3 Bft) W-NW 294 ° 0 min 0,000 mm 0,0 UV-I 46 W/m² 5,8 °C 6,3 °C 27,4 km/h (4 Bft)
10.10.2019 09:30 9,1 °C 80 % 1015,9 hPa 0,0 mm 8,9 km/h (2 Bft) W-NW 290 ° 0 min 0,000 mm 0,0 UV-I 44 W/m² 5,8 °C 7,8 °C 14,5 km/h (3 Bft)
10.10.2019 09:31 9,2 °C 80 % 1015,8 hPa 0,0 mm 7,5 km/h (2 Bft) W-NW 286 ° 0 min 0,000 mm 0,0 UV-I 42 W/m² 5,9 °C 8,2 °C 11,3 km/h (2 Bft)
10.10.2019 09:32 9,2 °C 80 % 1015,8 hPa 0,0 mm 5,2 km/h (1 Bft) W-NW 286 ° 0 min 0,000 mm 0,0 UV-I 40 W/m² 5,9 °C 8,8 °C 11,3 km/h (2 Bft)
10.10.2019 09:33 9,3 °C 80 % 1015,8 hPa 0,0 mm 11,7 km/h (2 Bft) W-SW 256 ° 0 min 0,000 mm 0,0 UV-I 46 W/m² 6,0 °C 7,5 °C 17,7 km/h (3 Bft)
10.10.2019 09:34 9,3 °C 80 % 1015,9 hPa 0,0 mm 13,4 km/h (3 Bft) W-NW 289 ° 0 min 0,000 mm 0,0 UV-I 47 W/m² 6,0 °C 7,3 °C 16,1 km/h (3 Bft)
10.10.2019 09:35 9,3 °C 79 % 1015,8 hPa 0,0 mm 17,2 km/h (3 Bft) W-SW 254 ° 0 min 0,000 mm 0,0 UV-I 53 W/m² 5,8 °C 6,8 °C 24,1 km/h (4 Bft)
10.10.2019 09:36 9,3 °C 80 % 1015,9 hPa 0,0 mm 7,6 km/h (2 Bft) S-SW 204 ° 0 min 0,000 mm 0,9 UV-I 62 W/m² 6,0 °C 8,3 °C 12,9 km/h (3 Bft)
10.10.2019 09:37 9,3 °C 80 % 1015,9 hPa 0,0 mm 9,9 km/h (2 Bft) S-SW 201 ° 0 min 0,000 mm 0,9 UV-I 56 W/m² 6,0 °C 7,8 °C 17,7 km/h (3 Bft)
10.10.2019 09:38 9,3 °C 80 % 1015,9 hPa 0,0 mm 10,9 km/h (2 Bft) W-NW 290 ° 0 min 0,000 mm 0,0 UV-I 54 W/m² 6,0 °C 7,6 °C 17,7 km/h (3 Bft)
10.10.2019 09:39 9,3 °C 79 % 1015,9 hPa 0,0 mm 19,0 km/h (3 Bft) W 279 ° 0 min 0,000 mm 0,0 UV-I 47 W/m² 5,8 °C 6,6 °C 29,0 km/h (5 Bft)
10.10.2019 09:40 9,4 °C 79 % 1015,8 hPa 0,0 mm 13,4 km/h (3 Bft) W 273 ° 0 min 0,000 mm 0,0 UV-I 51 W/m² 5,9 °C 7,4 °C 17,7 km/h (3 Bft)
10.10.2019 09:41 9,4 °C 79 % 1015,9 hPa 0,0 mm 6,2 km/h (2 Bft) W 261 ° 0 min 0,000 mm 0,0 UV-I 53 W/m² 5,9 °C 8,7 °C 14,5 km/h (3 Bft)
10.10.2019 09:42 9,5 °C 79 % 1015,9 hPa 0,0 mm 11,7 km/h (2 Bft) W 271 ° 0 min 0,000 mm 0,0 UV-I 44 W/m² 6,0 °C 7,8 °C 17,7 km/h (3 Bft)
10.10.2019 09:43 9,4 °C 80 % 1015,9 hPa 0,0 mm 11,9 km/h (2 Bft) W 264 ° 0 min 0,000 mm 0,0 UV-I 51 W/m² 6,1 °C 7,6 °C 20,9 km/h (4 Bft)
10.10.2019 09:44 9,4 °C 79 % 1015,9 hPa 0,0 mm 11,8 km/h (2 Bft) W-SW 253 ° 0 min 0,000 mm 0,9 UV-I 58 W/m² 5,9 °C 7,6 °C 16,1 km/h (3 Bft)
10.10.2019 09:45 9,5 °C 79 % 1016,0 hPa 0,0 mm 10,5 km/h (2 Bft) SO 127 ° 0 min 0,000 mm 0,9 UV-I 67 W/m² 6,0 °C 7,9 °C 17,7 km/h (3 Bft)
10.10.2019 09:46 9,6 °C 79 % 1015,8 hPa 0,0 mm 12,9 km/h (3 Bft) W 265 ° 0 min 0,000 mm 0,9 UV-I 62 W/m² 6,1 °C 7,7 °C 16,1 km/h (3 Bft)
10.10.2019 09:47 9,6 °C 79 % 1015,9 hPa 0,0 mm 11,1 km/h (2 Bft) W-SW 252 ° 0 min 0,000 mm 0,9 UV-I 56 W/m² 6,1 °C 8,0 °C 20,9 km/h (4 Bft)
10.10.2019 09:48 9,6 °C 78 % 1015,8 hPa 0,0 mm 14,8 km/h (3 Bft) W 267 ° 0 min 0,000 mm 0,0 UV-I 54 W/m² 6,0 °C 7,4 °C 24,1 km/h (4 Bft)
10.10.2019 09:49 9,7 °C 78 % 1015,9 hPa 0,0 mm 8,7 km/h (2 Bft) W-SW 256 ° 0 min 0,000 mm 0,0 UV-I 54 W/m² 6,1 °C 8,5 °C 12,9 km/h (3 Bft)
10.10.2019 09:50 9,7 °C 78 % 1015,9 hPa 0,0 mm 8,5 km/h (2 Bft) W 271 ° 0 min 0,000 mm 1,0 UV-I 58 W/m² 6,1 °C 8,6 °C 11,3 km/h (2 Bft)
10.10.2019 09:51 9,7 °C 78 % 1015,9 hPa 0,0 mm 10,5 km/h (2 Bft) SW 236 ° 0 min 0,000 mm 1,0 UV-I 72 W/m² 6,1 °C 8,2 °C 16,1 km/h (3 Bft)
10.10.2019 09:52 9,8 °C 78 % 1015,9 hPa 0,0 mm 9,6 km/h (2 Bft) SW 217 ° 0 min 0,000 mm 1,0 UV-I 74 W/m² 6,1 °C 8,5 °C 16,1 km/h (3 Bft)
10.10.2019 09:53 9,8 °C 78 % 1015,9 hPa 0,0 mm 14,1 km/h (3 Bft) W-SW 256 ° 0 min 0,000 mm 1,0 UV-I 62 W/m² 6,1 °C 7,8 °C 17,7 km/h (3 Bft)
10.10.2019 09:54 9,8 °C 78 % 1016,0 hPa 0,0 mm 13,1 km/h (3 Bft) NW 307 ° 0 min 0,000 mm 0,0 UV-I 51 W/m² 6,1 °C 7,9 °C 17,7 km/h (3 Bft)
10.10.2019 09:55 9,8 °C 78 % 1016,0 hPa 0,0 mm 9,9 km/h (2 Bft) W-SW 245 ° 0 min 0,000 mm 0,0 UV-I 51 W/m² 6,1 °C 8,4 °C 16,1 km/h (3 Bft)
10.10.2019 09:56 9,8 °C 78 % 1016,0 hPa 0,2 mm 10,5 km/h (2 Bft) W 270 ° 0 min 0,000 mm 0,0 UV-I 49 W/m² 6,1 °C 8,3 °C 16,1 km/h (3 Bft)
10.10.2019 09:57 9,8 °C 79 % 1015,9 hPa 0,0 mm 15,0 km/h (3 Bft) W-SW 250 ° 0 min 0,000 mm 1,0 UV-I 56 W/m² 6,3 °C 7,7 °C 20,9 km/h (4 Bft)
10.10.2019 09:58 9,8 °C 78 % 1015,9 hPa 0,0 mm 13,1 km/h (3 Bft) W 269 ° 0 min 0,000 mm 1,0 UV-I 65 W/m² 6,1 °C 7,9 °C 33,8 km/h (5 Bft)
10.10.2019 09:59 9,8 °C 77 % 1016,1 hPa 0,0 mm 14,6 km/h (3 Bft) S-SW 205 ° 0 min 0,000 mm 1,0 UV-I 70 W/m² 6,0 °C 7,7 °C 29,0 km/h (5 Bft)
10.10.2019 10:00 9,9 °C 77 % 1016,0 hPa 0,0 mm 8,1 km/h (2 Bft) W 267 ° 0 min 0,000 mm 1,0 UV-I 53 W/m² 6,1 °C 8,9 °C 19,3 km/h (3 Bft)
10.10.2019 10:01 9,9 °C 77 % 1015,9 hPa 0,0 mm 13,3 km/h (3 Bft) W 260 ° 0 min 0,051 mm 0,0 UV-I 54 W/m² 6,1 °C 8,0 °C 19,3 km/h (3 Bft)
10.10.2019 10:02 10,0 °C 78 % 1016,1 hPa 0,0 mm 11,2 km/h (2 Bft) W-SW 243 ° 0 min 0,000 mm 0,0 UV-I 54 W/m² 6,3 °C 8,4 °C 16,1 km/h (3 Bft)
10.10.2019 10:03 10,1 °C 77 % 1016,1 hPa 0,0 mm 8,8 km/h (2 Bft) W 279 ° 0 min 0,000 mm 0,0 UV-I 49 W/m² 6,3 °C 10,1 °C 12,9 km/h (3 Bft)
10.10.2019 10:04 10,1 °C 77 % 1016,0 hPa 0,0 mm 10,4 km/h (2 Bft) W 279 ° 0 min 0,000 mm 0,0 UV-I 53 W/m² 6,3 °C 10,1 °C 16,1 km/h (3 Bft)
10.10.2019 10:05 10,1 °C 77 % 1016,1 hPa 0,0 mm 12,6 km/h (3 Bft) W 266 ° 0 min 0,000 mm 0,0 UV-I 54 W/m² 6,3 °C 10,1 °C 20,9 km/h (4 Bft)
10.10.2019 10:06 10,1 °C 77 % 1016,1 hPa 0,0 mm 16,3 km/h (3 Bft) W 262 ° 0 min 0,000 mm 1,1 UV-I 60 W/m² 6,3 °C 10,1 °C 24,1 km/h (4 Bft)
10.10.2019 10:07 10,1 °C 78 % 1015,9 hPa 0,0 mm 7,3 km/h (2 Bft) W 273 ° 0 min 0,000 mm 1,1 UV-I 56 W/m² 6,4 °C 10,1 °C 12,9 km/h (3 Bft)
10.10.2019 10:08 10,0 °C 78 % 1015,9 hPa 0,0 mm 13,1 km/h (3 Bft) W-SW 248 ° 0 min 0,000 mm 0,0 UV-I 49 W/m² 6,3 °C 8,2 °C 17,7 km/h (3 Bft)
10.10.2019 10:09 10,0 °C 78 % 1016,1 hPa 0,0 mm 8,4 km/h (2 Bft) W-NW 300 ° 0 min 0,000 mm 1,1 UV-I 56 W/m² 6,3 °C 8,9 °C 16,1 km/h (3 Bft)
10.10.2019 10:10 9,9 °C 78 % 1016,1 hPa 0,0 mm 16,0 km/h (3 Bft) W-NW 287 ° 0 min 0,000 mm 1,1 UV-I 58 W/m² 6,2 °C 7,7 °C 22,5 km/h (4 Bft)
10.10.2019 10:11 10,1 °C 77 % 1016,1 hPa 0,0 mm 17,5 km/h (3 Bft) S-SW 203 ° 0 min 0,000 mm 1,1 UV-I 62 W/m² 6,3 °C 10,1 °C 30,6 km/h (5 Bft)
10.10.2019 10:12 10,1 °C 77 % 1016,2 hPa 0,0 mm 13,5 km/h (3 Bft) W-NW 290 ° 0 min 0,000 mm 1,1 UV-I 62 W/m² 6,3 °C 10,1 °C 24,1 km/h (4 Bft)
10.10.2019 10:13 10,1 °C 76 % 1016,2 hPa 0,0 mm 14,3 km/h (3 Bft) W 263 ° 0 min 0,000 mm 1,1 UV-I 63 W/m² 6,1 °C 10,1 °C 20,9 km/h (4 Bft)
10.10.2019 10:14 10,2 °C 76 % 1016,2 hPa 0,0 mm 13,8 km/h (3 Bft) W-SW 253 ° 0 min 0,000 mm 0,0 UV-I 54 W/m² 6,2 °C 10,2 °C 22,5 km/h (4 Bft)
10.10.2019 10:15 10,2 °C 76 % 1016,3 hPa 0,0 mm 17,2 km/h (3 Bft) W 267 ° 0 min 0,000 mm 1,2 UV-I 60 W/m² 6,2 °C 10,2 °C 24,1 km/h (4 Bft)
10.10.2019 10:16 10,2 °C 76 % 1016,3 hPa 0,0 mm 10,5 km/h (2 Bft) W-NW 297 ° 0 min 0,000 mm 1,2 UV-I 60 W/m² 6,2 °C 10,2 °C 17,7 km/h (3 Bft)
10.10.2019 10:17 10,2 °C 76 % 1016,2 hPa 0,0 mm 15,9 km/h (3 Bft) W-SW 240 ° 0 min 0,000 mm 1,2 UV-I 60 W/m² 6,2 °C 10,2 °C 24,1 km/h (4 Bft)
10.10.2019 10:18 10,2 °C 76 % 1016,3 hPa 0,0 mm 10,8 km/h (2 Bft) W-SW 254 ° 0 min 0,000 mm 1,2 UV-I 60 W/m² 6,2 °C 10,2 °C 19,3 km/h (3 Bft)
10.10.2019 10:19 10,3 °C 76 % 1016,4 hPa 0,0 mm 14,9 km/h (3 Bft) W-SW 245 ° 0 min 0,000 mm 1,2 UV-I 63 W/m² 6,3 °C 10,3 °C 24,1 km/h (4 Bft)
10.10.2019 10:20 10,3 °C 76 % 1016,3 hPa 0,0 mm 12,9 km/h (3 Bft) W-SW 253 ° 0 min 0,000 mm 1,2 UV-I 62 W/m² 6,3 °C 10,3 °C 19,3 km/h (3 Bft)
10.10.2019 10:21 10,3 °C 76 % 1016,3 hPa 0,0 mm 13,4 km/h (3 Bft) W-SW 256 ° 0 min 0,000 mm 1,2 UV-I 62 W/m² 6,3 °C 10,3 °C 20,9 km/h (4 Bft)
10.10.2019 10:22 10,3 °C 75 % 1016,4 hPa 0,0 mm 16,5 km/h (3 Bft) W-SW 240 ° 0 min 0,000 mm 1,2 UV-I 70 W/m² 6,1 °C 10,3 °C 25,7 km/h (4 Bft)
10.10.2019 10:23 10,4 °C 75 % 1016,2 hPa 0,0 mm 22,3 km/h (4 Bft) NW 313 ° 0 min 0,000 mm 1,2 UV-I 72 W/m² 6,2 °C 10,4 °C 43,5 km/h (6 Bft)
10.10.2019 10:24 10,4 °C 74 % 1016,2 hPa 0,0 mm 13,8 km/h (3 Bft) W-NW 282 ° 0 min 0,000 mm 1,2 UV-I 72 W/m² 6,0 °C 10,4 °C 24,1 km/h (4 Bft)
10.10.2019 10:25 10,4 °C 75 % 1016,3 hPa 0,0 mm 22,1 km/h (4 Bft) W-SW 254 ° 0 min 0,000 mm 1,3 UV-I 84 W/m² 6,2 °C 10,4 °C 33,8 km/h (5 Bft)
10.10.2019 10:26 10,5 °C 74 % 1016,3 hPa 0,0 mm 16,2 km/h (3 Bft) W-SW 248 ° 0 min 0,000 mm 1,3 UV-I 81 W/m² 6,1 °C 10,5 °C 25,7 km/h (4 Bft)
10.10.2019 10:27 10,6 °C 74 % 1016,3 hPa 0,0 mm 20,4 km/h (4 Bft) W 272 ° 0 min 0,000 mm 1,3 UV-I 90 W/m² 6,2 °C 10,6 °C 30,6 km/h (5 Bft)
10.10.2019 10:28 10,6 °C 75 % 1016,3 hPa 0,0 mm 17,1 km/h (3 Bft) W-SW 258 ° 0 min 0,000 mm 1,3 UV-I 83 W/m² 6,4 °C 10,6 °C 24,1 km/h (4 Bft)
10.10.2019 10:29 10,6 °C 74 % 1016,4 hPa 0,0 mm 18,3 km/h (3 Bft) W-NW 288 ° 0 min 0,000 mm 1,3 UV-I 76 W/m² 6,2 °C 10,6 °C 27,4 km/h (4 Bft)
10.10.2019 10:30 10,6 °C 75 % 1016,3 hPa 0,0 mm 17,5 km/h (3 Bft) W-SW 246 ° 0 min 0,000 mm 1,3 UV-I 76 W/m² 6,4 °C 10,6 °C 24,1 km/h (4 Bft)
10.10.2019 10:31 10,6 °C 74 % 1016,3 hPa 0,0 mm 16,8 km/h (3 Bft) W 275 ° 0 min 0,000 mm 1,3 UV-I 72 W/m² 6,2 °C 10,6 °C 25,7 km/h (4 Bft)
10.10.2019 10:32 10,7 °C 74 % 1016,3 hPa 0,0 mm 13,3 km/h (3 Bft) W-NW 295 ° 0 min 0,000 mm 1,3 UV-I 65 W/m² 6,3 °C 10,7 °C 24,1 km/h (4 Bft)
10.10.2019 10:33 10,7 °C 74 % 1016,3 hPa 0,0 mm 14,6 km/h (3 Bft) W 278 ° 0 min 0,000 mm 1,3 UV-I 102 W/m² 6,3 °C 10,7 °C 24,1 km/h (4 Bft)
10.10.2019 10:34 10,7 °C 74 % 1016,4 hPa 0,0 mm 14,6 km/h (3 Bft) W 260 ° 0 min 0,000 mm 1,3 UV-I 83 W/m² 6,3 °C 10,7 °C 24,1 km/h (4 Bft)
10.10.2019 10:35 10,7 °C 74 % 1016,4 hPa 0,0 mm 17,8 km/h (3 Bft) W 270 ° 0 min 0,000 mm 1,3 UV-I 67 W/m² 6,3 °C 10,7 °C 29,0 km/h (5 Bft)
10.10.2019 10:36 10,7 °C 74 % 1016,4 hPa 0,0 mm 20,6 km/h (4 Bft) W 265 ° 0 min 0,000 mm 1,3 UV-I 63 W/m² 6,3 °C 10,7 °C 30,6 km/h (5 Bft)
10.10.2019 10:37 10,7 °C 74 % 1016,5 hPa 0,0 mm 17,8 km/h (3 Bft) W 275 ° 0 min 0,000 mm 1,3 UV-I 65 W/m² 6,3 °C 10,7 °C 24,1 km/h (4 Bft)
10.10.2019 10:38 10,7 °C 74 % 1016,4 hPa 0,0 mm 17,3 km/h (3 Bft) W-NW 302 ° 0 min 0,000 mm 1,3 UV-I 67 W/m² 6,3 °C 10,7 °C 25,7 km/h (4 Bft)
10.10.2019 10:39 10,7 °C 74 % 1016,4 hPa 0,0 mm 15,0 km/h (3 Bft) W-SW 246 ° 0 min 0,000 mm 1,3 UV-I 67 W/m² 6,3 °C 10,7 °C 22,5 km/h (4 Bft)
10.10.2019 10:40 10,8 °C 74 % 1016,5 hPa 0,0 mm 14,0 km/h (3 Bft) NW 319 ° 0 min 0,000 mm 1,3 UV-I 65 W/m² 6,4 °C 10,8 °C 17,7 km/h (3 Bft)
10.10.2019 10:41 10,8 °C 74 % 1016,5 hPa 0,0 mm 10,7 km/h (2 Bft) SW 234 ° 0 min 0,000 mm 1,3 UV-I 70 W/m² 6,4 °C 10,8 °C 16,1 km/h (3 Bft)
10.10.2019 10:42 10,8 °C 75 % 1016,5 hPa 0,0 mm 9,3 km/h (2 Bft) W 271 ° 0 min 0,000 mm 1,3 UV-I 84 W/m² 6,5 °C 10,8 °C 14,5 km/h (3 Bft)
10.10.2019 10:43 10,8 °C 74 % 1016,5 hPa 0,0 mm 13,7 km/h (3 Bft) SW 220 ° 0 min 0,000 mm 1,4 UV-I 81 W/m² 6,4 °C 10,8 °C 27,4 km/h (4 Bft)
10.10.2019 10:44 10,8 °C 74 % 1016,5 hPa 0,0 mm 21,4 km/h (4 Bft) N-NW 331 ° 0 min 0,000 mm 1,4 UV-I 84 W/m² 6,4 °C 10,8 °C 32,2 km/h (5 Bft)
10.10.2019 10:45 10,8 °C 73 % 1016,6 hPa 0,0 mm 22,7 km/h (4 Bft) W 277 ° 0 min 0,000 mm 1,4 UV-I 100 W/m² 6,2 °C 10,8 °C 33,8 km/h (5 Bft)
10.10.2019 10:46 10,8 °C 73 % 1016,5 hPa 0,0 mm 20,8 km/h (4 Bft) W 281 ° 0 min 0,000 mm 1,4 UV-I 90 W/m² 6,2 °C 10,8 °C 29,0 km/h (5 Bft)
10.10.2019 10:47 10,9 °C 73 % 1016,5 hPa 0,0 mm 17,6 km/h (3 Bft) W-SW 255 ° 0 min 0,000 mm 1,5 UV-I 135 W/m² 6,3 °C 10,9 °C 29,0 km/h (5 Bft)
10.10.2019 10:48 10,9 °C 73 % 1016,5 hPa 0,0 mm 20,6 km/h (4 Bft) W 262 ° 0 min 0,000 mm 1,4 UV-I 98 W/m² 6,3 °C 10,9 °C 29,0 km/h (5 Bft)
10.10.2019 10:49 11,0 °C 73 % 1016,5 hPa 0,0 mm 13,7 km/h (3 Bft) W-SW 256 ° 0 min 0,000 mm 1,6 UV-I 151 W/m² 6,4 °C 11,0 °C 25,7 km/h (4 Bft)
10.10.2019 10:50 11,0 °C 75 % 1016,6 hPa 0,0 mm 11,5 km/h (2 Bft) W-SW 238 ° 0 min 0,000 mm 1,7 UV-I 178 W/m² 6,7 °C 11,0 °C 19,3 km/h (3 Bft)
10.10.2019 10:51 11,1 °C 74 % 1016,5 hPa 0,0 mm 11,6 km/h (2 Bft) W-NW 300 ° 0 min 0,000 mm 1,7 UV-I 216 W/m² 6,6 °C 11,1 °C 19,3 km/h (3 Bft)
10.10.2019 10:52 11,2 °C 74 % 1016,5 hPa 0,0 mm 16,4 km/h (3 Bft) W-NW 286 ° 0 min 0,000 mm 2,0 UV-I 390 W/m² 6,7 °C 11,2 °C 19,3 km/h (3 Bft)
10.10.2019 10:53 11,3 °C 74 % 1016,5 hPa 0,0 mm 8,0 km/h (2 Bft) W-NW 298 ° 0 min 0,000 mm 2,0 UV-I 478 W/m² 6,8 °C 11,3 °C 16,1 km/h (3 Bft)
10.10.2019 10:54 11,3 °C 74 % 1016,5 hPa 0,0 mm 17,3 km/h (3 Bft) W-NW 292 ° 0 min 0,000 mm 2,3 UV-I 478 W/m² 6,8 °C 11,3 °C 27,4 km/h (4 Bft)
10.10.2019 10:55 11,4 °C 73 % 1016,5 hPa 0,0 mm 13,7 km/h (3 Bft) W 263 ° 0 min 0,000 mm 2,5 UV-I 489 W/m² 6,7 °C 11,4 °C 25,7 km/h (4 Bft)
10.10.2019 10:56 11,5 °C 71 % 1016,6 hPa 0,0 mm 26,0 km/h (4 Bft) W 267 ° 0 min 0,000 mm 2,5 UV-I 571 W/m² 6,4 °C 11,5 °C 37,0 km/h (5 Bft)
10.10.2019 10:57 11,6 °C 70 % 1016,6 hPa 0,0 mm 15,2 km/h (3 Bft) NW 313 ° 0 min 0,000 mm 2,6 UV-I 591 W/m² 6,3 °C 11,6 °C 20,9 km/h (4 Bft)
10.10.2019 10:58 11,7 °C 71 % 1016,5 hPa 0,0 mm 11,9 km/h (2 Bft) W-NW 293 ° 1 min 0,000 mm 2,6 UV-I 610 W/m² 6,6 °C 11,7 °C 17,7 km/h (3 Bft)
10.10.2019 10:59 11,7 °C 71 % 1016,5 hPa 0,0 mm 18,5 km/h (3 Bft) W-SW 253 ° 1 min 0,000 mm 2,7 UV-I 606 W/m² 6,6 °C 11,7 °C 30,6 km/h (5 Bft)
10.10.2019 11:00 11,8 °C 70 % 1016,5 hPa 0,0 mm 10,1 km/h (2 Bft) NW 306 ° 1 min 0,000 mm 2,7 UV-I 601 W/m² 6,5 °C 11,8 °C 24,1 km/h (4 Bft)
10.10.2019 11:01 11,9 °C 71 % 1016,4 hPa 0,0 mm 14,8 km/h (3 Bft) W-SW 244 ° 0 min 0,102 mm 2,6 UV-I 582 W/m² 6,8 °C 11,9 °C 20,9 km/h (4 Bft)
10.10.2019 11:02 11,9 °C 69 % 1016,6 hPa 0,0 mm 17,1 km/h (3 Bft) W 266 ° 0 min 0,000 mm 2,6 UV-I 582 W/m² 6,4 °C 11,9 °C 25,7 km/h (4 Bft)
10.10.2019 11:03 12,0 °C 68 % 1016,5 hPa 0,0 mm 20,9 km/h (4 Bft) W 266 ° 0 min 0,000 mm 2,7 UV-I 564 W/m² 6,3 °C 12,0 °C 32,2 km/h (5 Bft)
10.10.2019 11:04 12,1 °C 69 % 1016,6 hPa 0,0 mm 19,2 km/h (3 Bft) W 273 ° 0 min 0,000 mm 2,7 UV-I 545 W/m² 6,6 °C 12,1 °C 29,0 km/h (5 Bft)
10.10.2019 11:05 12,1 °C 70 % 1016,7 hPa 0,0 mm 21,7 km/h (4 Bft) W-SW 244 ° 0 min 0,000 mm 2,7 UV-I 589 W/m² 6,8 °C 12,1 °C 35,4 km/h (5 Bft)
10.10.2019 11:06 12,1 °C 70 % 1016,7 hPa 0,0 mm 14,1 km/h (3 Bft) W 263 ° 1 min 0,000 mm 2,6 UV-I 608 W/m² 6,8 °C 12,1 °C 19,3 km/h (3 Bft)
10.10.2019 11:07 12,2 °C 69 % 1016,7 hPa 0,0 mm 16,7 km/h (3 Bft) W 269 ° 1 min 0,000 mm 2,8 UV-I 608 W/m² 6,7 °C 12,2 °C 25,7 km/h (4 Bft)
10.10.2019 11:08 12,2 °C 70 % 1016,7 hPa 0,0 mm 14,7 km/h (3 Bft) W-SW 252 ° 0 min 0,000 mm 2,7 UV-I 578 W/m² 6,9 °C 12,2 °C 24,1 km/h (4 Bft)
10.10.2019 11:09 12,3 °C 70 % 1016,7 hPa 0,0 mm 13,2 km/h (3 Bft) W 265 ° 0 min 0,000 mm 2,7 UV-I 563 W/m² 7,0 °C 12,3 °C 22,5 km/h (4 Bft)
10.10.2019 11:10 12,3 °C 69 % 1016,6 hPa 0,0 mm 17,0 km/h (3 Bft) SW 234 ° 0 min 0,000 mm 2,6 UV-I 540 W/m² 6,8 °C 12,3 °C 30,6 km/h (5 Bft)
10.10.2019 11:11 12,3 °C 68 % 1016,7 hPa 0,0 mm 15,8 km/h (3 Bft) NW 311 ° 0 min 0,000 mm 2,4 UV-I 540 W/m² 6,6 °C 12,3 °C 30,6 km/h (5 Bft)
10.10.2019 11:12 12,3 °C 69 % 1016,7 hPa 0,0 mm 17,1 km/h (3 Bft) W-SW 249 ° 0 min 0,000 mm 2,4 UV-I 540 W/m² 6,8 °C 12,3 °C 25,7 km/h (4 Bft)
10.10.2019 11:13 12,3 °C 71 % 1016,8 hPa 0,0 mm 22,6 km/h (4 Bft) W-SW 255 ° 0 min 0,000 mm 1,9 UV-I 540 W/m² 7,2 °C 12,3 °C 32,2 km/h (5 Bft)
10.10.2019 11:14 12,2 °C 69 % 1016,7 hPa 0,0 mm 17,0 km/h (3 Bft) W-SW 256 ° 0 min 0,000 mm 2,1 UV-I 264 W/m² 6,7 °C 12,2 °C 24,1 km/h (4 Bft)
10.10.2019 11:15 12,2 °C 69 % 1016,8 hPa 0,0 mm 16,2 km/h (3 Bft) W 263 ° 0 min 0,000 mm 2,0 UV-I 272 W/m² 6,7 °C 12,2 °C 24,1 km/h (4 Bft)
10.10.2019 11:16 12,2 °C 68 % 1016,8 hPa 0,0 mm 14,3 km/h (3 Bft) W-SW 254 ° 0 min 0,000 mm 2,1 UV-I 297 W/m² 6,5 °C 12,2 °C 20,9 km/h (4 Bft)
10.10.2019 11:17 12,2 °C 68 % 1016,8 hPa 0,0 mm 12,9 km/h (3 Bft) W-NW 295 ° 0 min 0,000 mm 2,2 UV-I 278 W/m² 6,5 °C 12,2 °C 22,5 km/h (4 Bft)
10.10.2019 11:18 12,2 °C 69 % 1016,8 hPa 0,0 mm 11,3 km/h (2 Bft) W-SW 243 ° 0 min 0,000 mm 2,1 UV-I 378 W/m² 6,7 °C 12,2 °C 16,1 km/h (3 Bft)
10.10.2019 11:19 12,2 °C 69 % 1016,7 hPa 0,0 mm 10,6 km/h (2 Bft) W-NW 283 ° 0 min 0,000 mm 2,2 UV-I 381 W/m² 6,7 °C 12,2 °C 20,9 km/h (4 Bft)
10.10.2019 11:20 12,2 °C 69 % 1016,8 hPa 0,0 mm 18,4 km/h (3 Bft) W 263 ° 0 min 0,000 mm 2,1 UV-I 381 W/m² 6,7 °C 12,2 °C 30,6 km/h (5 Bft)
10.10.2019 11:21 12,2 °C 68 % 1016,8 hPa 0,0 mm 14,6 km/h (3 Bft) W 259 ° 0 min 0,000 mm 2,0 UV-I 334 W/m² 6,5 °C 12,2 °C 24,1 km/h (4 Bft)
10.10.2019 11:22 12,2 °C 69 % 1016,8 hPa 0,0 mm 12,7 km/h (3 Bft) W 281 ° 0 min 0,000 mm 1,7 UV-I 200 W/m² 6,7 °C 12,2 °C 16,1 km/h (3 Bft)
10.10.2019 11:23 12,2 °C 69 % 1016,8 hPa 0,0 mm 20,3 km/h (4 Bft) W-SW 257 ° 0 min 0,000 mm 1,7 UV-I 197 W/m² 6,7 °C 12,2 °C 30,6 km/h (5 Bft)
10.10.2019 11:24 12,1 °C 68 % 1016,8 hPa 0,0 mm 11,4 km/h (2 Bft) W-NW 294 ° 0 min 0,000 mm 2,1 UV-I 292 W/m² 6,4 °C 12,1 °C 17,7 km/h (3 Bft)
10.10.2019 11:25 11,9 °C 67 % 1016,8 hPa 0,0 mm 14,5 km/h (3 Bft) W-SW 244 ° 0 min 0,000 mm 1,8 UV-I 211 W/m² 6,0 °C 11,9 °C 20,9 km/h (4 Bft)
10.10.2019 11:26 11,9 °C 67 % 1016,8 hPa 0,0 mm 22,5 km/h (4 Bft) W-SW 248 ° 0 min 0,000 mm 1,9 UV-I 274 W/m² 6,0 °C 11,9 °C 29,0 km/h (5 Bft)
10.10.2019 11:27 11,8 °C 68 % 1016,8 hPa 0,0 mm 12,9 km/h (3 Bft) W 281 ° 0 min 0,000 mm 2,1 UV-I 301 W/m² 6,1 °C 11,8 °C 19,3 km/h (3 Bft)
10.10.2019 11:28 11,8 °C 69 % 1016,8 hPa 0,0 mm 15,7 km/h (3 Bft) W 275 ° 0 min 0,000 mm 1,8 UV-I 262 W/m² 6,3 °C 11,8 °C 20,9 km/h (4 Bft)
10.10.2019 11:29 11,8 °C 70 % 1016,8 hPa 0,0 mm 12,5 km/h (3 Bft) W-NW 286 ° 0 min 0,000 mm 1,9 UV-I 248 W/m² 6,5 °C 11,8 °C 19,3 km/h (3 Bft)
10.10.2019 11:30 11,9 °C 72 % 1016,7 hPa 0,0 mm 10,7 km/h (2 Bft) W-NW 289 ° 0 min 0,000 mm 2,0 UV-I 204 W/m² 7,0 °C 11,9 °C 14,5 km/h (3 Bft)
10.10.2019 11:31 11,9 °C 69 % 1016,8 hPa 0,0 mm 15,8 km/h (3 Bft) W-NW 286 ° 0 min 0,000 mm 2,0 UV-I 165 W/m² 6,4 °C 11,9 °C 20,9 km/h (4 Bft)
10.10.2019 11:32 11,8 °C 69 % 1016,8 hPa 0,0 mm 19,6 km/h (3 Bft) W-SW 248 ° 0 min 0,000 mm 1,9 UV-I 176 W/m² 6,3 °C 11,8 °C 25,7 km/h (4 Bft)
10.10.2019 11:33 11,8 °C 68 % 1016,7 hPa 0,0 mm 18,9 km/h (3 Bft) W-SW 256 ° 0 min 0,000 mm 2,0 UV-I 290 W/m² 6,1 °C 11,8 °C 25,7 km/h (4 Bft)
10.10.2019 11:34 11,8 °C 68 % 1016,7 hPa 0,0 mm 12,3 km/h (3 Bft) W 265 ° 0 min 0,000 mm 2,1 UV-I 290 W/m² 6,1 °C 11,8 °C 20,9 km/h (4 Bft)
10.10.2019 11:35 11,7 °C 68 % 1016,7 hPa 0,0 mm 14,0 km/h (3 Bft) W 279 ° 0 min 0,000 mm 1,8 UV-I 290 W/m² 6,0 °C 11,7 °C 24,1 km/h (4 Bft)
10.10.2019 11:36 11,7 °C 69 % 1016,8 hPa 0,0 mm 15,2 km/h (3 Bft) W 265 ° 0 min 0,000 mm 3,1 UV-I 290 W/m² 6,2 °C 11,7 °C 22,5 km/h (4 Bft)
10.10.2019 11:37 11,7 °C 69 % 1016,8 hPa 0,0 mm 13,3 km/h (3 Bft) W 276 ° 1 min 0,000 mm 3,1 UV-I 626 W/m² 6,2 °C 11,7 °C 19,3 km/h (3 Bft)
10.10.2019 11:38 11,8 °C 70 % 1016,8 hPa 0,0 mm 7,6 km/h (2 Bft) W 277 ° 0 min 0,000 mm 3,1 UV-I 585 W/m² 6,5 °C 11,8 °C 12,9 km/h (3 Bft)
10.10.2019 11:39 11,9 °C 70 % 1016,9 hPa 0,0 mm 13,2 km/h (3 Bft) W 279 ° 0 min 0,000 mm 2,3 UV-I 281 W/m² 6,6 °C 11,9 °C 19,3 km/h (3 Bft)
10.10.2019 11:40 12,0 °C 70 % 1016,9 hPa 0,0 mm 10,0 km/h (2 Bft) NW 307 ° 0 min 0,000 mm 2,0 UV-I 271 W/m² 6,7 °C 12,0 °C 17,7 km/h (3 Bft)
10.10.2019 11:41 12,1 °C 70 % 1016,9 hPa 0,0 mm 17,3 km/h (3 Bft) W-SW 246 ° 0 min 0,000 mm 2,1 UV-I 271 W/m² 6,8 °C 12,1 °C 24,1 km/h (4 Bft)
10.10.2019 11:42 12,1 °C 70 % 1017,0 hPa 0,0 mm 10,6 km/h (2 Bft) W 281 ° 0 min 0,000 mm 2,9 UV-I 271 W/m² 6,8 °C 12,1 °C 19,3 km/h (3 Bft)
10.10.2019 11:43 12,2 °C 72 % 1017,0 hPa 0,0 mm 8,5 km/h (2 Bft) W 279 ° 0 min 0,000 mm 2,6 UV-I 271 W/m² 7,3 °C 12,2 °C 16,1 km/h (3 Bft)
10.10.2019 11:44 12,3 °C 69 % 1017,0 hPa 0,0 mm 13,4 km/h (3 Bft) W 279 ° 0 min 0,000 mm 2,1 UV-I 271 W/m² 6,8 °C 12,3 °C 24,1 km/h (4 Bft)
10.10.2019 11:45 12,4 °C 68 % 1016,8 hPa 0,0 mm 15,9 km/h (3 Bft) W 259 ° 0 min 0,000 mm 2,6 UV-I 341 W/m² 6,7 °C 12,4 °C 24,1 km/h (4 Bft)
10.10.2019 11:46 12,4 °C 69 % 1016,9 hPa 0,0 mm 13,5 km/h (3 Bft) W-SW 257 ° 0 min 0,000 mm 3,1 UV-I 320 W/m² 6,9 °C 12,4 °C 24,1 km/h (4 Bft)
10.10.2019 11:47 12,4 °C 68 % 1016,8 hPa 0,0 mm 15,6 km/h (3 Bft) W 269 ° 0 min 0,000 mm 2,1 UV-I 281 W/m² 6,7 °C 12,4 °C 22,5 km/h (4 Bft)
10.10.2019 11:48 12,3 °C 68 % 1016,9 hPa 0,0 mm 21,8 km/h (4 Bft) W 265 ° 0 min 0,000 mm 2,0 UV-I 257 W/m² 6,6 °C 12,3 °C 33,8 km/h (5 Bft)
10.10.2019 11:49 12,3 °C 67 % 1016,8 hPa 0,0 mm 16,3 km/h (3 Bft) W 267 ° 0 min 0,000 mm 2,2 UV-I 315 W/m² 6,4 °C 12,3 °C 19,3 km/h (3 Bft)
10.10.2019 11:50 12,2 °C 69 % 1016,9 hPa 0,0 mm 11,8 km/h (2 Bft) W-NW 286 ° 0 min 0,000 mm 3,3 UV-I 315 W/m² 6,7 °C 12,2 °C 22,5 km/h (4 Bft)
10.10.2019 11:51 12,2 °C 68 % 1017,0 hPa 0,0 mm 11,7 km/h (2 Bft) W-SW 248 ° 0 min 0,000 mm 2,7 UV-I 575 W/m² 6,5 °C 12,2 °C 16,1 km/h (3 Bft)
10.10.2019 11:52 12,2 °C 68 % 1016,9 hPa 0,0 mm 13,9 km/h (3 Bft) NW 311 ° 0 min 0,000 mm 1,8 UV-I 575 W/m² 6,5 °C 12,2 °C 20,9 km/h (4 Bft)
10.10.2019 11:53 12,3 °C 68 % 1016,9 hPa 0,0 mm 6,7 km/h (2 Bft) W-SW 250 ° 0 min 0,000 mm 1,8 UV-I 241 W/m² 6,6 °C 12,3 °C 12,9 km/h (3 Bft)
10.10.2019 11:54 12,3 °C 68 % 1016,9 hPa 0,0 mm 5,9 km/h (2 Bft) W 281 ° 0 min 0,000 mm 1,7 UV-I 246 W/m² 6,6 °C 12,3 °C 11,3 km/h (2 Bft)
10.10.2019 11:55 12,2 °C 69 % 1016,9 hPa 0,0 mm 5,0 km/h (1 Bft) W 261 ° 0 min 0,000 mm 1,6 UV-I 327 W/m² 6,7 °C 12,2 °C 9,7 km/h (2 Bft)
10.10.2019 11:56 12,2 °C 69 % 1017,0 hPa 0,0 mm 9,6 km/h (2 Bft) W-NW 285 ° 0 min 0,000 mm 1,4 UV-I 346 W/m² 6,7 °C 12,2 °C 17,7 km/h (3 Bft)
10.10.2019 11:57 12,2 °C 68 % 1017,0 hPa 0,0 mm 12,5 km/h (3 Bft) W-SW 250 ° 0 min 0,000 mm 2,2 UV-I 188 W/m² 6,5 °C 12,2 °C 19,3 km/h (3 Bft)
10.10.2019 11:58 12,1 °C 68 % 1017,1 hPa 0,0 mm 15,9 km/h (3 Bft) W 271 ° 0 min 0,000 mm 1,5 UV-I 213 W/m² 6,4 °C 12,1 °C 20,9 km/h (4 Bft)
10.10.2019 11:59 12,1 °C 68 % 1017,1 hPa 0,0 mm 11,0 km/h (2 Bft) W 278 ° 0 min 0,000 mm 1,5 UV-I 207 W/m² 6,4 °C 12,1 °C 22,5 km/h (4 Bft)
10.10.2019 12:00 12,1 °C 69 % 1017,1 hPa 0,0 mm 7,7 km/h (2 Bft) W 263 ° 0 min 0,000 mm 1,5 UV-I 214 W/m² 6,6 °C 12,1 °C 11,3 km/h (2 Bft)
10.10.2019 12:01 12,0 °C 68 % 1017,1 hPa 0,0 mm 12,9 km/h (3 Bft) W-NW 301 ° 0 min 0,228 mm 1,4 UV-I 206 W/m² 6,3 °C 12,0 °C 24,1 km/h (4 Bft)
10.10.2019 12:02 12,0 °C 69 % 1017,1 hPa 0,0 mm 10,6 km/h (2 Bft) W-NW 286 ° 0 min 0,000 mm 1,3 UV-I 192 W/m² 6,5 °C 12,0 °C 16,1 km/h (3 Bft)
10.10.2019 12:03 11,9 °C 69 % 1017,1 hPa 0,0 mm 14,1 km/h (3 Bft) W 263 ° 0 min 0,000 mm 1,3 UV-I 197 W/m² 6,4 °C 11,9 °C 19,3 km/h (3 Bft)
10.10.2019 12:04 11,9 °C 69 % 1017,1 hPa 0,0 mm 13,8 km/h (3 Bft) W-SW 258 ° 0 min 0,000 mm 1,5 UV-I 216 W/m² 6,4 °C 11,9 °C 20,9 km/h (4 Bft)
10.10.2019 12:05 11,8 °C 69 % 1017,2 hPa 0,0 mm 12,7 km/h (3 Bft) N 5 ° 0 min 0,000 mm 1,4 UV-I 199 W/m² 6,3 °C 11,8 °C 20,9 km/h (4 Bft)
10.10.2019 12:06 11,8 °C 69 % 1017,1 hPa 0,0 mm 15,8 km/h (3 Bft) W-NW 295 ° 0 min 0,000 mm 1,5 UV-I 200 W/m² 6,3 °C 11,8 °C 27,4 km/h (4 Bft)
10.10.2019 12:07 11,8 °C 68 % 1017,1 hPa 0,0 mm 15,1 km/h (3 Bft) SW 226 ° 0 min 0,000 mm 1,2 UV-I 169 W/m² 6,1 °C 11,8 °C 20,9 km/h (4 Bft)
10.10.2019 12:08 11,8 °C 68 % 1017,1 hPa 0,0 mm 15,2 km/h (3 Bft) W 269 ° 0 min 0,000 mm 1,3 UV-I 176 W/m² 6,1 °C 11,8 °C 22,5 km/h (4 Bft)
10.10.2019 12:09 11,7 °C 70 % 1017,2 hPa 0,0 mm 21,5 km/h (4 Bft) NW 309 ° 0 min 0,000 mm 1,4 UV-I 176 W/m² 6,4 °C 11,7 °C 30,6 km/h (5 Bft)
10.10.2019 12:10 11,7 °C 67 % 1017,1 hPa 0,0 mm 15,8 km/h (3 Bft) W 264 ° 0 min 0,000 mm 1,5 UV-I 200 W/m² 5,8 °C 11,7 °C 27,4 km/h (4 Bft)
10.10.2019 12:11 11,7 °C 69 % 1017,2 hPa 0,0 mm 17,4 km/h (3 Bft) W-SW 257 ° 0 min 0,000 mm 1,5 UV-I 214 W/m² 6,2 °C 11,7 °C 30,6 km/h (5 Bft)
10.10.2019 12:12 11,7 °C 68 % 1017,2 hPa 0,0 mm 15,2 km/h (3 Bft) W 275 ° 0 min 0,000 mm 1,5 UV-I 225 W/m² 6,0 °C 11,7 °C 20,9 km/h (4 Bft)
10.10.2019 12:13 11,7 °C 69 % 1017,4 hPa 0,0 mm 18,0 km/h (3 Bft) W-NW 298 ° 0 min 0,000 mm 1,4 UV-I 202 W/m² 6,2 °C 11,7 °C 25,7 km/h (4 Bft)
10.10.2019 12:14 11,6 °C 68 % 1017,2 hPa 0,0 mm 23,4 km/h (4 Bft) W-SW 238 ° 0 min 0,000 mm 1,5 UV-I 237 W/m² 5,9 °C 11,6 °C 33,8 km/h (5 Bft)
10.10.2019 12:15 11,7 °C 68 % 1017,2 hPa 0,0 mm 20,0 km/h (4 Bft) W-NW 294 ° 0 min 0,000 mm 1,6 UV-I 237 W/m² 6,0 °C 11,7 °C 30,6 km/h (5 Bft)
10.10.2019 12:16 11,7 °C 67 % 1017,2 hPa 0,0 mm 19,8 km/h (3 Bft) W-SW 252 ° 0 min 0,000 mm 1,8 UV-I 267 W/m² 5,8 °C 11,7 °C 29,0 km/h (5 Bft)
10.10.2019 12:17 11,7 °C 67 % 1017,2 hPa 0,0 mm 17,4 km/h (3 Bft) W-NW 282 ° 0 min 0,000 mm 1,9 UV-I 267 W/m² 5,8 °C 11,7 °C 29,0 km/h (5 Bft)
10.10.2019 12:18 11,8 °C 68 % 1017,2 hPa 0,0 mm 13,4 km/h (3 Bft) W-NW 287 ° 1 min 0,000 mm 1,9 UV-I 721 W/m² 6,1 °C 11,8 °C 20,9 km/h (4 Bft)
10.10.2019 12:19 11,8 °C 68 % 1017,2 hPa 0,0 mm 10,1 km/h (2 Bft) SW 235 ° 1 min 0,000 mm 1,8 UV-I 721 W/m² 6,1 °C 11,8 °C 14,5 km/h (3 Bft)
10.10.2019 12:20 11,8 °C 69 % 1017,2 hPa 0,0 mm 14,2 km/h (3 Bft) W-NW 282 ° 0 min 0,000 mm 1,7 UV-I 221 W/m² 6,3 °C 11,8 °C 19,3 km/h (3 Bft)
10.10.2019 12:21 11,8 °C 68 % 1017,3 hPa 0,0 mm 19,0 km/h (3 Bft) W 267 ° 0 min 0,000 mm 1,9 UV-I 253 W/m² 6,1 °C 11,8 °C 32,2 km/h (5 Bft)
10.10.2019 12:22 11,8 °C 67 % 1017,2 hPa 0,0 mm 26,2 km/h (4 Bft) SW 223 ° 0 min 0,000 mm 1,6 UV-I 185 W/m² 5,9 °C 11,8 °C 40,2 km/h (6 Bft)
10.10.2019 12:23 11,8 °C 67 % 1017,4 hPa 0,0 mm 24,1 km/h (4 Bft) W-NW 298 ° 0 min 0,000 mm 1,7 UV-I 167 W/m² 5,9 °C 11,8 °C 45,1 km/h (6 Bft)
10.10.2019 12:24 11,8 °C 67 % 1017,1 hPa 0,0 mm 27,3 km/h (4 Bft) W 267 ° 0 min 0,000 mm 2,2 UV-I 167 W/m² 5,9 °C 11,8 °C 38,6 km/h (5 Bft)
10.10.2019 12:25 11,9 °C 67 % 1017,2 hPa 0,0 mm 24,4 km/h (4 Bft) W-SW 252 ° 0 min 0,000 mm 3,5 UV-I 167 W/m² 6,0 °C 11,9 °C 40,2 km/h (6 Bft)
10.10.2019 12:26 11,9 °C 67 % 1017,3 hPa 0,0 mm 22,8 km/h (4 Bft) W-SW 257 ° 0 min 0,000 mm 2,0 UV-I 167 W/m² 6,0 °C 11,9 °C 30,6 km/h (5 Bft)
10.10.2019 12:27 11,9 °C 68 % 1017,3 hPa 0,0 mm 25,5 km/h (4 Bft) W 271 ° 0 min 0,000 mm 1,9 UV-I 250 W/m² 6,2 °C 11,9 °C 40,2 km/h (6 Bft)
10.10.2019 12:28 11,9 °C 67 % 1017,2 hPa 0,0 mm 24,8 km/h (4 Bft) W-NW 294 ° 0 min 0,000 mm 1,7 UV-I 211 W/m² 6,0 °C 11,9 °C 40,2 km/h (6 Bft)
10.10.2019 12:29 11,9 °C 68 % 1017,2 hPa 0,0 mm 17,0 km/h (3 Bft) W 259 ° 0 min 0,000 mm 1,8 UV-I 213 W/m² 6,2 °C 11,9 °C 24,1 km/h (4 Bft)
10.10.2019 12:30 11,9 °C 67 % 1017,2 hPa 0,0 mm 27,4 km/h (4 Bft) W 272 ° 0 min 0,000 mm 2,0 UV-I 237 W/m² 6,0 °C 11,9 °C 41,8 km/h (6 Bft)
10.10.2019 12:31 11,9 °C 68 % 1017,3 hPa 0,0 mm 16,9 km/h (3 Bft) W-SW 244 ° 0 min 0,000 mm 1,8 UV-I 237 W/m² 6,2 °C 11,9 °C 20,9 km/h (4 Bft)
10.10.2019 12:32 11,9 °C 68 % 1017,3 hPa 0,0 mm 22,8 km/h (4 Bft) W 260 ° 0 min 0,000 mm 1,5 UV-I 207 W/m² 6,2 °C 11,9 °C 32,2 km/h (5 Bft)
10.10.2019 12:33 11,9 °C 68 % 1017,3 hPa 0,0 mm 23,1 km/h (4 Bft) W 263 ° 0 min 0,000 mm 1,7 UV-I 246 W/m² 6,2 °C 11,9 °C 32,2 km/h (5 Bft)
10.10.2019 12:34 11,9 °C 67 % 1017,3 hPa 0,0 mm 21,9 km/h (4 Bft) W 269 ° 0 min 0,000 mm 1,4 UV-I 202 W/m² 6,0 °C 11,9 °C 29,0 km/h (5 Bft)
10.10.2019 12:35 11,8 °C 68 % 1017,3 hPa 0,0 mm 19,8 km/h (3 Bft) W-SW 258 ° 0 min 0,000 mm 1,6 UV-I 220 W/m² 6,1 °C 11,8 °C 25,7 km/h (4 Bft)
10.10.2019 12:36 11,8 °C 69 % 1017,3 hPa 0,0 mm 16,0 km/h (3 Bft) W-NW 285 ° 0 min 0,000 mm 2,0 UV-I 264 W/m² 6,3 °C 11,8 °C 29,0 km/h (5 Bft)
10.10.2019 12:37 11,8 °C 68 % 1017,3 hPa 0,0 mm 19,6 km/h (3 Bft) W-SW 245 ° 0 min 0,000 mm 2,6 UV-I 269 W/m² 6,1 °C 11,8 °C 24,1 km/h (4 Bft)
10.10.2019 12:38 11,8 °C 68 % 1017,4 hPa 0,0 mm 20,1 km/h (4 Bft) NW 316 ° 0 min 0,000 mm 1,6 UV-I 155 W/m² 6,1 °C 11,8 °C 32,2 km/h (5 Bft)
10.10.2019 12:39 11,8 °C 68 % 1017,4 hPa 0,0 mm 27,3 km/h (4 Bft) W-SW 250 ° 0 min 0,000 mm 1,7 UV-I 176 W/m² 6,1 °C 11,8 °C 40,2 km/h (6 Bft)
10.10.2019 12:40 11,8 °C 67 % 1017,4 hPa 0,0 mm 24,8 km/h (4 Bft) W 268 ° 0 min 0,000 mm 1,7 UV-I 178 W/m² 5,9 °C 11,8 °C 40,2 km/h (6 Bft)
10.10.2019 12:41 11,7 °C 68 % 1017,3 hPa 0,0 mm 23,6 km/h (4 Bft) W 262 ° 0 min 0,000 mm 1,8 UV-I 195 W/m² 6,0 °C 11,7 °C 37,0 km/h (5 Bft)
10.10.2019 12:42 11,7 °C 67 % 1017,4 hPa 0,0 mm 25,5 km/h (4 Bft) W 269 ° 0 min 0,000 mm 2,2 UV-I 195 W/m² 5,8 °C 11,7 °C 38,6 km/h (5 Bft)
10.10.2019 12:43 11,6 °C 69 % 1017,4 hPa 0,0 mm 19,9 km/h (4 Bft) NW 304 ° 0 min 0,000 mm 1,9 UV-I 195 W/m² 6,1 °C 11,6 °C 27,4 km/h (4 Bft)
10.10.2019 12:44 11,7 °C 69 % 1017,4 hPa 0,0 mm 13,1 km/h (3 Bft) W 266 ° 0 min 0,000 mm 1,6 UV-I 169 W/m² 6,2 °C 11,7 °C 24,1 km/h (4 Bft)
10.10.2019 12:45 11,6 °C 68 % 1017,4 hPa 0,0 mm 22,3 km/h (4 Bft) W-SW 252 ° 0 min 0,000 mm 1,9 UV-I 244 W/m² 5,9 °C 11,6 °C 32,2 km/h (5 Bft)
10.10.2019 12:46 11,6 °C 69 % 1017,4 hPa 0,0 mm 21,5 km/h (4 Bft) W 281 ° 0 min 0,000 mm 1,7 UV-I 225 W/m² 6,1 °C 11,6 °C 30,6 km/h (5 Bft)
10.10.2019 12:47 11,6 °C 67 % 1017,4 hPa 0,0 mm 19,6 km/h (3 Bft) W 281 ° 0 min 0,000 mm 1,6 UV-I 174 W/m² 5,7 °C 11,6 °C 27,4 km/h (4 Bft)
10.10.2019 12:48 11,6 °C 68 % 1017,3 hPa 0,0 mm 17,7 km/h (3 Bft) NW 317 ° 0 min 0,000 mm 1,9 UV-I 200 W/m² 5,9 °C 11,6 °C 25,7 km/h (4 Bft)
10.10.2019 12:49 11,6 °C 68 % 1017,4 hPa 0,0 mm 15,2 km/h (3 Bft) W 261 ° 0 min 0,000 mm 2,1 UV-I 229 W/m² 5,9 °C 11,6 °C 20,9 km/h (4 Bft)
10.10.2019 12:50 11,6 °C 69 % 1017,4 hPa 0,0 mm 17,9 km/h (3 Bft) NW 324 ° 0 min 0,000 mm 2,1 UV-I 267 W/m² 6,1 °C 11,6 °C 27,4 km/h (4 Bft)
10.10.2019 12:51 11,7 °C 69 % 1017,4 hPa 0,0 mm 21,0 km/h (4 Bft) W 273 ° 0 min 0,000 mm 3,7 UV-I 267 W/m² 6,2 °C 11,7 °C 40,2 km/h (6 Bft)
10.10.2019 12:52 11,9 °C 70 % 1017,6 hPa 0,0 mm 27,8 km/h (4 Bft) W-NW 303 ° 1 min 0,000 mm 3,9 UV-I 802 W/m² 6,6 °C 11,9 °C 38,6 km/h (5 Bft)
10.10.2019 12:53 12,0 °C 69 % 1017,6 hPa 0,0 mm 19,9 km/h (4 Bft) W 267 ° 1 min 0,000 mm 3,3 UV-I 802 W/m² 6,5 °C 12,0 °C 30,6 km/h (5 Bft)
10.10.2019 12:54 12,1 °C 68 % 1017,5 hPa 0,0 mm 18,0 km/h (3 Bft) W 280 ° 1 min 0,000 mm 2,1 UV-I 802 W/m² 6,4 °C 12,1 °C 35,4 km/h (5 Bft)
10.10.2019 12:55 12,2 °C 68 % 1017,5 hPa 0,0 mm 13,2 km/h (3 Bft) W-SW 242 ° 1 min 0,000 mm 2,1 UV-I 802 W/m² 6,5 °C 12,2 °C 20,9 km/h (4 Bft)
10.10.2019 12:56 12,2 °C 69 % 1017,6 hPa 0,0 mm 18,1 km/h (3 Bft) W-NW 287 ° 1 min 0,000 mm 2,1 UV-I 802 W/m² 6,7 °C 12,2 °C 24,1 km/h (4 Bft)
10.10.2019 12:57 12,2 °C 68 % 1017,4 hPa 0,0 mm 23,3 km/h (4 Bft) W-SW 258 ° 0 min 0,000 mm 1,8 UV-I 216 W/m² 6,5 °C 12,2 °C 33,8 km/h (5 Bft)
10.10.2019 12:58 12,1 °C 67 % 1017,5 hPa 0,0 mm 25,2 km/h (4 Bft) W 269 ° 0 min 0,000 mm 3,9 UV-I 216 W/m² 6,2 °C 12,1 °C 38,6 km/h (5 Bft)
10.10.2019 12:59 12,1 °C 67 % 1017,6 hPa 0,0 mm 26,3 km/h (4 Bft) W 267 ° 0 min 0,000 mm 2,7 UV-I 216 W/m² 6,2 °C 12,1 °C 43,5 km/h (6 Bft)
10.10.2019 13:00 12,1 °C 66 % 1017,6 hPa 0,0 mm 30,2 km/h (5 Bft) W-NW 286 ° 0 min 0,000 mm 4,0 UV-I 216 W/m² 5,9 °C 12,1 °C 37,0 km/h (5 Bft)
10.10.2019 13:01 12,2 °C 68 % 1017,5 hPa 0,0 mm 26,8 km/h (4 Bft) W 259 ° 1 min 0,229 mm 2,5 UV-I 824 W/m² 6,5 °C 12,2 °C 43,5 km/h (6 Bft)
10.10.2019 13:02 12,2 °C 67 % 1017,5 hPa 0,0 mm 26,5 km/h (4 Bft) W-SW 252 ° 1 min 0,000 mm 3,6 UV-I 824 W/m² 6,3 °C 12,2 °C 38,6 km/h (5 Bft)
10.10.2019 13:03 12,3 °C 67 % 1017,5 hPa 0,0 mm 23,7 km/h (4 Bft) NW 311 ° 0 min 0,000 mm 2,0 UV-I 288 W/m² 6,4 °C 12,3 °C 35,4 km/h (5 Bft)
10.10.2019 13:04 12,2 °C 67 % 1017,5 hPa 0,0 mm 21,2 km/h (4 Bft) W-NW 296 ° 0 min 0,000 mm 1,6 UV-I 221 W/m² 6,3 °C 12,2 °C 29,0 km/h (5 Bft)
10.10.2019 13:05 12,2 °C 67 % 1017,5 hPa 0,0 mm 15,6 km/h (3 Bft) N-NW 331 ° 0 min 0,000 mm 2,1 UV-I 258 W/m² 6,3 °C 12,2 °C 20,9 km/h (4 Bft)
10.10.2019 13:06 12,2 °C 67 % 1017,4 hPa 0,0 mm 17,7 km/h (3 Bft) W-NW 288 ° 0 min 0,000 mm 1,6 UV-I 223 W/m² 6,3 °C 12,2 °C 24,1 km/h (4 Bft)
10.10.2019 13:07 12,1 °C 67 % 1017,7 hPa 0,0 mm 21,9 km/h (4 Bft) W 262 ° 0 min 0,000 mm 1,5 UV-I 229 W/m² 6,2 °C 12,1 °C 32,2 km/h (5 Bft)
10.10.2019 13:08 12,0 °C 67 % 1017,5 hPa 0,0 mm 18,5 km/h (3 Bft) W 266 ° 0 min 0,000 mm 1,8 UV-I 229 W/m² 6,1 °C 12,0 °C 25,7 km/h (4 Bft)
10.10.2019 13:09 12,0 °C 68 % 1017,6 hPa 0,0 mm 13,9 km/h (3 Bft) W 279 ° 0 min 0,000 mm 1,8 UV-I 229 W/m² 6,3 °C 12,0 °C 19,3 km/h (3 Bft)
10.10.2019 13:10 12,0 °C 69 % 1017,6 hPa 0,0 mm 20,8 km/h (4 Bft) W 281 ° 0 min 0,000 mm 1,8 UV-I 229 W/m² 6,5 °C 12,0 °C 32,2 km/h (5 Bft)
10.10.2019 13:11 12,0 °C 67 % 1017,7 hPa 0,0 mm 24,2 km/h (4 Bft) W-SW 254 ° 0 min 0,000 mm 2,4 UV-I 229 W/m² 6,1 °C 12,0 °C 46,7 km/h (6 Bft)
10.10.2019 13:12 12,0 °C 68 % 1017,7 hPa 0,0 mm 14,3 km/h (3 Bft) W 280 ° 0 min 0,000 mm 3,8 UV-I 229 W/m² 6,3 °C 12,0 °C 19,3 km/h (3 Bft)
10.10.2019 13:13 12,1 °C 69 % 1017,7 hPa 0,0 mm 24,1 km/h (4 Bft) W 277 ° 0 min 0,000 mm 3,1 UV-I 272 W/m² 6,6 °C 12,1 °C 40,2 km/h (6 Bft)
10.10.2019 13:14 12,1 °C 68 % 1017,6 hPa 0,0 mm 21,6 km/h (4 Bft) W 270 ° 0 min 0,000 mm 1,7 UV-I 216 W/m² 6,4 °C 12,1 °C 40,2 km/h (6 Bft)
10.10.2019 13:15 12,1 °C 69 % 1017,6 hPa 0,0 mm 21,3 km/h (4 Bft) W-SW 239 ° 0 min 0,000 mm 2,0 UV-I 257 W/m² 6,6 °C 12,1 °C 27,4 km/h (4 Bft)
10.10.2019 13:16 12,0 °C 68 % 1017,5 hPa 0,0 mm 18,3 km/h (3 Bft) NW 308 ° 0 min 0,000 mm 2,0 UV-I 229 W/m² 6,3 °C 12,0 °C 30,6 km/h (5 Bft)
10.10.2019 13:17 11,9 °C 69 % 1017,6 hPa 0,0 mm 19,4 km/h (3 Bft) W-SW 253 ° 0 min 0,000 mm 2,1 UV-I 250 W/m² 6,4 °C 11,9 °C 33,8 km/h (5 Bft)
10.10.2019 13:18 11,9 °C 68 % 1017,7 hPa 0,0 mm 25,9 km/h (4 Bft) W 279 ° 0 min 0,000 mm 3,7 UV-I 257 W/m² 6,2 °C 11,9 °C 33,8 km/h (5 Bft)
10.10.2019 13:19 11,8 °C 67 % 1017,5 hPa 0,0 mm 20,0 km/h (4 Bft) W-NW 288 ° 0 min 0,000 mm 2,1 UV-I 290 W/m² 5,9 °C 11,8 °C 27,4 km/h (4 Bft)
10.10.2019 13:20 11,8 °C 69 % 1017,6 hPa 0,0 mm 19,6 km/h (3 Bft) W 267 ° 0 min 0,000 mm 1,9 UV-I 290 W/m² 6,3 °C 11,8 °C 35,4 km/h (5 Bft)
10.10.2019 13:21 11,7 °C 68 % 1017,5 hPa 0,0 mm 16,8 km/h (3 Bft) W-NW 300 ° 0 min 0,000 mm 2,0 UV-I 193 W/m² 6,0 °C 11,7 °C 25,7 km/h (4 Bft)
10.10.2019 13:22 11,7 °C 70 % 1017,6 hPa 0,0 mm 19,7 km/h (3 Bft) W-SW 246 ° 0 min 0,000 mm 2,1 UV-I 193 W/m² 6,4 °C 11,7 °C 29,0 km/h (5 Bft)
10.10.2019 13:23 11,7 °C 69 % 1017,5 hPa 0,0 mm 21,1 km/h (4 Bft) W-SW 253 ° 0 min 0,000 mm 2,5 UV-I 193 W/m² 6,2 °C 11,7 °C 51,5 km/h (7 Bft)
10.10.2019 13:24 11,7 °C 69 % 1017,6 hPa 0,2 mm 23,7 km/h (4 Bft) W-SW 257 ° 0 min 0,000 mm 2,2 UV-I 193 W/m² 6,2 °C 11,7 °C 51,5 km/h (7 Bft)
10.10.2019 13:25 11,8 °C 69 % 1017,6 hPa 0,0 mm 21,6 km/h (4 Bft) W-NW 298 ° 1 min 0,000 mm 2,0 UV-I 603 W/m² 6,3 °C 11,8 °C 29,0 km/h (5 Bft)
10.10.2019 13:26 11,8 °C 69 % 1017,6 hPa 0,0 mm 24,3 km/h (4 Bft) W 259 ° 1 min 0,000 mm 1,5 UV-I 603 W/m² 6,3 °C 11,8 °C 35,4 km/h (5 Bft)
10.10.2019 13:27 11,8 °C 68 % 1017,5 hPa 0,0 mm 24,5 km/h (4 Bft) W 261 ° 0 min 0,000 mm 1,2 UV-I 174 W/m² 6,1 °C 11,8 °C 32,2 km/h (5 Bft)
10.10.2019 13:28 11,8 °C 69 % 1017,5 hPa 0,0 mm 18,7 km/h (3 Bft) W-NW 297 ° 0 min 0,000 mm 1,0 UV-I 146 W/m² 6,3 °C 11,8 °C 27,4 km/h (4 Bft)
10.10.2019 13:29 11,7 °C 69 % 1017,6 hPa 0,0 mm 12,7 km/h (3 Bft) W-NW 294 ° 0 min 0,000 mm 1,0 UV-I 144 W/m² 6,2 °C 11,7 °C 20,9 km/h (4 Bft)
10.10.2019 13:30 11,7 °C 69 % 1017,6 hPa 0,0 mm 20,4 km/h (4 Bft) W 267 ° 0 min 0,000 mm 0,8 UV-I 98 W/m² 6,2 °C 11,7 °C 37,0 km/h (5 Bft)
10.10.2019 13:31 11,6 °C 68 % 1017,5 hPa 0,0 mm 14,5 km/h (3 Bft) S 171 ° 0 min 0,000 mm 0,7 UV-I 104 W/m² 5,9 °C 11,6 °C 24,1 km/h (4 Bft)
10.10.2019 13:32 11,6 °C 69 % 1017,6 hPa 0,0 mm 19,0 km/h (3 Bft) W-SW 247 ° 0 min 0,000 mm 0,8 UV-I 107 W/m² 6,1 °C 11,6 °C 25,7 km/h (4 Bft)
10.10.2019 13:33 11,4 °C 69 % 1017,5 hPa 0,0 mm 16,5 km/h (3 Bft) W-NW 288 ° 0 min 0,000 mm 0,8 UV-I 102 W/m² 5,9 °C 11,4 °C 30,6 km/h (5 Bft)
10.10.2019 13:34 11,4 °C 69 % 1017,7 hPa 0,0 mm 16,2 km/h (3 Bft) W-NW 284 ° 0 min 0,000 mm 0,7 UV-I 95 W/m² 5,9 °C 11,4 °C 24,1 km/h (4 Bft)
10.10.2019 13:35 11,4 °C 70 % 1017,6 hPa 0,0 mm 21,7 km/h (4 Bft) NW 306 ° 0 min 0,000 mm 0,7 UV-I 91 W/m² 6,1 °C 11,4 °C 30,6 km/h (5 Bft)
10.10.2019 13:36 11,3 °C 70 % 1017,5 hPa 0,0 mm 17,0 km/h (3 Bft) W-NW 301 ° 0 min 0,000 mm 0,7 UV-I 107 W/m² 6,0 °C 11,3 °C 25,7 km/h (4 Bft)
10.10.2019 13:37 11,3 °C 71 % 1017,6 hPa 0,0 mm 12,4 km/h (3 Bft) SW 228 ° 0 min 0,000 mm 0,7 UV-I 105 W/m² 6,2 °C 11,3 °C 19,3 km/h (3 Bft)
10.10.2019 13:38 11,3 °C 70 % 1017,6 hPa 0,0 mm 8,5 km/h (2 Bft) W-SW 249 ° 0 min 0,000 mm 0,7 UV-I 100 W/m² 6,0 °C 11,3 °C 12,9 km/h (3 Bft)
10.10.2019 13:39 11,3 °C 70 % 1017,7 hPa 0,0 mm 20,6 km/h (4 Bft) W 277 ° 0 min 0,000 mm 0,6 UV-I 91 W/m² 6,0 °C 11,3 °C 32,2 km/h (5 Bft)
10.10.2019 13:40 11,2 °C 69 % 1017,8 hPa 0,0 mm 23,5 km/h (4 Bft) W-NW 287 ° 0 min 0,000 mm 0,7 UV-I 91 W/m² 5,7 °C 11,2 °C 38,6 km/h (5 Bft)
10.10.2019 13:41 11,2 °C 70 % 1017,6 hPa 0,0 mm 15,7 km/h (3 Bft) NW 323 ° 0 min 0,000 mm 0,9 UV-I 111 W/m² 5,9 °C 11,2 °C 22,5 km/h (4 Bft)
10.10.2019 13:42 11,2 °C 71 % 1017,7 hPa 0,0 mm 18,3 km/h (3 Bft) W 267 ° 0 min 0,000 mm 1,1 UV-I 155 W/m² 6,1 °C 11,2 °C 38,6 km/h (5 Bft)
10.10.2019 13:43 11,2 °C 70 % 1017,6 hPa 0,0 mm 19,4 km/h (3 Bft) NW 319 ° 0 min 0,000 mm 1,1 UV-I 144 W/m² 5,9 °C 11,2 °C 25,7 km/h (4 Bft)
10.10.2019 13:44 11,2 °C 70 % 1017,6 hPa 0,0 mm 22,3 km/h (4 Bft) W 263 ° 0 min 0,000 mm 1,2 UV-I 142 W/m² 5,9 °C 11,2 °C 32,2 km/h (5 Bft)
10.10.2019 13:45 11,2 °C 71 % 1017,6 hPa 0,0 mm 19,2 km/h (3 Bft) W-NW 292 ° 0 min 0,000 mm 1,4 UV-I 179 W/m² 6,1 °C 11,2 °C 27,4 km/h (4 Bft)
10.10.2019 13:46 11,2 °C 71 % 1017,7 hPa 0,0 mm 21,5 km/h (4 Bft) NW 313 ° 0 min 0,000 mm 1,5 UV-I 204 W/m² 6,1 °C 11,2 °C 32,2 km/h (5 Bft)
10.10.2019 13:47 11,2 °C 72 % 1017,7 hPa 0,0 mm 15,9 km/h (3 Bft) W 281 ° 0 min 0,000 mm 1,5 UV-I 197 W/m² 6,3 °C 11,2 °C 22,5 km/h (4 Bft)
10.10.2019 13:48 11,2 °C 73 % 1017,8 hPa 0,0 mm 29,9 km/h (5 Bft) W 269 ° 0 min 0,000 mm 1,7 UV-I 227 W/m² 6,5 °C 11,2 °C 45,1 km/h (6 Bft)
10.10.2019 13:49 11,2 °C 72 % 1017,8 hPa 0,0 mm 22,6 km/h (4 Bft) S-SO 168 ° 0 min 0,000 mm 1,9 UV-I 272 W/m² 6,3 °C 11,2 °C 35,4 km/h (5 Bft)
10.10.2019 13:50 11,1 °C 72 % 1017,9 hPa 0,0 mm 15,0 km/h (3 Bft) W-NW 298 ° 0 min 0,000 mm 1,9 UV-I 225 W/m² 6,2 °C 11,1 °C 35,4 km/h (5 Bft)
10.10.2019 13:51 11,1 °C 73 % 1017,9 hPa 0,0 mm 20,4 km/h (4 Bft) NW 315 ° 0 min 0,000 mm 1,7 UV-I 186 W/m² 6,4 °C 11,1 °C 32,2 km/h (5 Bft)
10.10.2019 13:52 11,0 °C 73 % 1017,9 hPa 0,0 mm 18,0 km/h (3 Bft) W-NW 290 ° 0 min 0,000 mm 1,6 UV-I 192 W/m² 6,4 °C 11,0 °C 37,0 km/h (5 Bft)
10.10.2019 13:53 10,9 °C 73 % 1017,9 hPa 0,0 mm 24,2 km/h (4 Bft) W 259 ° 0 min 0,000 mm 1,6 UV-I 218 W/m² 6,3 °C 10,9 °C 40,2 km/h (6 Bft)
10.10.2019 13:54 10,8 °C 73 % 1018,0 hPa 0,0 mm 18,5 km/h (3 Bft) W-NW 290 ° 0 min 0,000 mm 1,8 UV-I 236 W/m² 6,2 °C 10,8 °C 29,0 km/h (5 Bft)
10.10.2019 13:55 10,8 °C 74 % 1017,9 hPa 0,0 mm 21,1 km/h (4 Bft) NW 317 ° 0 min 0,000 mm 3,1 UV-I 236 W/m² 6,4 °C 10,8 °C 35,4 km/h (5 Bft)
10.10.2019 13:56 10,9 °C 74 % 1017,9 hPa 0,0 mm 24,7 km/h (4 Bft) NW 306 ° 0 min 0,000 mm 3,0 UV-I 236 W/m² 6,5 °C 10,9 °C 38,6 km/h (5 Bft)
10.10.2019 13:57 10,9 °C 74 % 1017,9 hPa 0,0 mm 19,5 km/h (3 Bft) W 277 ° 0 min 0,000 mm 1,9 UV-I 236 W/m² 6,5 °C 10,9 °C 35,4 km/h (5 Bft)
10.10.2019 13:58 10,9 °C 74 % 1017,8 hPa 0,0 mm 14,8 km/h (3 Bft) N 355 ° 0 min 0,000 mm 1,9 UV-I 207 W/m² 6,5 °C 10,9 °C 19,3 km/h (3 Bft)
10.10.2019 13:59 10,9 °C 73 % 1017,9 hPa 0,0 mm 17,3 km/h (3 Bft) W 280 ° 0 min 0,000 mm 2,0 UV-I 288 W/m² 6,3 °C 10,9 °C 30,6 km/h (5 Bft)
10.10.2019 14:00 10,9 °C 74 % 1017,9 hPa 0,0 mm 11,3 km/h (2 Bft) W-SW 253 ° 0 min 0,000 mm 2,0 UV-I 243 W/m² 6,5 °C 10,9 °C 20,9 km/h (4 Bft)
10.10.2019 14:01 10,9 °C 75 % 1017,9 hPa 0,0 mm 14,1 km/h (3 Bft) NW 314 ° 0 min 0,203 mm 2,4 UV-I 243 W/m² 6,6 °C 10,9 °C 19,3 km/h (3 Bft)
10.10.2019 14:02 10,9 °C 74 % 1017,9 hPa 0,0 mm 19,8 km/h (3 Bft) W-SW 251 ° 0 min 0,000 mm 3,0 UV-I 225 W/m² 6,5 °C 10,9 °C 29,0 km/h (5 Bft)
10.10.2019 14:03 10,9 °C 74 % 1017,9 hPa 0,0 mm 16,1 km/h (3 Bft) W-NW 292 ° 0 min 0,000 mm 3,5 UV-I 225 W/m² 6,5 °C 10,9 °C 22,5 km/h (4 Bft)
10.10.2019 14:04 10,9 °C 75 % 1017,9 hPa 0,0 mm 15,9 km/h (3 Bft) W-NW 291 ° 0 min 0,000 mm 2,1 UV-I 225 W/m² 6,6 °C 10,9 °C 22,5 km/h (4 Bft)
10.10.2019 14:05 11,0 °C 76 % 1017,9 hPa 0,0 mm 13,3 km/h (3 Bft) W-SW 251 ° 0 min 0,000 mm 2,0 UV-I 271 W/m² 6,9 °C 11,0 °C 22,5 km/h (4 Bft)
10.10.2019 14:06 10,9 °C 75 % 1017,9 hPa 0,0 mm 18,4 km/h (3 Bft) NW 306 ° 0 min 0,000 mm 1,8 UV-I 202 W/m² 6,6 °C 10,9 °C 27,4 km/h (4 Bft)
10.10.2019 14:07 10,9 °C 74 % 1017,9 hPa 0,0 mm 18,8 km/h (3 Bft) W 275 ° 0 min 0,000 mm 1,8 UV-I 186 W/m² 6,5 °C 10,9 °C 30,6 km/h (5 Bft)
10.10.2019 14:08 10,9 °C 75 % 1018,0 hPa 0,0 mm 15,0 km/h (3 Bft) W-NW 293 ° 0 min 0,000 mm 1,7 UV-I 209 W/m² 6,6 °C 10,9 °C 27,4 km/h (4 Bft)
10.10.2019 14:09 10,8 °C 75 % 1017,9 hPa 0,0 mm 18,1 km/h (3 Bft) W 262 ° 0 min 0,000 mm 1,7 UV-I 172 W/m² 6,5 °C 10,8 °C 25,7 km/h (4 Bft)
10.10.2019 14:10 10,8 °C 75 % 1017,9 hPa 0,0 mm 19,0 km/h (3 Bft) W 268 ° 0 min 0,000 mm 1,9 UV-I 202 W/m² 6,5 °C 10,8 °C 33,8 km/h (5 Bft)
10.10.2019 14:11 10,8 °C 76 % 1018,0 hPa 0,0 mm 17,0 km/h (3 Bft) W-SW 257 ° 0 min 0,000 mm 1,9 UV-I 176 W/m² 6,7 °C 10,8 °C 24,1 km/h (4 Bft)
10.10.2019 14:12 10,8 °C 75 % 1018,0 hPa 0,0 mm 17,1 km/h (3 Bft) SW 229 ° 0 min 0,000 mm 1,8 UV-I 185 W/m² 6,5 °C 10,8 °C 29,0 km/h (5 Bft)
10.10.2019 14:13 10,7 °C 75 % 1018,0 hPa 0,0 mm 18,7 km/h (3 Bft) W-NW 289 ° 0 min 0,000 mm 1,7 UV-I 197 W/m² 6,5 °C 10,7 °C 29,0 km/h (5 Bft)
10.10.2019 14:14 10,7 °C 75 % 1018,0 hPa 0,0 mm 13,8 km/h (3 Bft) W 265 ° 0 min 0,000 mm 1,7 UV-I 167 W/m² 6,5 °C 10,7 °C 22,5 km/h (4 Bft)
10.10.2019 14:15 10,7 °C 77 % 1017,9 hPa 0,0 mm 10,1 km/h (2 Bft) W 268 ° 0 min 0,000 mm 1,7 UV-I 153 W/m² 6,8 °C 10,7 °C 14,5 km/h (3 Bft)
10.10.2019 14:16 10,7 °C 76 % 1017,9 hPa 0,0 mm 8,7 km/h (2 Bft) W-SW 253 ° 0 min 0,000 mm 1,8 UV-I 186 W/m² 6,6 °C 10,7 °C 17,7 km/h (3 Bft)
10.10.2019 14:17 10,7 °C 76 % 1017,9 hPa 0,0 mm 16,2 km/h (3 Bft) W-SW 250 ° 0 min 0,000 mm 1,8 UV-I 118 W/m² 6,6 °C 10,7 °C 25,7 km/h (4 Bft)
10.10.2019 14:18 10,7 °C 76 % 1017,9 hPa 0,0 mm 15,9 km/h (3 Bft) W-NW 292 ° 0 min 0,000 mm 1,6 UV-I 111 W/m² 6,6 °C 10,7 °C 25,7 km/h (4 Bft)
10.10.2019 14:19 10,6 °C 76 % 1017,9 hPa 0,0 mm 16,8 km/h (3 Bft) NW 325 ° 0 min 0,000 mm 1,7 UV-I 128 W/m² 6,5 °C 10,6 °C 24,1 km/h (4 Bft)
10.10.2019 14:20 10,6 °C 76 % 1017,8 hPa 0,0 mm 16,5 km/h (3 Bft) W-NW 297 ° 0 min 0,000 mm 1,7 UV-I 130 W/m² 6,5 °C 10,6 °C 27,4 km/h (4 Bft)
10.10.2019 14:21 10,6 °C 76 % 1017,8 hPa 0,0 mm 12,3 km/h (3 Bft) NW 309 ° 0 min 0,000 mm 1,8 UV-I 137 W/m² 6,5 °C 10,6 °C 19,3 km/h (3 Bft)
10.10.2019 14:23 10,6 °C 76 % 1017,8 hPa 0,0 mm 16,7 km/h (3 Bft) W 267 ° 0 min 0,000 mm 1,8 UV-I 116 W/m² 6,5 °C 10,6 °C 29,0 km/h (5 Bft)
10.10.2019 14:24 10,6 °C 76 % 1017,8 hPa 0,0 mm 18,0 km/h (3 Bft) W-NW 300 ° 0 min 0,000 mm 1,7 UV-I 116 W/m² 6,5 °C 10,6 °C 22,5 km/h (4 Bft)
10.10.2019 14:25 10,6 °C 76 % 1017,9 hPa 0,0 mm 12,9 km/h (3 Bft) W 276 ° 0 min 0,000 mm 3,0 UV-I 116 W/m² 6,5 °C 10,6 °C 20,9 km/h (4 Bft)
10.10.2019 14:26 10,7 °C 76 % 1017,8 hPa 0,0 mm 20,7 km/h (4 Bft) NW 307 ° 1 min 0,000 mm 3,2 UV-I 652 W/m² 6,6 °C 10,7 °C 29,0 km/h (5 Bft)
10.10.2019 14:27 10,7 °C 76 % 1017,9 hPa 0,0 mm 19,2 km/h (3 Bft) W-NW 296 ° 1 min 0,000 mm 2,2 UV-I 652 W/m² 6,6 °C 10,7 °C 30,6 km/h (5 Bft)
10.10.2019 14:28 10,9 °C 76 % 1017,9 hPa 0,0 mm 13,9 km/h (3 Bft) W-NW 298 ° 1 min 0,000 mm 3,2 UV-I 652 W/m² 6,8 °C 10,9 °C 27,4 km/h (4 Bft)
10.10.2019 14:29 11,0 °C 76 % 1017,8 hPa 0,0 mm 15,4 km/h (3 Bft) W 265 ° 0 min 0,000 mm 3,1 UV-I 594 W/m² 6,9 °C 11,0 °C 24,1 km/h (4 Bft)
10.10.2019 14:30 11,1 °C 75 % 1017,8 hPa 0,0 mm 15,4 km/h (3 Bft) SW 226 ° 0 min 0,000 mm 2,8 UV-I 594 W/m² 6,8 °C 11,1 °C 20,9 km/h (4 Bft)
10.10.2019 14:31 11,2 °C 75 % 1017,9 hPa 0,0 mm 17,5 km/h (3 Bft) W 279 ° 0 min 0,000 mm 1,7 UV-I 104 W/m² 6,9 °C 11,2 °C 29,0 km/h (5 Bft)
10.10.2019 14:32 11,2 °C 73 % 1017,9 hPa 0,0 mm 22,4 km/h (4 Bft) W-SW 251 ° 0 min 0,000 mm 1,7 UV-I 113 W/m² 6,5 °C 11,2 °C 30,6 km/h (5 Bft)
10.10.2019 14:33 11,1 °C 72 % 1017,8 hPa 0,0 mm 22,3 km/h (4 Bft) W 267 ° 0 min 0,000 mm 2,0 UV-I 113 W/m² 6,2 °C 11,1 °C 32,2 km/h (5 Bft)
10.10.2019 14:34 11,1 °C 72 % 1018,0 hPa 0,0 mm 23,4 km/h (4 Bft) W-NW 298 ° 0 min 0,000 mm 1,7 UV-I 113 W/m² 6,2 °C 11,1 °C 37,0 km/h (5 Bft)
10.10.2019 14:35 10,9 °C 72 % 1017,9 hPa 0,0 mm 17,1 km/h (3 Bft) W-SW 256 ° 0 min 0,000 mm 2,0 UV-I 183 W/m² 6,1 °C 10,9 °C 27,4 km/h (4 Bft)
10.10.2019 14:36 10,9 °C 72 % 1017,9 hPa 0,0 mm 15,1 km/h (3 Bft) W 259 ° 0 min 0,000 mm 1,8 UV-I 183 W/m² 6,1 °C 10,9 °C 22,5 km/h (4 Bft)
10.10.2019 14:37 10,9 °C 72 % 1017,9 hPa 0,0 mm 24,9 km/h (4 Bft) W-SW 254 ° 0 min 0,000 mm 2,2 UV-I 251 W/m² 6,1 °C 10,9 °C 38,6 km/h (5 Bft)
10.10.2019 14:38 10,9 °C 73 % 1018,0 hPa 0,0 mm 22,2 km/h (4 Bft) W 275 ° 0 min 0,000 mm 2,4 UV-I 251 W/m² 6,3 °C 10,9 °C 37,0 km/h (5 Bft)
10.10.2019 14:39 10,9 °C 73 % 1018,0 hPa 0,0 mm 21,1 km/h (4 Bft) W-NW 289 ° 1 min 0,000 mm 2,9 UV-I 622 W/m² 6,3 °C 10,9 °C 30,6 km/h (5 Bft)
10.10.2019 14:40 10,9 °C 73 % 1018,0 hPa 0,0 mm 14,6 km/h (3 Bft) NW 307 ° 1 min 0,000 mm 1,9 UV-I 622 W/m² 6,3 °C 10,9 °C 24,1 km/h (4 Bft)
10.10.2019 14:41 10,9 °C 73 % 1018,0 hPa 0,0 mm 21,1 km/h (4 Bft) W 270 ° 0 min 0,000 mm 1,6 UV-I 237 W/m² 6,3 °C 10,9 °C 29,0 km/h (5 Bft)
10.10.2019 14:42 10,9 °C 72 % 1018,0 hPa 0,0 mm 16,4 km/h (3 Bft) W 275 ° 0 min 0,000 mm 2,7 UV-I 237 W/m² 6,1 °C 10,9 °C 24,1 km/h (4 Bft)
10.10.2019 14:43 10,9 °C 73 % 1018,0 hPa 0,0 mm 14,8 km/h (3 Bft) W 271 ° 0 min 0,000 mm 1,9 UV-I 237 W/m² 6,3 °C 10,9 °C 22,5 km/h (4 Bft)
10.10.2019 14:44 11,0 °C 73 % 1018,1 hPa 0,0 mm 15,6 km/h (3 Bft) W-NW 295 ° 0 min 0,000 mm 1,7 UV-I 186 W/m² 6,4 °C 11,0 °C 32,2 km/h (5 Bft)
10.10.2019 14:45 10,9 °C 74 % 1018,2 hPa 0,0 mm 19,8 km/h (3 Bft) W 275 ° 0 min 0,000 mm 1,6 UV-I 172 W/m² 6,5 °C 10,9 °C 30,6 km/h (5 Bft)
10.10.2019 14:46 10,9 °C 73 % 1018,1 hPa 0,0 mm 17,9 km/h (3 Bft) W-NW 293 ° 0 min 0,000 mm 1,6 UV-I 172 W/m² 6,3 °C 10,9 °C 25,7 km/h (4 Bft)
10.10.2019 14:47 10,9 °C 73 % 1018,0 hPa 0,0 mm 13,7 km/h (3 Bft) NW 313 ° 0 min 0,000 mm 1,5 UV-I 139 W/m² 6,3 °C 10,9 °C 16,1 km/h (3 Bft)
10.10.2019 14:48 10,8 °C 73 % 1018,2 hPa 0,0 mm 20,7 km/h (4 Bft) SW 229 ° 0 min 0,000 mm 1,6 UV-I 185 W/m² 6,2 °C 10,8 °C 41,8 km/h (6 Bft)
10.10.2019 14:49 10,8 °C 73 % 1018,2 hPa 0,0 mm 23,9 km/h (4 Bft) NW 317 ° 0 min 0,000 mm 1,5 UV-I 163 W/m² 6,2 °C 10,8 °C 33,8 km/h (5 Bft)
10.10.2019 14:50 10,8 °C 73 % 1018,0 hPa 0,0 mm 22,6 km/h (4 Bft) W-NW 296 ° 0 min 0,000 mm 1,5 UV-I 176 W/m² 6,2 °C 10,8 °C 32,2 km/h (5 Bft)
10.10.2019 14:51 10,7 °C 73 % 1018,2 hPa 0,0 mm 25,3 km/h (4 Bft) W 259 ° 0 min 0,000 mm 1,5 UV-I 185 W/m² 6,1 °C 10,7 °C 43,5 km/h (6 Bft)
10.10.2019 14:52 10,7 °C 74 % 1018,3 hPa 0,0 mm 19,8 km/h (3 Bft) W-SW 245 ° 0 min 0,000 mm 1,5 UV-I 171 W/m² 6,3 °C 10,7 °C 30,6 km/h (5 Bft)
10.10.2019 14:53 10,7 °C 74 % 1018,2 hPa 0,0 mm 16,4 km/h (3 Bft) W 277 ° 0 min 0,000 mm 1,6 UV-I 165 W/m² 6,3 °C 10,7 °C 24,1 km/h (4 Bft)
10.10.2019 14:54 10,6 °C 74 % 1018,2 hPa 0,0 mm 21,1 km/h (4 Bft) W-NW 290 ° 0 min 0,000 mm 1,9 UV-I 165 W/m² 6,2 °C 10,6 °C 30,6 km/h (5 Bft)
10.10.2019 14:55 10,6 °C 74 % 1018,1 hPa 0,0 mm 16,0 km/h (3 Bft) W 273 ° 0 min 0,000 mm 1,9 UV-I 223 W/m² 6,2 °C 10,6 °C 32,2 km/h (5 Bft)
10.10.2019 14:56 10,6 °C 74 % 1018,1 hPa 0,2 mm 27,6 km/h (4 Bft) W 259 ° 0 min 0,000 mm 2,0 UV-I 297 W/m² 6,2 °C 10,6 °C 41,8 km/h (6 Bft)
10.10.2019 14:57 10,6 °C 74 % 1018,2 hPa 0,0 mm 21,1 km/h (4 Bft) W-NW 302 ° 0 min 0,000 mm 1,8 UV-I 366 W/m² 6,2 °C 10,6 °C 38,6 km/h (5 Bft)
10.10.2019 14:58 10,6 °C 74 % 1018,2 hPa 0,0 mm 18,7 km/h (3 Bft) W-NW 292 ° 0 min 0,000 mm 1,8 UV-I 146 W/m² 6,2 °C 10,6 °C 24,1 km/h (4 Bft)
10.10.2019 14:59 10,6 °C 74 % 1018,0 hPa 0,0 mm 23,9 km/h (4 Bft) W-SW 250 ° 0 min 0,000 mm 1,6 UV-I 216 W/m² 6,2 °C 10,6 °C 37,0 km/h (5 Bft)
10.10.2019 15:00 10,6 °C 75 % 1018,1 hPa 0,0 mm 22,3 km/h (4 Bft) W 276 ° 0 min 0,000 mm 2,7 UV-I 216 W/m² 6,4 °C 10,6 °C 29,0 km/h (5 Bft)
10.10.2019 15:01 10,6 °C 75 % 1018,0 hPa 0,0 mm 21,7 km/h (4 Bft) W 266 ° 0 min 0,152 mm 2,6 UV-I 513 W/m² 6,4 °C 10,6 °C 38,6 km/h (5 Bft)
10.10.2019 15:02 10,7 °C 75 % 1018,2 hPa 0,0 mm 21,2 km/h (4 Bft) W-SW 252 ° 0 min 0,000 mm 2,7 UV-I 513 W/m² 6,5 °C 10,7 °C 27,4 km/h (4 Bft)
10.10.2019 15:03 10,7 °C 75 % 1018,0 hPa 0,0 mm 25,7 km/h (4 Bft) W-SW 251 ° 0 min 0,000 mm 2,7 UV-I 485 W/m² 6,5 °C 10,7 °C 37,0 km/h (5 Bft)
10.10.2019 15:04 10,7 °C 75 % 1018,0 hPa 0,0 mm 16,7 km/h (3 Bft) W 268 ° 0 min 0,000 mm 2,6 UV-I 496 W/m² 6,5 °C 10,7 °C 24,1 km/h (4 Bft)
10.10.2019 15:05 10,7 °C 76 % 1018,0 hPa 0,0 mm 15,7 km/h (3 Bft) W-SW 258 ° 0 min 0,000 mm 2,0 UV-I 496 W/m² 6,6 °C 10,7 °C 29,0 km/h (5 Bft)
10.10.2019 15:06 10,8 °C 76 % 1018,0 hPa 0,0 mm 20,5 km/h (4 Bft) W 259 ° 0 min 0,000 mm 2,5 UV-I 496 W/m² 6,7 °C 10,8 °C 25,7 km/h (4 Bft)
10.10.2019 15:07 10,8 °C 75 % 1018,0 hPa 0,0 mm 18,7 km/h (3 Bft) W 264 ° 0 min 0,000 mm 2,5 UV-I 497 W/m² 6,5 °C 10,8 °C 24,1 km/h (4 Bft)
10.10.2019 15:08 10,8 °C 75 % 1017,9 hPa 0,0 mm 21,3 km/h (4 Bft) W 268 ° 0 min 0,000 mm 2,5 UV-I 492 W/m² 6,5 °C 10,8 °C 29,0 km/h (5 Bft)
10.10.2019 15:09 10,8 °C 75 % 1017,9 hPa 0,0 mm 17,0 km/h (3 Bft) W 277 ° 0 min 0,000 mm 2,5 UV-I 487 W/m² 6,5 °C 10,8 °C 24,1 km/h (4 Bft)
10.10.2019 15:10 10,8 °C 75 % 1018,0 hPa 0,0 mm 16,0 km/h (3 Bft) W 259 ° 0 min 0,000 mm 2,5 UV-I 490 W/m² 6,5 °C 10,8 °C 30,6 km/h (5 Bft)
10.10.2019 15:11 10,9 °C 75 % 1017,9 hPa 0,0 mm 12,6 km/h (3 Bft) W-NW 286 ° 0 min 0,000 mm 1,8 UV-I 492 W/m² 6,6 °C 10,9 °C 17,7 km/h (3 Bft)
10.10.2019 15:12 10,9 °C 75 % 1018,0 hPa 0,0 mm 14,4 km/h (3 Bft) W-NW 286 ° 0 min 0,000 mm 1,5 UV-I 100 W/m² 6,6 °C 10,9 °C 20,9 km/h (4 Bft)
10.10.2019 15:13 10,9 °C 75 % 1018,0 hPa 0,0 mm 15,0 km/h (3 Bft) W-SW 244 ° 0 min 0,000 mm 2,4 UV-I 100 W/m² 6,6 °C 10,9 °C 20,9 km/h (4 Bft)
10.10.2019 15:14 10,8 °C 75 % 1018,1 hPa 0,0 mm 21,1 km/h (4 Bft) W 271 ° 0 min 0,000 mm 2,4 UV-I 100 W/m² 6,5 °C 10,8 °C 37,0 km/h (5 Bft)
10.10.2019 15:15 10,8 °C 75 % 1017,9 hPa 0,0 mm 18,4 km/h (3 Bft) W 265 ° 0 min 0,000 mm 2,3 UV-I 100 W/m² 6,5 °C 10,8 °C 27,4 km/h (4 Bft)
10.10.2019 15:16 10,8 °C 75 % 1017,9 hPa 0,0 mm 17,3 km/h (3 Bft) W 267 ° 0 min 0,000 mm 2,1 UV-I 385 W/m² 6,5 °C 10,8 °C 25,7 km/h (4 Bft)
10.10.2019 15:17 10,8 °C 75 % 1018,0 hPa 0,0 mm 18,0 km/h (3 Bft) W 271 ° 0 min 0,000 mm 2,4 UV-I 448 W/m² 6,5 °C 10,8 °C 27,4 km/h (4 Bft)
10.10.2019 15:18 10,8 °C 75 % 1018,0 hPa 0,0 mm 16,5 km/h (3 Bft) SW 222 ° 0 min 0,000 mm 2,4 UV-I 483 W/m² 6,5 °C 10,8 °C 24,1 km/h (4 Bft)
10.10.2019 15:19 10,8 °C 75 % 1018,1 hPa 0,0 mm 18,7 km/h (3 Bft) W 267 ° 0 min 0,000 mm 2,4 UV-I 506 W/m² 6,5 °C 10,8 °C 29,0 km/h (5 Bft)
10.10.2019 15:20 10,8 °C 76 % 1018,0 hPa 0,0 mm 12,1 km/h (2 Bft) W-NW 284 ° 0 min 0,000 mm 2,4 UV-I 524 W/m² 6,7 °C 10,8 °C 19,3 km/h (3 Bft)
10.10.2019 15:21 10,9 °C 76 % 1018,1 hPa 0,0 mm 13,7 km/h (3 Bft) NW 304 ° 0 min 0,000 mm 2,4 UV-I 554 W/m² 6,8 °C 10,9 °C 17,7 km/h (3 Bft)
10.10.2019 15:22 10,9 °C 76 % 1018,1 hPa 0,0 mm 14,0 km/h (3 Bft) W 263 ° 0 min 0,000 mm 1,7 UV-I 148 W/m² 6,8 °C 10,9 °C 22,5 km/h (4 Bft)
10.10.2019 15:23 10,9 °C 76 % 1018,0 hPa 0,0 mm 21,8 km/h (4 Bft) NW 308 ° 0 min 0,000 mm 1,5 UV-I 151 W/m² 6,8 °C 10,9 °C 33,8 km/h (5 Bft)
10.10.2019 15:24 10,9 °C 75 % 1018,1 hPa 0,0 mm 18,3 km/h (3 Bft) W 263 ° 0 min 0,000 mm 1,5 UV-I 127 W/m² 6,6 °C 10,9 °C 29,0 km/h (5 Bft)
10.10.2019 15:25 10,9 °C 75 % 1018,0 hPa 0,0 mm 14,1 km/h (3 Bft) W 266 ° 0 min 0,000 mm 1,4 UV-I 114 W/m² 6,6 °C 10,9 °C 20,9 km/h (4 Bft)
10.10.2019 15:26 10,8 °C 75 % 1018,0 hPa 0,0 mm 20,2 km/h (4 Bft) W 281 ° 0 min 0,000 mm 1,6 UV-I 151 W/m² 6,5 °C 10,8 °C 27,4 km/h (4 Bft)
10.10.2019 15:27 10,8 °C 75 % 1018,1 hPa 0,0 mm 19,3 km/h (3 Bft) N-NW 340 ° 0 min 0,000 mm 1,8 UV-I 132 W/m² 6,5 °C 10,8 °C 25,7 km/h (4 Bft)
10.10.2019 15:28 10,8 °C 76 % 1018,1 hPa 0,0 mm 12,9 km/h (3 Bft) W 265 ° 0 min 0,000 mm 2,2 UV-I 244 W/m² 6,7 °C 10,8 °C 19,3 km/h (3 Bft)
10.10.2019 15:29 10,8 °C 76 % 1018,1 hPa 0,0 mm 16,4 km/h (3 Bft) SW 231 ° 0 min 0,000 mm 1,9 UV-I 186 W/m² 6,7 °C 10,8 °C 20,9 km/h (4 Bft)
10.10.2019 15:30 10,8 °C 75 % 1018,1 hPa 0,0 mm 19,9 km/h (4 Bft) W 264 ° 0 min 0,000 mm 2,3 UV-I 186 W/m² 6,5 °C 10,8 °C 29,0 km/h (5 Bft)
10.10.2019 15:31 10,8 °C 75 % 1018,1 hPa 0,0 mm 18,4 km/h (3 Bft) NW 309 ° 0 min 0,000 mm 2,2 UV-I 476 W/m² 6,5 °C 10,8 °C 27,4 km/h (4 Bft)
10.10.2019 15:32 10,8 °C 76 % 1018,1 hPa 0,0 mm 15,1 km/h (3 Bft) W-SW 253 ° 0 min 0,000 mm 1,7 UV-I 476 W/m² 6,7 °C 10,8 °C 19,3 km/h (3 Bft)
10.10.2019 15:33 10,9 °C 76 % 1018,0 hPa 0,0 mm 16,8 km/h (3 Bft) W-SW 258 ° 0 min 0,000 mm 1,4 UV-I 476 W/m² 6,8 °C 10,9 °C 25,7 km/h (4 Bft)
10.10.2019 15:34 10,9 °C 75 % 1018,1 hPa 0,0 mm 18,6 km/h (3 Bft) W 265 ° 0 min 0,000 mm 1,7 UV-I 135 W/m² 6,6 °C 10,9 °C 38,6 km/h (5 Bft)
10.10.2019 15:35 10,9 °C 75 % 1018,2 hPa 0,0 mm 13,3 km/h (3 Bft) W 259 ° 0 min 0,000 mm 2,2 UV-I 473 W/m² 6,6 °C 10,9 °C 19,3 km/h (3 Bft)
10.10.2019 15:36 10,9 °C 75 % 1018,1 hPa 0,0 mm 13,8 km/h (3 Bft) NW 307 ° 0 min 0,000 mm 2,1 UV-I 468 W/m² 6,6 °C 10,9 °C 19,3 km/h (3 Bft)
10.10.2019 15:37 11,0 °C 75 % 1018,0 hPa 0,0 mm 16,2 km/h (3 Bft) W 260 ° 0 min 0,000 mm 2,1 UV-I 468 W/m² 6,7 °C 11,0 °C 20,9 km/h (4 Bft)
10.10.2019 15:38 11,0 °C 76 % 1018,0 hPa 0,0 mm 13,4 km/h (3 Bft) W 259 ° 0 min 0,000 mm 1,6 UV-I 387 W/m² 6,9 °C 11,0 °C 20,9 km/h (4 Bft)
10.10.2019 15:39 11,0 °C 75 % 1018,1 hPa 0,0 mm 18,7 km/h (3 Bft) W-NW 284 ° 0 min 0,000 mm 1,3 UV-I 387 W/m² 6,7 °C 11,0 °C 24,1 km/h (4 Bft)
10.10.2019 15:40 11,1 °C 74 % 1018,0 hPa 0,0 mm 13,9 km/h (3 Bft) W 279 ° 0 min 0,000 mm 2,1 UV-I 387 W/m² 6,6 °C 11,1 °C 19,3 km/h (3 Bft)
10.10.2019 15:41 11,0 °C 75 % 1018,2 hPa 0,0 mm 11,6 km/h (2 Bft) W 268 ° 0 min 0,000 mm 1,3 UV-I 387 W/m² 6,7 °C 11,0 °C 17,7 km/h (3 Bft)
10.10.2019 15:42 11,0 °C 75 % 1018,1 hPa 0,0 mm 10,0 km/h (2 Bft) W-SW 240 ° 0 min 0,000 mm 1,5 UV-I 169 W/m² 6,7 °C 11,0 °C 17,7 km/h (3 Bft)
10.10.2019 15:43 11,0 °C 75 % 1018,1 hPa 0,0 mm 14,4 km/h (3 Bft) W 272 ° 0 min 0,000 mm 2,0 UV-I 169 W/m² 6,7 °C 11,0 °C 33,8 km/h (5 Bft)
10.10.2019 15:44 11,0 °C 74 % 1018,2 hPa 0,0 mm 19,9 km/h (4 Bft) W-NW 288 ° 0 min 0,000 mm 1,6 UV-I 169 W/m² 6,5 °C 11,0 °C 30,6 km/h (5 Bft)
10.10.2019 15:45 11,0 °C 74 % 1018,1 hPa 0,0 mm 23,7 km/h (4 Bft) W 259 ° 0 min 0,000 mm 1,3 UV-I 151 W/m² 6,5 °C 11,0 °C 29,0 km/h (5 Bft)
10.10.2019 15:46 11,0 °C 74 % 1018,2 hPa 0,0 mm 10,7 km/h (2 Bft) SW 215 ° 0 min 0,000 mm 1,8 UV-I 239 W/m² 6,5 °C 11,0 °C 25,7 km/h (4 Bft)
10.10.2019 15:47 11,0 °C 73 % 1017,9 hPa 0,0 mm 14,7 km/h (3 Bft) W 265 ° 0 min 0,000 mm 1,9 UV-I 225 W/m² 6,4 °C 11,0 °C 20,9 km/h (4 Bft)
10.10.2019 15:48 11,0 °C 73 % 1018,1 hPa 0,0 mm 11,2 km/h (2 Bft) W 281 ° 0 min 0,000 mm 1,5 UV-I 225 W/m² 6,4 °C 11,0 °C 17,7 km/h (3 Bft)
10.10.2019 15:49 11,0 °C 74 % 1018,1 hPa 0,0 mm 15,8 km/h (3 Bft) W 267 ° 0 min 0,000 mm 1,9 UV-I 225 W/m² 6,5 °C 11,0 °C 29,0 km/h (5 Bft)
10.10.2019 15:50 11,0 °C 73 % 1018,0 hPa 0,0 mm 19,8 km/h (3 Bft) W 275 ° 0 min 0,000 mm 1,6 UV-I 225 W/m² 6,4 °C 11,0 °C 27,4 km/h (4 Bft)
10.10.2019 15:51 11,0 °C 74 % 1018,1 hPa 0,0 mm 20,0 km/h (4 Bft) W-NW 296 ° 0 min 0,000 mm 1,2 UV-I 98 W/m² 6,5 °C 11,0 °C 25,7 km/h (4 Bft)
10.10.2019 15:52 11,0 °C 73 % 1018,2 hPa 0,0 mm 14,3 km/h (3 Bft) W 271 ° 0 min 0,000 mm 1,3 UV-I 125 W/m² 6,4 °C 11,0 °C 19,3 km/h (3 Bft)
10.10.2019 15:53 10,9 °C 73 % 1018,2 hPa 0,0 mm 14,6 km/h (3 Bft) W-SW 254 ° 0 min 0,000 mm 1,3 UV-I 125 W/m² 6,3 °C 10,9 °C 17,7 km/h (3 Bft)
10.10.2019 15:54 10,9 °C 73 % 1018,2 hPa 0,0 mm 14,6 km/h (3 Bft) W 269 ° 0 min 0,000 mm 1,3 UV-I 169 W/m² 6,3 °C 10,9 °C 19,3 km/h (3 Bft)
10.10.2019 15:55 10,9 °C 73 % 1018,2 hPa 0,0 mm 17,3 km/h (3 Bft) W-NW 284 ° 0 min 0,000 mm 1,1 UV-I 155 W/m² 6,3 °C 10,9 °C 22,5 km/h (4 Bft)
10.10.2019 15:56 10,9 °C 74 % 1018,2 hPa 0,0 mm 14,0 km/h (3 Bft) W 271 ° 0 min 0,000 mm 1,1 UV-I 148 W/m² 6,5 °C 10,9 °C 19,3 km/h (3 Bft)
10.10.2019 15:57 10,9 °C 74 % 1018,3 hPa 0,0 mm 15,2 km/h (3 Bft) W 269 ° 0 min 0,000 mm 1,1 UV-I 132 W/m² 6,5 °C 10,9 °C 20,9 km/h (4 Bft)
10.10.2019 15:58 10,9 °C 74 % 1018,3 hPa 0,0 mm 8,6 km/h (2 Bft) W 271 ° 0 min 0,000 mm 0,9 UV-I 128 W/m² 6,5 °C 10,9 °C 17,7 km/h (3 Bft)
10.10.2019 15:59 11,0 °C 75 % 1018,3 hPa 0,0 mm 15,6 km/h (3 Bft) W 259 ° 0 min 0,000 mm 0,9 UV-I 123 W/m² 6,7 °C 11,0 °C 27,4 km/h (4 Bft)
10.10.2019 16:00 10,9 °C 76 % 1018,3 hPa 0,0 mm 12,7 km/h (3 Bft) W-NW 302 ° 0 min 0,000 mm 0,9 UV-I 135 W/m² 6,8 °C 10,9 °C 19,3 km/h (3 Bft)
10.10.2019 16:01 10,9 °C 75 % 1018,3 hPa 0,0 mm 9,1 km/h (2 Bft) W 263 ° 0 min 0,178 mm 1,0 UV-I 139 W/m² 6,6 °C 10,9 °C 12,9 km/h (3 Bft)
10.10.2019 16:02 10,9 °C 76 % 1018,4 hPa 0,0 mm 13,7 km/h (3 Bft) W-NW 295 ° 0 min 0,000 mm 0,9 UV-I 104 W/m² 6,8 °C 10,9 °C 19,3 km/h (3 Bft)
10.10.2019 16:03 10,8 °C 76 % 1018,4 hPa 0,0 mm 18,2 km/h (3 Bft) W 273 ° 0 min 0,000 mm 0,9 UV-I 69 W/m² 6,7 °C 10,8 °C 24,1 km/h (4 Bft)
10.10.2019 16:04 10,8 °C 76 % 1018,5 hPa 0,0 mm 15,3 km/h (3 Bft) W-NW 283 ° 0 min 0,000 mm 0,8 UV-I 65 W/m² 6,7 °C 10,8 °C 25,7 km/h (4 Bft)
10.10.2019 16:05 10,8 °C 76 % 1018,5 hPa 0,0 mm 18,2 km/h (3 Bft) W 265 ° 0 min 0,000 mm 0,8 UV-I 79 W/m² 6,7 °C 10,8 °C 33,8 km/h (5 Bft)
10.10.2019 16:06 10,7 °C 77 % 1018,4 hPa 0,0 mm 26,0 km/h (4 Bft) W-SW 256 ° 0 min 0,000 mm 0,9 UV-I 105 W/m² 6,8 °C 10,7 °C 38,6 km/h (5 Bft)
10.10.2019 16:07 10,6 °C 77 % 1018,5 hPa 0,0 mm 13,3 km/h (3 Bft) W-NW 303 ° 0 min 0,000 mm 1,0 UV-I 121 W/m² 6,7 °C 10,6 °C 32,2 km/h (5 Bft)
10.10.2019 16:08 10,4 °C 78 % 1018,5 hPa 0,0 mm 24,6 km/h (4 Bft) W 263 ° 0 min 0,000 mm 1,1 UV-I 118 W/m² 6,7 °C 10,4 °C 40,2 km/h (6 Bft)
10.10.2019 16:09 10,3 °C 78 % 1018,4 hPa 0,0 mm 20,9 km/h (4 Bft) W-NW 300 ° 0 min 0,000 mm 1,0 UV-I 62 W/m² 6,6 °C 10,3 °C 29,0 km/h (5 Bft)
10.10.2019 16:10 10,2 °C 79 % 1018,4 hPa 0,0 mm 20,3 km/h (4 Bft) NW 309 ° 0 min 0,000 mm 1,0 UV-I 62 W/m² 6,7 °C 10,2 °C 35,4 km/h (5 Bft)
10.10.2019 16:11 10,1 °C 79 % 1018,4 hPa 0,0 mm 20,3 km/h (4 Bft) W-NW 293 ° 0 min 0,000 mm 1,0 UV-I 63 W/m² 6,6 °C 10,1 °C 25,7 km/h (4 Bft)
10.10.2019 16:12 10,0 °C 80 % 1018,4 hPa 0,0 mm 19,5 km/h (3 Bft) W 273 ° 0 min 0,000 mm 1,0 UV-I 90 W/m² 6,7 °C 7,4 °C 32,2 km/h (5 Bft)
10.10.2019 16:13 9,9 °C 80 % 1018,4 hPa 0,0 mm 20,6 km/h (4 Bft) W-NW 297 ° 0 min 0,000 mm 1,1 UV-I 151 W/m² 6,6 °C 7,2 °C 29,0 km/h (5 Bft)
10.10.2019 16:14 9,9 °C 80 % 1018,4 hPa 0,0 mm 18,9 km/h (3 Bft) W-SW 245 ° 0 min 0,000 mm 1,1 UV-I 125 W/m² 6,6 °C 7,4 °C 30,6 km/h (5 Bft)
10.10.2019 16:15 9,9 °C 80 % 1018,4 hPa 0,0 mm 12,7 km/h (3 Bft) W-SW 246 ° 0 min 0,000 mm 1,1 UV-I 130 W/m² 6,6 °C 8,1 °C 27,4 km/h (4 Bft)
10.10.2019 16:16 9,8 °C 81 % 1018,4 hPa 0,0 mm 20,7 km/h (4 Bft) W 262 ° 0 min 0,000 mm 1,1 UV-I 171 W/m² 6,7 °C 7,1 °C 27,4 km/h (4 Bft)
10.10.2019 16:17 9,8 °C 81 % 1018,3 hPa 0,0 mm 19,5 km/h (3 Bft) W 270 ° 0 min 0,000 mm 1,0 UV-I 76 W/m² 6,7 °C 7,2 °C 27,4 km/h (4 Bft)
10.10.2019 16:18 9,8 °C 80 % 1018,3 hPa 0,0 mm 19,8 km/h (3 Bft) W 271 ° 0 min 0,000 mm 1,0 UV-I 67 W/m² 6,5 °C 7,1 °C 27,4 km/h (4 Bft)
10.10.2019 16:19 9,8 °C 80 % 1018,3 hPa 0,0 mm 9,7 km/h (2 Bft) W-SW 248 ° 0 min 0,000 mm 1,0 UV-I 65 W/m² 6,5 °C 8,4 °C 16,1 km/h (3 Bft)
10.10.2019 16:20 9,8 °C 80 % 1018,3 hPa 0,0 mm 15,9 km/h (3 Bft) W-SW 253 ° 0 min 0,000 mm 1,1 UV-I 141 W/m² 6,5 °C 7,6 °C 24,1 km/h (4 Bft)
10.10.2019 16:21 9,8 °C 80 % 1018,3 hPa 0,0 mm 19,4 km/h (3 Bft) W 279 ° 0 min 0,000 mm 1,0 UV-I 72 W/m² 6,5 °C 7,2 °C 29,0 km/h (5 Bft)
10.10.2019 16:22 9,8 °C 81 % 1018,3 hPa 0,0 mm 11,9 km/h (2 Bft) SW 225 ° 0 min 0,000 mm 1,0 UV-I 86 W/m² 6,7 °C 8,1 °C 17,7 km/h (3 Bft)
10.10.2019 16:23 9,8 °C 81 % 1018,3 hPa 0,0 mm 14,4 km/h (3 Bft) W-SW 248 ° 0 min 0,000 mm 0,9 UV-I 58 W/m² 6,7 °C 7,7 °C 20,9 km/h (4 Bft)
10.10.2019 16:24 9,8 °C 81 % 1018,3 hPa 0,0 mm 12,1 km/h (2 Bft) W 279 ° 0 min 0,000 mm 0,9 UV-I 58 W/m² 6,7 °C 8,1 °C 20,9 km/h (4 Bft)
10.10.2019 16:25 9,8 °C 81 % 1018,3 hPa 0,0 mm 8,0 km/h (2 Bft) W-NW 300 ° 0 min 0,000 mm 1,0 UV-I 79 W/m² 6,7 °C 8,8 °C 14,5 km/h (3 Bft)
10.10.2019 16:26 9,8 °C 81 % 1018,3 hPa 0,0 mm 9,5 km/h (2 Bft) W 274 ° 0 min 0,000 mm 1,0 UV-I 91 W/m² 6,7 °C 8,5 °C 14,5 km/h (3 Bft)
10.10.2019 16:27 9,8 °C 81 % 1018,3 hPa 0,0 mm 11,9 km/h (2 Bft) W-NW 288 ° 0 min 0,000 mm 0,9 UV-I 79 W/m² 6,7 °C 8,1 °C 20,9 km/h (4 Bft)
10.10.2019 16:28 9,8 °C 81 % 1018,3 hPa 0,0 mm 9,7 km/h (2 Bft) W 275 ° 0 min 0,000 mm 0,9 UV-I 58 W/m² 6,7 °C 8,4 °C 16,1 km/h (3 Bft)
10.10.2019 16:29 9,8 °C 81 % 1018,3 hPa 0,0 mm 15,3 km/h (3 Bft) W-NW 285 ° 0 min 0,000 mm 0,9 UV-I 56 W/m² 6,7 °C 7,6 °C 20,9 km/h (4 Bft)
10.10.2019 16:30 9,8 °C 80 % 1018,3 hPa 0,0 mm 17,8 km/h (3 Bft) W 263 ° 0 min 0,000 mm 0,9 UV-I 63 W/m² 6,5 °C 7,3 °C 29,0 km/h (5 Bft)
10.10.2019 16:31 9,8 °C 80 % 1018,4 hPa 0,0 mm 18,7 km/h (3 Bft) W-SW 250 ° 0 min 0,000 mm 0,9 UV-I 62 W/m² 6,5 °C 7,3 °C 27,4 km/h (4 Bft)
10.10.2019 16:32 9,8 °C 80 % 1018,3 hPa 0,0 mm 16,4 km/h (3 Bft) NW 319 ° 0 min 0,000 mm 0,9 UV-I 63 W/m² 6,5 °C 7,5 °C 25,7 km/h (4 Bft)
10.10.2019 16:33 9,8 °C 80 % 1018,4 hPa 0,0 mm 18,0 km/h (3 Bft) W-SW 248 ° 0 min 0,000 mm 0,9 UV-I 69 W/m² 6,5 °C 7,3 °C 32,2 km/h (5 Bft)
10.10.2019 16:34 9,8 °C 80 % 1018,3 hPa 0,0 mm 14,9 km/h (3 Bft) W 261 ° 0 min 0,000 mm 0,9 UV-I 98 W/m² 6,5 °C 7,7 °C 20,9 km/h (4 Bft)
10.10.2019 16:35 9,9 °C 80 % 1018,3 hPa 0,0 mm 10,6 km/h (2 Bft) SW 234 ° 0 min 0,000 mm 0,9 UV-I 84 W/m² 6,6 °C 8,4 °C 16,1 km/h (3 Bft)
10.10.2019 16:36 9,9 °C 79 % 1018,3 hPa 0,0 mm 19,3 km/h (3 Bft) W 267 ° 0 min 0,000 mm 0,9 UV-I 62 W/m² 6,4 °C 7,3 °C 27,4 km/h (4 Bft)
10.10.2019 16:37 9,9 °C 80 % 1018,4 hPa 0,0 mm 18,3 km/h (3 Bft) W-SW 242 ° 0 min 0,000 mm 0,9 UV-I 56 W/m² 6,6 °C 7,4 °C 30,6 km/h (5 Bft)
10.10.2019 16:38 9,9 °C 79 % 1018,3 hPa 0,0 mm 14,7 km/h (3 Bft) W-NW 286 ° 0 min 0,000 mm 0,8 UV-I 56 W/m² 6,4 °C 7,8 °C 25,7 km/h (4 Bft)
10.10.2019 16:39 9,9 °C 79 % 1018,3 hPa 0,0 mm 13,4 km/h (3 Bft) W-NW 285 ° 0 min 0,000 mm 0,0 UV-I 54 W/m² 6,4 °C 8,0 °C 20,9 km/h (4 Bft)
10.10.2019 16:40 9,9 °C 80 % 1018,3 hPa 0,0 mm 11,4 km/h (2 Bft) W 261 ° 0 min 0,000 mm 0,0 UV-I 53 W/m² 6,6 °C 8,3 °C 19,3 km/h (3 Bft)
10.10.2019 16:41 9,9 °C 80 % 1018,3 hPa 0,0 mm 14,6 km/h (3 Bft) W 265 ° 0 min 0,000 mm 0,8 UV-I 60 W/m² 6,6 °C 7,8 °C 25,7 km/h (4 Bft)
10.10.2019 16:42 9,9 °C 80 % 1018,4 hPa 0,0 mm 20,3 km/h (4 Bft) W 260 ° 0 min 0,000 mm 0,8 UV-I 74 W/m² 6,6 °C 7,2 °C 33,8 km/h (5 Bft)
10.10.2019 16:43 9,9 °C 79 % 1018,3 hPa 0,0 mm 17,4 km/h (3 Bft) W 276 ° 0 min 0,000 mm 0,8 UV-I 111 W/m² 6,4 °C 7,5 °C 29,0 km/h (5 Bft)
10.10.2019 16:44 9,9 °C 80 % 1018,4 hPa 0,0 mm 12,6 km/h (3 Bft) W 263 ° 0 min 0,000 mm 0,8 UV-I 109 W/m² 6,6 °C 8,1 °C 24,1 km/h (4 Bft)
10.10.2019 16:45 10,0 °C 80 % 1018,3 hPa 0,0 mm 20,9 km/h (4 Bft) W-SW 257 ° 0 min 0,000 mm 0,8 UV-I 105 W/m² 6,7 °C 7,3 °C 27,4 km/h (4 Bft)
10.10.2019 16:46 10,0 °C 80 % 1018,4 hPa 0,0 mm 16,3 km/h (3 Bft) W-NW 293 ° 0 min 0,000 mm 0,8 UV-I 102 W/m² 6,7 °C 7,8 °C 25,7 km/h (4 Bft)
10.10.2019 16:47 10,1 °C 80 % 1018,4 hPa 0,0 mm 18,6 km/h (3 Bft) W-NW 284 ° 0 min 0,000 mm 0,8 UV-I 91 W/m² 6,8 °C 10,1 °C 32,2 km/h (5 Bft)
10.10.2019 16:48 10,1 °C 79 % 1018,4 hPa 0,0 mm 12,7 km/h (3 Bft) SW 229 ° 0 min 0,000 mm 0,7 UV-I 79 W/m² 6,6 °C 10,1 °C 20,9 km/h (4 Bft)
10.10.2019 16:49 10,1 °C 79 % 1018,4 hPa 0,0 mm 17,3 km/h (3 Bft) W 270 ° 0 min 0,000 mm 0,7 UV-I 72 W/m² 6,6 °C 10,1 °C 25,7 km/h (4 Bft)
10.10.2019 16:50 10,1 °C 79 % 1018,4 hPa 0,0 mm 12,6 km/h (3 Bft) W 273 ° 0 min 0,000 mm 0,7 UV-I 95 W/m² 6,6 °C 10,1 °C 22,5 km/h (4 Bft)
10.10.2019 16:51 10,1 °C 79 % 1018,4 hPa 0,0 mm 15,9 km/h (3 Bft) W 261 ° 0 min 0,000 mm 0,7 UV-I 81 W/m² 6,6 °C 10,1 °C 24,1 km/h (4 Bft)
10.10.2019 16:52 10,2 °C 80 % 1018,5 hPa 0,0 mm 18,9 km/h (3 Bft) W 276 ° 0 min 0,000 mm 0,6 UV-I 67 W/m² 6,9 °C 10,2 °C 29,0 km/h (5 Bft)
10.10.2019 16:53 10,2 °C 79 % 1018,4 hPa 0,0 mm 15,0 km/h (3 Bft) W 259 ° 0 min 0,000 mm 0,6 UV-I 69 W/m² 6,7 °C 10,2 °C 24,1 km/h (4 Bft)
10.10.2019 16:54 10,2 °C 80 % 1018,4 hPa 0,0 mm 9,5 km/h (2 Bft) W 261 ° 0 min 0,000 mm 0,6 UV-I 81 W/m² 6,9 °C 10,2 °C 14,5 km/h (3 Bft)
10.10.2019 16:55 10,1 °C 80 % 1018,5 hPa 0,0 mm 13,1 km/h (3 Bft) W 277 ° 0 min 0,000 mm 0,7 UV-I 121 W/m² 6,8 °C 10,1 °C 16,1 km/h (3 Bft)
10.10.2019 16:56 10,2 °C 80 % 1018,5 hPa 0,0 mm 12,8 km/h (3 Bft) W-NW 293 ° 0 min 0,000 mm 0,7 UV-I 98 W/m² 6,9 °C 10,2 °C 20,9 km/h (4 Bft)
10.10.2019 16:57 10,2 °C 80 % 1018,5 hPa 0,2 mm 12,5 km/h (3 Bft) W-NW 285 ° 0 min 0,000 mm 0,6 UV-I 77 W/m² 6,9 °C 10,2 °C 24,1 km/h (4 Bft)
10.10.2019 16:58 10,2 °C 80 % 1018,6 hPa 0,0 mm 13,3 km/h (3 Bft) W 264 ° 0 min 0,000 mm 0,5 UV-I 69 W/m² 6,9 °C 10,2 °C 22,5 km/h (4 Bft)
10.10.2019 16:59 10,2 °C 80 % 1018,6 hPa 0,0 mm 11,6 km/h (2 Bft) NW 309 ° 0 min 0,000 mm 0,5 UV-I 65 W/m² 6,9 °C 10,2 °C 20,9 km/h (4 Bft)
10.10.2019 17:00 10,2 °C 80 % 1018,6 hPa 0,0 mm 9,3 km/h (2 Bft) W-NW 290 ° 0 min 0,000 mm 0,0 UV-I 58 W/m² 6,9 °C 10,2 °C 16,1 km/h (3 Bft)
10.10.2019 17:01 10,2 °C 80 % 1018,6 hPa 0,0 mm 12,3 km/h (3 Bft) W-NW 298 ° 0 min 0,076 mm 0,0 UV-I 51 W/m² 6,9 °C 10,2 °C 19,3 km/h (3 Bft)
10.10.2019 17:02 10,2 °C 80 % 1018,6 hPa 0,0 mm 10,5 km/h (2 Bft) W-SW 254 ° 0 min 0,000 mm 0,0 UV-I 60 W/m² 6,9 °C 10,2 °C 14,5 km/h (3 Bft)
10.10.2019 17:03 10,2 °C 81 % 1018,7 hPa 0,0 mm 13,4 km/h (3 Bft) W 281 ° 0 min 0,000 mm 0,5 UV-I 65 W/m² 7,1 °C 10,2 °C 22,5 km/h (4 Bft)
10.10.2019 17:04 10,2 °C 80 % 1018,6 hPa 0,0 mm 14,4 km/h (3 Bft) W 275 ° 0 min 0,000 mm 0,5 UV-I 62 W/m² 6,9 °C 10,2 °C 20,9 km/h (4 Bft)
10.10.2019 17:05 10,2 °C 80 % 1018,6 hPa 0,0 mm 18,8 km/h (3 Bft) W-NW 286 ° 0 min 0,000 mm 0,5 UV-I 62 W/m² 6,9 °C 10,2 °C 29,0 km/h (5 Bft)
10.10.2019 17:06 10,2 °C 80 % 1018,5 hPa 0,0 mm 18,7 km/h (3 Bft) W-SW 258 ° 0 min 0,000 mm 0,5 UV-I 60 W/m² 6,9 °C 10,2 °C 24,1 km/h (4 Bft)
10.10.2019 17:07 10,2 °C 80 % 1018,6 hPa 0,0 mm 15,8 km/h (3 Bft) W 272 ° 0 min 0,000 mm 0,5 UV-I 62 W/m² 6,9 °C 10,2 °C 20,9 km/h (4 Bft)
10.10.2019 17:08 10,2 °C 80 % 1018,6 hPa 0,0 mm 8,0 km/h (2 Bft) W-SW 245 ° 0 min 0,000 mm 0,5 UV-I 70 W/m² 6,9 °C 10,2 °C 14,5 km/h (3 Bft)
10.10.2019 17:09 10,2 °C 80 % 1018,6 hPa 0,0 mm 13,6 km/h (3 Bft) W 262 ° 0 min 0,000 mm 0,5 UV-I 76 W/m² 6,9 °C 10,2 °C 17,7 km/h (3 Bft)
10.10.2019 17:10 10,2 °C 80 % 1018,6 hPa 0,0 mm 7,7 km/h (2 Bft) W-SW 252 ° 0 min 0,000 mm 0,6 UV-I 77 W/m² 6,9 °C 10,2 °C 16,1 km/h (3 Bft)
10.10.2019 17:11 10,2 °C 80 % 1018,6 hPa 0,0 mm 13,9 km/h (3 Bft) W 267 ° 0 min 0,000 mm 0,5 UV-I 74 W/m² 6,9 °C 10,2 °C 22,5 km/h (4 Bft)
10.10.2019 17:12 10,2 °C 80 % 1018,5 hPa 0,0 mm 11,6 km/h (2 Bft) W 273 ° 0 min 0,000 mm 0,5 UV-I 65 W/m² 6,9 °C 10,2 °C 17,7 km/h (3 Bft)
10.10.2019 17:13 10,2 °C 80 % 1018,5 hPa 0,0 mm 9,2 km/h (2 Bft) W 266 ° 0 min 0,000 mm 0,0 UV-I 39 W/m² 6,9 °C 10,2 °C 17,7 km/h (3 Bft)
10.10.2019 17:14 10,1 °C 81 % 1018,6 hPa 0,0 mm 9,3 km/h (2 Bft) W-NW 295 ° 0 min 0,000 mm 0,0 UV-I 37 W/m² 7,0 °C 10,1 °C 20,9 km/h (4 Bft)
10.10.2019 17:15 10,1 °C 81 % 1018,6 hPa 0,0 mm 11,4 km/h (2 Bft) W-SW 249 ° 0 min 0,000 mm 0,0 UV-I 32 W/m² 7,0 °C 10,1 °C 17,7 km/h (3 Bft)
10.10.2019 17:16 10,1 °C 81 % 1018,6 hPa 0,0 mm 16,5 km/h (3 Bft) W 274 ° 0 min 0,000 mm 0,0 UV-I 30 W/m² 7,0 °C 10,1 °C 24,1 km/h (4 Bft)
10.10.2019 17:17 10,1 °C 81 % 1018,7 hPa 0,0 mm 10,4 km/h (2 Bft) W-SW 252 ° 0 min 0,000 mm 0,0 UV-I 35 W/m² 7,0 °C 10,1 °C 16,1 km/h (3 Bft)
10.10.2019 17:18 10,0 °C 81 % 1018,6 hPa 0,0 mm 11,7 km/h (2 Bft) W 272 ° 0 min 0,000 mm 0,0 UV-I 46 W/m² 6,9 °C 8,4 °C 20,9 km/h (4 Bft)
10.10.2019 17:19 10,0 °C 81 % 1018,8 hPa 0,0 mm 18,1 km/h (3 Bft) SW 229 ° 0 min 0,000 mm 0,0 UV-I 47 W/m² 6,9 °C 7,6 °C 35,4 km/h (5 Bft)
10.10.2019 17:20 9,9 °C 81 % 1018,7 hPa 0,0 mm 14,5 km/h (3 Bft) W 279 ° 0 min 0,000 mm 0,0 UV-I 40 W/m² 6,8 °C 7,9 °C 19,3 km/h (3 Bft)
10.10.2019 17:21 9,9 °C 81 % 1018,7 hPa 0,0 mm 13,3 km/h (3 Bft) W 270 ° 0 min 0,000 mm 0,0 UV-I 39 W/m² 6,8 °C 8,0 °C 19,3 km/h (3 Bft)
10.10.2019 17:22 9,9 °C 81 % 1018,7 hPa 0,0 mm 11,0 km/h (2 Bft) W 280 ° 0 min 0,000 mm 0,0 UV-I 35 W/m² 6,8 °C 8,3 °C 16,1 km/h (3 Bft)
10.10.2019 17:23 9,9 °C 81 % 1018,8 hPa 0,0 mm 15,5 km/h (3 Bft) W-SW 248 ° 0 min 0,000 mm 0,0 UV-I 32 W/m² 6,8 °C 7,7 °C 22,5 km/h (4 Bft)
10.10.2019 17:24 9,9 °C 81 % 1018,7 hPa 0,0 mm 9,6 km/h (2 Bft) NW 309 ° 0 min 0,000 mm 0,0 UV-I 30 W/m² 6,8 °C 8,6 °C 19,3 km/h (3 Bft)
10.10.2019 17:25 9,9 °C 81 % 1018,8 hPa 0,0 mm 10,8 km/h (2 Bft) W 263 ° 0 min 0,000 mm 0,0 UV-I 30 W/m² 6,8 °C 8,4 °C 16,1 km/h (3 Bft)
10.10.2019 17:26 9,8 °C 81 % 1018,8 hPa 0,0 mm 6,3 km/h (2 Bft) W-NW 296 ° 0 min 0,000 mm 0,0 UV-I 26 W/m² 6,7 °C 9,2 °C 8,0 km/h (2 Bft)
10.10.2019 17:27 9,8 °C 81 % 1018,8 hPa 0,0 mm 5,4 km/h (1 Bft) W 276 ° 0 min 0,000 mm 0,0 UV-I 25 W/m² 6,7 °C 9,4 °C 9,7 km/h (2 Bft)
10.10.2019 17:28 9,7 °C 82 % 1018,8 hPa 0,0 mm 5,7 km/h (1 Bft) W-SW 248 ° 0 min 0,000 mm 0,0 UV-I 23 W/m² 6,8 °C 9,2 °C 8,0 km/h (2 Bft)
10.10.2019 17:29 9,7 °C 82 % 1018,9 hPa 0,0 mm 4,7 km/h (1 Bft) S-SW 198 ° 0 min 0,000 mm 0,0 UV-I 25 W/m² 6,8 °C 9,5 °C 9,7 km/h (2 Bft)
10.10.2019 17:30 9,6 °C 82 % 1018,8 hPa 0,0 mm 7,6 km/h (2 Bft) W 262 ° 0 min 0,000 mm 0,0 UV-I 26 W/m² 6,7 °C 8,6 °C 12,9 km/h (3 Bft)
10.10.2019 17:31 9,6 °C 82 % 1018,8 hPa 0,0 mm 8,1 km/h (2 Bft) W 273 ° 0 min 0,000 mm 0,0 UV-I 30 W/m² 6,7 °C 8,5 °C 14,5 km/h (3 Bft)
10.10.2019 17:32 9,6 °C 82 % 1018,8 hPa 0,0 mm 8,6 km/h (2 Bft) SW 225 ° 0 min 0,000 mm 0,0 UV-I 35 W/m² 6,7 °C 8,4 °C 16,1 km/h (3 Bft)
10.10.2019 17:33 9,5 °C 82 % 1018,8 hPa 0,0 mm 5,8 km/h (2 Bft) W-SW 245 ° 0 min 0,000 mm 0,0 UV-I 44 W/m² 6,6 °C 9,0 °C 11,3 km/h (2 Bft)
10.10.2019 17:34 9,5 °C 83 % 1018,8 hPa 0,0 mm 11,7 km/h (2 Bft) W 274 ° 0 min 0,000 mm 0,0 UV-I 53 W/m² 6,8 °C 7,8 °C 16,1 km/h (3 Bft)
10.10.2019 17:35 9,5 °C 83 % 1018,9 hPa 0,0 mm 5,6 km/h (1 Bft) S-SW 207 ° 0 min 0,000 mm 0,0 UV-I 53 W/m² 6,8 °C 9,0 °C 9,7 km/h (2 Bft)
10.10.2019 17:36 9,4 °C 83 % 1018,9 hPa 0,0 mm 7,6 km/h (2 Bft) W-NW 283 ° 0 min 0,000 mm 0,0 UV-I 60 W/m² 6,7 °C 8,4 °C 17,7 km/h (3 Bft)
10.10.2019 17:37 9,5 °C 83 % 1018,9 hPa 0,0 mm 5,7 km/h (1 Bft) W-SW 241 ° 0 min 0,000 mm 0,0 UV-I 53 W/m² 6,8 °C 9,0 °C 12,9 km/h (3 Bft)
10.10.2019 17:38 9,5 °C 83 % 1018,9 hPa 0,0 mm 4,7 km/h (1 Bft) W 263 ° 0 min 0,000 mm 0,0 UV-I 51 W/m² 6,8 °C 9,3 °C 6,4 km/h (2 Bft)
10.10.2019 17:39 9,5 °C 83 % 1018,9 hPa 0,0 mm 4,5 km/h (1 Bft) S 183 ° 0 min 0,000 mm 0,0 UV-I 63 W/m² 6,8 °C 9,5 °C 9,7 km/h (2 Bft)
10.10.2019 17:40 9,6 °C 83 % 1018,9 hPa 0,0 mm 6,7 km/h (2 Bft) SW 226 ° 0 min 0,000 mm 0,0 UV-I 67 W/m² 6,9 °C 8,8 °C 9,7 km/h (2 Bft)
10.10.2019 17:41 9,6 °C 83 % 1018,9 hPa 0,0 mm 3,8 km/h (1 Bft) W 271 ° 0 min 0,000 mm 0,0 UV-I 60 W/m² 6,9 °C 9,6 °C 6,4 km/h (2 Bft)
10.10.2019 17:42 9,6 °C 83 % 1018,9 hPa 0,0 mm 3,0 km/h (1 Bft) S-SW 198 ° 0 min 0,000 mm 0,0 UV-I 53 W/m² 6,9 °C 9,6 °C 4,8 km/h (1 Bft)
10.10.2019 17:43 9,6 °C 83 % 1018,9 hPa 0,0 mm 7,8 km/h (2 Bft) S-SW 211 ° 0 min 0,000 mm 0,0 UV-I 51 W/m² 6,9 °C 8,6 °C 14,5 km/h (3 Bft)
10.10.2019 17:44 9,6 °C 83 % 1018,9 hPa 0,0 mm 6,7 km/h (2 Bft) W 264 ° 0 min 0,000 mm 0,0 UV-I 49 W/m² 6,9 °C 8,8 °C 9,7 km/h (2 Bft)
10.10.2019 17:45 9,6 °C 83 % 1019,0 hPa 0,0 mm 8,7 km/h (2 Bft) S-SW 196 ° 0 min 0,000 mm 0,0 UV-I 49 W/m² 6,9 °C 8,4 °C 14,5 km/h (3 Bft)
10.10.2019 17:46 9,6 °C 83 % 1019,0 hPa 0,0 mm 3,1 km/h (1 Bft) SW 217 ° 0 min 0,000 mm 0,0 UV-I 47 W/m² 6,9 °C 9,6 °C 8,0 km/h (2 Bft)
10.10.2019 17:47 9,6 °C 83 % 1019,0 hPa 0,0 mm 4,0 km/h (1 Bft) S-SW 198 ° 0 min 0,000 mm 0,0 UV-I 44 W/m² 6,9 °C 9,6 °C 11,3 km/h (2 Bft)
10.10.2019 17:48 9,6 °C 83 % 1019,0 hPa 0,0 mm 3,4 km/h (1 Bft) S-SW 198 ° 0 min 0,000 mm 0,0 UV-I 40 W/m² 6,9 °C 9,6 °C 6,4 km/h (2 Bft)
10.10.2019 17:49 9,6 °C 83 % 1019,0 hPa 0,0 mm 2,3 km/h (1 Bft) W-SW 237 ° 0 min 0,000 mm 0,0 UV-I 40 W/m² 6,9 °C 9,6 °C 4,8 km/h (1 Bft)
10.10.2019 17:50 9,6 °C 83 % 1019,0 hPa 0,0 mm 9,0 km/h (2 Bft) S-SW 205 ° 0 min 0,000 mm 0,0 UV-I 39 W/m² 6,9 °C 8,3 °C 14,5 km/h (3 Bft)
10.10.2019 17:51 9,6 °C 83 % 1019,2 hPa 0,0 mm 9,3 km/h (2 Bft) W-NW 295 ° 0 min 0,000 mm 0,0 UV-I 39 W/m² 6,9 °C 8,3 °C 12,9 km/h (3 Bft)
10.10.2019 17:52 9,6 °C 83 % 1019,1 hPa 0,0 mm 6,4 km/h (2 Bft) SW 229 ° 0 min 0,000 mm 0,0 UV-I 35 W/m² 6,9 °C 8,9 °C 12,9 km/h (3 Bft)
10.10.2019 17:53 9,6 °C 83 % 1019,1 hPa 0,0 mm 5,0 km/h (1 Bft) S-SW 201 ° 0 min 0,000 mm 0,0 UV-I 33 W/m² 6,9 °C 9,3 °C 9,7 km/h (2 Bft)
10.10.2019 17:54 9,5 °C 83 % 1019,1 hPa 0,0 mm 10,3 km/h (2 Bft) W-SW 242 ° 0 min 0,000 mm 0,0 UV-I 30 W/m² 6,8 °C 8,0 °C 16,1 km/h (3 Bft)
10.10.2019 17:55 9,6 °C 83 % 1019,1 hPa 0,0 mm 7,8 km/h (2 Bft) S-SW 211 ° 0 min 0,000 mm 0,0 UV-I 28 W/m² 6,9 °C 8,6 °C 14,5 km/h (3 Bft)
10.10.2019 17:56 9,6 °C 82 % 1019,1 hPa 0,0 mm 6,7 km/h (2 Bft) SW 236 ° 0 min 0,000 mm 0,0 UV-I 28 W/m² 6,7 °C 8,8 °C 12,9 km/h (3 Bft)
10.10.2019 17:57 9,6 °C 82 % 1019,2 hPa 0,0 mm 2,4 km/h (1 Bft) W-SW 240 ° 0 min 0,000 mm 0,0 UV-I 28 W/m² 6,7 °C 9,6 °C 8,0 km/h (2 Bft)
10.10.2019 17:58 9,6 °C 82 % 1019,1 hPa 0,0 mm 6,7 km/h (2 Bft) W-SW 242 ° 0 min 0,000 mm 0,0 UV-I 28 W/m² 6,7 °C 8,8 °C 12,9 km/h (3 Bft)
10.10.2019 17:59 9,6 °C 82 % 1019,2 hPa 0,0 mm 3,6 km/h (1 Bft) W-SW 238 ° 0 min 0,000 mm 0,0 UV-I 28 W/m² 6,7 °C 9,6 °C 4,8 km/h (1 Bft)
10.10.2019 18:00 9,6 °C 82 % 1019,2 hPa 0,0 mm 4,1 km/h (1 Bft) W 279 ° 0 min 0,000 mm 0,0 UV-I 26 W/m² 6,7 °C 9,6 °C 8,0 km/h (2 Bft)
10.10.2019 18:01 9,6 °C 82 % 1019,2 hPa 0,0 mm 5,3 km/h (1 Bft) W 265 ° 0 min 0,051 mm 0,0 UV-I 25 W/m² 6,7 °C 9,2 °C 8,0 km/h (2 Bft)
10.10.2019 18:02 9,6 °C 82 % 1019,1 hPa 0,0 mm 9,1 km/h (2 Bft) SW 228 ° 0 min 0,000 mm 0,0 UV-I 23 W/m² 6,7 °C 8,3 °C 19,3 km/h (3 Bft)
10.10.2019 18:03 9,6 °C 81 % 1019,2 hPa 0,0 mm 6,0 km/h (2 Bft) W-SW 254 ° 0 min 0,000 mm 0,0 UV-I 21 W/m² 6,5 °C 9,0 °C 11,3 km/h (2 Bft)
10.10.2019 18:04 9,6 °C 82 % 1019,1 hPa 0,0 mm 1,3 km/h (1 Bft) W-SW 255 ° 0 min 0,000 mm 0,0 UV-I 19 W/m² 6,7 °C 9,6 °C 3,2 km/h (1 Bft)
10.10.2019 18:05 9,5 °C 82 % 1019,2 hPa 0,0 mm 7,3 km/h (2 Bft) W 266 ° 0 min 0,000 mm 0,0 UV-I 18 W/m² 6,6 °C 8,6 °C 16,1 km/h (3 Bft)
10.10.2019 18:06 9,5 °C 81 % 1019,2 hPa 0,0 mm 10,8 km/h (2 Bft) W 259 ° 0 min 0,000 mm 0,0 UV-I 18 W/m² 6,4 °C 7,9 °C 14,5 km/h (3 Bft)
10.10.2019 18:07 9,4 °C 81 % 1019,2 hPa 0,0 mm 2,5 km/h (1 Bft) S-SW 209 ° 0 min 0,000 mm 0,0 UV-I 18 W/m² 6,3 °C 9,4 °C 6,4 km/h (2 Bft)
10.10.2019 18:08 9,4 °C 81 % 1019,2 hPa 0,0 mm 4,5 km/h (1 Bft) W 265 ° 0 min 0,000 mm 0,0 UV-I 16 W/m² 6,3 °C 9,4 °C 6,4 km/h (2 Bft)
10.10.2019 18:09 9,4 °C 81 % 1019,2 hPa 0,0 mm 11,8 km/h (2 Bft) W-SW 238 ° 0 min 0,000 mm 0,0 UV-I 16 W/m² 6,3 °C 7,6 °C 24,1 km/h (4 Bft)
10.10.2019 18:10 9,3 °C 81 % 1019,3 hPa 0,0 mm 6,6 km/h (2 Bft) W 279 ° 0 min 0,000 mm 0,0 UV-I 16 W/m² 6,2 °C 8,5 °C 9,7 km/h (2 Bft)
10.10.2019 18:11 9,3 °C 81 % 1019,2 hPa 0,0 mm 1,8 km/h (1 Bft) W 265 ° 0 min 0,000 mm 0,0 UV-I 16 W/m² 6,2 °C 9,3 °C 4,8 km/h (1 Bft)
10.10.2019 18:12 9,3 °C 81 % 1019,3 hPa 0,0 mm 0,0 km/h (0 Bft) W 265 ° 0 min 0,000 mm 0,0 UV-I 16 W/m² 6,2 °C 9,3 °C 0,0 km/h (0 Bft)
10.10.2019 18:13 9,3 °C 81 % 1019,3 hPa 0,0 mm 7,0 km/h (2 Bft) W-SW 244 ° 0 min 0,000 mm 0,0 UV-I 16 W/m² 6,2 °C 8,4 °C 11,3 km/h (2 Bft)
10.10.2019 18:14 9,3 °C 82 % 1019,3 hPa 0,0 mm 4,4 km/h (1 Bft) W-SW 239 ° 0 min 0,000 mm 0,0 UV-I 14 W/m² 6,4 °C 9,3 °C 8,0 km/h (2 Bft)
10.10.2019 18:15 9,2 °C 82 % 1019,3 hPa 0,0 mm 0,8 km/h (0 Bft) W-SW 239 ° 0 min 0,000 mm 0,0 UV-I 14 W/m² 6,3 °C 9,2 °C 3,2 km/h (1 Bft)
10.10.2019 18:16 9,2 °C 82 % 1019,4 hPa 0,0 mm 1,3 km/h (1 Bft) W-SW 238 ° 0 min 0,000 mm 0,0 UV-I 14 W/m² 6,3 °C 9,2 °C 3,2 km/h (1 Bft)
10.10.2019 18:17 9,2 °C 82 % 1019,4 hPa 0,0 mm 2,0 km/h (1 Bft) W-SW 238 ° 0 min 0,000 mm 0,0 UV-I 16 W/m² 6,3 °C 9,2 °C 3,2 km/h (1 Bft)
10.10.2019 18:18 9,1 °C 82 % 1019,4 hPa 0,0 mm 0,5 km/h (0 Bft) W-SW 238 ° 0 min 0,000 mm 0,0 UV-I 14 W/m² 6,2 °C 9,1 °C 1,6 km/h (1 Bft)
10.10.2019 18:19 9,1 °C 82 % 1019,5 hPa 0,0 mm 0,1 km/h (0 Bft) W-SW 238 ° 0 min 0,000 mm 0,0 UV-I 14 W/m² 6,2 °C 9,1 °C 1,6 km/h (1 Bft)
10.10.2019 18:20 9,1 °C 82 % 1019,5 hPa 0,0 mm 1,9 km/h (1 Bft) S-SW 197 ° 0 min 0,000 mm 0,0 UV-I 14 W/m² 6,2 °C 9,1 °C 8,0 km/h (2 Bft)
10.10.2019 18:21 9,1 °C 82 % 1019,5 hPa 0,0 mm 0,7 km/h (0 Bft) S-SW 198 ° 0 min 0,000 mm 0,0 UV-I 14 W/m² 6,2 °C 9,1 °C 3,2 km/h (1 Bft)
10.10.2019 18:22 9,1 °C 82 % 1019,4 hPa 0,0 mm 2,3 km/h (1 Bft) S 190 ° 0 min 0,000 mm 0,0 UV-I 12 W/m² 6,2 °C 9,1 °C 8,0 km/h (2 Bft)
10.10.2019 18:23 9,1 °C 82 % 1019,4 hPa 0,0 mm 3,2 km/h (1 Bft) W 264 ° 0 min 0,000 mm 0,0 UV-I 11 W/m² 6,2 °C 9,1 °C 6,4 km/h (2 Bft)
10.10.2019 18:24 9,1 °C 83 % 1019,5 hPa 0,0 mm 1,1 km/h (1 Bft) W 263 ° 0 min 0,000 mm 0,0 UV-I 11 W/m² 6,4 °C 9,1 °C 3,2 km/h (1 Bft)
10.10.2019 18:25 9,0 °C 83 % 1019,5 hPa 0,0 mm 0,1 km/h (0 Bft) W 263 ° 0 min 0,000 mm 0,0 UV-I 11 W/m² 6,3 °C 9,0 °C 1,6 km/h (1 Bft)
10.10.2019 18:26 9,0 °C 83 % 1019,5 hPa 0,0 mm 0,0 km/h (0 Bft) W 263 ° 0 min 0,000 mm 0,0 UV-I 9 W/m² 6,3 °C 9,0 °C 0,0 km/h (0 Bft)
10.10.2019 18:27 8,9 °C 83 % 1019,4 hPa 0,0 mm 0,0 km/h (0 Bft) W 263 ° 0 min 0,000 mm 0,0 UV-I 9 W/m² 6,2 °C 8,9 °C 0,0 km/h (0 Bft)
10.10.2019 18:28 9,0 °C 83 % 1019,5 hPa 0,0 mm 3,3 km/h (1 Bft) S-SW 194 ° 0 min 0,000 mm 0,0 UV-I 9 W/m² 6,3 °C 9,0 °C 6,4 km/h (2 Bft)
10.10.2019 18:29 8,9 °C 83 % 1019,4 hPa 0,0 mm 0,9 km/h (0 Bft) S-SW 194 ° 0 min 0,000 mm 0,0 UV-I 7 W/m² 6,2 °C 8,9 °C 3,2 km/h (1 Bft)
10.10.2019 18:30 9,0 °C 83 % 1019,4 hPa 0,0 mm 0,0 km/h (0 Bft) S-SW 194 ° 0 min 0,000 mm 0,0 UV-I 7 W/m² 6,3 °C 9,0 °C 0,0 km/h (0 Bft)
10.10.2019 18:31 8,9 °C 83 % 1019,4 hPa 0,0 mm 0,0 km/h (0 Bft) S-SW 193 ° 0 min 0,000 mm 0,0 UV-I 7 W/m² 6,2 °C 8,9 °C 0,0 km/h (0 Bft)
10.10.2019 18:32 8,9 °C 83 % 1019,5 hPa 0,0 mm 0,0 km/h (0 Bft) S-SW 196 ° 0 min 0,000 mm 0,0 UV-I 7 W/m² 6,2 °C 8,9 °C 0,0 km/h (0 Bft)
10.10.2019 18:33 8,9 °C 83 % 1019,5 hPa 0,0 mm 8,9 km/h (2 Bft) W-SW 254 ° 0 min 0,000 mm 0,0 UV-I 5 W/m² 6,2 °C 7,5 °C 14,5 km/h (3 Bft)
10.10.2019 18:34 9,0 °C 82 % 1019,5 hPa 0,0 mm 5,6 km/h (1 Bft) S-SW 192 ° 0 min 0,000 mm 0,0 UV-I 5 W/m² 6,1 °C 8,4 °C 9,7 km/h (2 Bft)
10.10.2019 18:35 9,0 °C 82 % 1019,5 hPa 0,0 mm 1,8 km/h (1 Bft) S 182 ° 0 min 0,000 mm 0,0 UV-I 5 W/m² 6,1 °C 9,0 °C 4,8 km/h (1 Bft)
10.10.2019 18:36 8,9 °C 83 % 1019,5 hPa 0,0 mm 0,5 km/h (0 Bft) S 182 ° 0 min 0,000 mm 0,0 UV-I 5 W/m² 6,2 °C 8,9 °C 3,2 km/h (1 Bft)
10.10.2019 18:37 8,9 °C 83 % 1019,5 hPa 0,0 mm 1,8 km/h (1 Bft) S 182 ° 0 min 0,000 mm 0,0 UV-I 5 W/m² 6,2 °C 8,9 °C 4,8 km/h (1 Bft)
10.10.2019 18:38 9,0 °C 82 % 1019,5 hPa 0,0 mm 3,3 km/h (1 Bft) S-SW 201 ° 0 min 0,000 mm 0,0 UV-I 0 W/m² 6,1 °C 9,0 °C 6,4 km/h (2 Bft)
10.10.2019 18:39 9,0 °C 82 % 1019,5 hPa 0,0 mm 3,1 km/h (1 Bft) S-SW 200 ° 0 min 0,000 mm 0,0 UV-I 0 W/m² 6,1 °C 9,0 °C 4,8 km/h (1 Bft)
10.10.2019 18:40 9,1 °C 82 % 1019,6 hPa 0,0 mm 1,7 km/h (1 Bft) S-SW 200 ° 0 min 0,000 mm 0,0 UV-I 0 W/m² 6,2 °C 9,1 °C 3,2 km/h (1 Bft)
10.10.2019 18:41 9,1 °C 83 % 1019,6 hPa 0,0 mm 1,9 km/h (1 Bft) S-SW 200 ° 0 min 0,000 mm 0,0 UV-I 0 W/m² 6,4 °C 9,1 °C 3,2 km/h (1 Bft)
10.10.2019 18:42 9,0 °C 83 % 1019,6 hPa 0,0 mm 0,0 km/h (0 Bft) S-SW 200 ° 0 min 0,000 mm 0,0 UV-I 0 W/m² 6,3 °C 9,0 °C 0,0 km/h (0 Bft)
10.10.2019 18:43 9,0 °C 83 % 1019,7 hPa 0,0 mm 2,5 km/h (1 Bft) S-SW 194 ° 0 min 0,000 mm 0,0 UV-I 0 W/m² 6,3 °C 9,0 °C 8,0 km/h (2 Bft)
10.10.2019 18:44 9,0 °C 82 % 1019,7 hPa 0,0 mm 4,8 km/h (1 Bft) W-SW 254 ° 0 min 0,000 mm 0,0 UV-I 0 W/m² 6,1 °C 8,7 °C 9,7 km/h (2 Bft)
10.10.2019 18:45 9,0 °C 82 % 1019,7 hPa 0,0 mm 1,9 km/h (1 Bft) W-SW 254 ° 0 min 0,000 mm 0,0 UV-I 0 W/m² 6,1 °C 9,0 °C 4,8 km/h (1 Bft)
10.10.2019 18:46 9,1 °C 83 % 1019,8 hPa 0,0 mm 2,1 km/h (1 Bft) W-SW 245 ° 0 min 0,000 mm 0,0 UV-I 0 W/m² 6,4 °C 9,1 °C 3,2 km/h (1 Bft)
10.10.2019 18:47 9,1 °C 83 % 1019,8 hPa 0,0 mm 5,1 km/h (1 Bft) SW 221 ° 0 min 0,000 mm 0,0 UV-I 0 W/m² 6,4 °C 8,7 °C 8,0 km/h (2 Bft)
10.10.2019 18:48 9,1 °C 83 % 1019,8 hPa 0,0 mm 5,0 km/h (1 Bft) S 189 ° 0 min 0,000 mm 0,0 UV-I 0 W/m² 6,4 °C 8,7 °C 9,7 km/h (2 Bft)
10.10.2019 18:49 9,1 °C 82 % 1019,8 hPa 0,0 mm 1,7 km/h (1 Bft) S 189 ° 0 min 0,000 mm 0,0 UV-I 0 W/m² 6,2 °C 9,1 °C 4,8 km/h (1 Bft)
10.10.2019 18:50 9,1 °C 83 % 1019,8 hPa 0,0 mm 2,8 km/h (1 Bft) W-SW 242 ° 0 min 0,000 mm 0,0 UV-I 0 W/m² 6,4 °C 9,1 °C 4,8 km/h (1 Bft)
10.10.2019 18:51 9,0 °C 83 % 1019,8 hPa 0,0 mm 0,1 km/h (0 Bft) W-SW 238 ° 0 min 0,000 mm 0,0 UV-I 0 W/m² 6,3 °C 9,0 °C 1,6 km/h (1 Bft)
10.10.2019 18:52 8,9 °C 83 % 1019,7 hPa 0,0 mm 5,1 km/h (1 Bft) S 191 ° 0 min 0,000 mm 0,0 UV-I 0 W/m² 6,2 °C 8,5 °C 8,0 km/h (2 Bft)
10.10.2019 18:53 9,0 °C 83 % 1019,8 hPa 0,0 mm 3,5 km/h (1 Bft) W-SW 251 ° 0 min 0,000 mm 0,0 UV-I 0 W/m² 6,3 °C 9,0 °C 6,4 km/h (2 Bft)
10.10.2019 18:54 9,1 °C 83 % 1019,8 hPa 0,0 mm 5,7 km/h (1 Bft) SW 230 ° 0 min 0,000 mm 0,0 UV-I 0 W/m² 6,4 °C 8,5 °C 9,7 km/h (2 Bft)
10.10.2019 18:55 9,1 °C 83 % 1019,9 hPa 0,0 mm 5,2 km/h (1 Bft) W-NW 288 ° 0 min 0,000 mm 0,0 UV-I 0 W/m² 6,4 °C 8,7 °C 11,3 km/h (2 Bft)
10.10.2019 18:56 9,1 °C 82 % 1019,9 hPa 0,0 mm 2,7 km/h (1 Bft) S-SW 197 ° 0 min 0,000 mm 0,0 UV-I 0 W/m² 6,2 °C 9,1 °C 6,4 km/h (2 Bft)
10.10.2019 18:57 9,1 °C 82 % 1019,9 hPa 0,0 mm 0,5 km/h (0 Bft) S-SW 198 ° 0 min 0,000 mm 0,0 UV-I 0 W/m² 6,2 °C 9,1 °C 1,6 km/h (1 Bft)
10.10.2019 18:58 9,1 °C 83 % 1020,0 hPa 0,0 mm 0,0 km/h (0 Bft) S-SW 197 ° 0 min 0,000 mm 0,0 UV-I 0 W/m² 6,4 °C 9,1 °C 0,0 km/h (0 Bft)
10.10.2019 18:59 9,1 °C 83 % 1020,0 hPa 0,0 mm 0,0 km/h (0 Bft) W-SW 245 ° 0 min 0,000 mm 0,0 UV-I 0 W/m² 6,4 °C 9,1 °C 0,0 km/h (0 Bft)
10.10.2019 19:00 9,1 °C 83 % 1020,0 hPa 0,0 mm 3,6 km/h (1 Bft) S 186 ° 0 min 0,000 mm 0,0 UV-I 0 W/m² 6,4 °C 9,1 °C 6,4 km/h (2 Bft)
10.10.2019 19:01 9,1 °C 83 % 1020,0 hPa 0,0 mm 3,1 km/h (1 Bft) S-SW 192 ° 0 min 0,000 mm 0,0 UV-I 0 W/m² 6,4 °C 9,1 °C 6,4 km/h (2 Bft)
10.10.2019 19:02 9,2 °C 82 % 1020,0 hPa 0,0 mm 1,4 km/h (1 Bft) S-SW 192 ° 0 min 0,000 mm 0,0 UV-I 0 W/m² 6,3 °C 9,2 °C 6,4 km/h (2 Bft)
10.10.2019 19:03 9,2 °C 82 % 1020,0 hPa 0,0 mm 2,3 km/h (1 Bft) W-SW 244 ° 0 min 0,000 mm 0,0 UV-I 0 W/m² 6,3 °C 9,2 °C 6,4 km/h (2 Bft)
10.10.2019 19:04 9,2 °C 82 % 1020,0 hPa 0,0 mm 1,7 km/h (1 Bft) W-SW 238 ° 0 min 0,000 mm 0,0 UV-I 0 W/m² 6,3 °C 9,2 °C 6,4 km/h (2 Bft)
10.10.2019 19:05 9,2 °C 82 % 1020,0 hPa 0,0 mm 4,9 km/h (1 Bft) W-SW 257 ° 0 min 0,000 mm 0,0 UV-I 0 W/m² 6,3 °C 8,9 °C 12,9 km/h (3 Bft)
10.10.2019 19:06 9,2 °C 82 % 1020,1 hPa 0,0 mm 4,9 km/h (1 Bft) W-SW 240 ° 0 min 0,000 mm 0,0 UV-I 0 W/m² 6,3 °C 8,9 °C 8,0 km/h (2 Bft)
10.10.2019 19:07 9,2 °C 82 % 1020,0 hPa 0,0 mm 2,6 km/h (1 Bft) W-SW 255 ° 0 min 0,000 mm 0,0 UV-I 0 W/m² 6,3 °C 9,2 °C 6,4 km/h (2 Bft)
10.10.2019 19:08 9,2 °C 82 % 1020,1 hPa 0,0 mm 3,6 km/h (1 Bft) W-SW 244 ° 0 min 0,000 mm 0,0 UV-I 0 W/m² 6,3 °C 9,2 °C 4,8 km/h (1 Bft)
10.10.2019 19:09 9,2 °C 82 % 1020,1 hPa 0,0 mm 3,9 km/h (1 Bft) W-SW 238 ° 0 min 0,000 mm 0,0 UV-I 0 W/m² 6,3 °C 9,2 °C 6,4 km/h (2 Bft)
10.10.2019 19:10 9,3 °C 82 % 1020,2 hPa 0,0 mm 3,5 km/h (1 Bft) S 184 ° 0 min 0,000 mm 0,0 UV-I 0 W/m² 6,4 °C 9,3 °C 4,8 km/h (1 Bft)
10.10.2019 19:11 9,2 °C 82 % 1020,3 hPa 0,0 mm 3,6 km/h (1 Bft) W 263 ° 0 min 0,000 mm 0,0 UV-I 0 W/m² 6,3 °C 9,2 °C 4,8 km/h (1 Bft)
10.10.2019 19:12 9,3 °C 82 % 1020,2 hPa 0,0 mm 1,3 km/h (1 Bft) W 259 ° 0 min 0,000 mm 0,0 UV-I 0 W/m² 6,4 °C 9,3 °C 4,8 km/h (1 Bft)
10.10.2019 19:13 9,2 °C 82 % 1020,3 hPa 0,0 mm 2,0 km/h (1 Bft) W 262 ° 0 min 0,000 mm 0,0 UV-I 0 W/m² 6,3 °C 9,2 °C 4,8 km/h (1 Bft)
10.10.2019 19:14 9,2 °C 84 % 1020,2 hPa 0,0 mm 1,0 km/h (0 Bft) W 260 ° 0 min 0,000 mm 0,0 UV-I 0 W/m² 6,6 °C 9,2 °C 1,6 km/h (1 Bft)
10.10.2019 19:15 9,1 °C 84 % 1020,2 hPa 0,0 mm 0,0 km/h (0 Bft) W-SW 258 ° 0 min 0,000 mm 0,0 UV-I 0 W/m² 6,5 °C 9,1 °C 0,0 km/h (0 Bft)
10.10.2019 19:16 9,0 °C 85 % 1020,1 hPa 0,0 mm 0,0 km/h (0 Bft) W-SW 258 ° 0 min 0,000 mm 0,0 UV-I 0 W/m² 6,6 °C 9,0 °C 0,0 km/h (0 Bft)
10.10.2019 19:17 8,9 °C 85 % 1020,1 hPa 0,0 mm 0,0 km/h (0 Bft) W-SW 257 ° 0 min 0,000 mm 0,0 UV-I 0 W/m² 6,5 °C 8,9 °C 0,0 km/h (0 Bft)
10.10.2019 19:18 8,8 °C 85 % 1020,1 hPa 0,0 mm 0,1 km/h (0 Bft) W 261 ° 0 min 0,000 mm 0,0 UV-I 0 W/m² 6,4 °C 8,8 °C 1,6 km/h (1 Bft)
10.10.2019 19:19 8,8 °C 86 % 1020,1 hPa 0,0 mm 1,9 km/h (1 Bft) W 260 ° 0 min 0,000 mm 0,0 UV-I 0 W/m² 6,6 °C 8,8 °C 3,2 km/h (1 Bft)
10.10.2019 19:20 8,7 °C 86 % 1020,3 hPa 0,0 mm 1,7 km/h (1 Bft) S 171 ° 0 min 0,000 mm 0,0 UV-I 0 W/m² 6,5 °C 8,7 °C 4,8 km/h (1 Bft)
10.10.2019 19:21 8,7 °C 86 % 1020,2 hPa 0,2 mm 0,9 km/h (0 Bft) S 171 ° 0 min 0,000 mm 0,0 UV-I 0 W/m² 6,5 °C 8,7 °C 3,2 km/h (1 Bft)
10.10.2019 19:22 8,7 °C 86 % 1020,3 hPa 0,0 mm 0,0 km/h (0 Bft) S 171 ° 0 min 0,000 mm 0,0 UV-I 0 W/m² 6,5 °C 8,7 °C 0,0 km/h (0 Bft)
10.10.2019 19:23 8,6 °C 86 % 1020,3 hPa 0,0 mm 0,0 km/h (0 Bft) S 171 ° 0 min 0,000 mm 0,0 UV-I 0 W/m² 6,4 °C 8,6 °C 0,0 km/h (0 Bft)
10.10.2019 19:24 8,6 °C 87 % 1020,2 hPa 0,0 mm 0,0 km/h (0 Bft) S 171 ° 0 min 0,000 mm 0,0 UV-I 0 W/m² 6,6 °C 8,6 °C 0,0 km/h (0 Bft)
10.10.2019 19:25 8,4 °C 87 % 1020,3 hPa 0,0 mm 0,0 km/h (0 Bft) S 171 ° 0 min 0,000 mm 0,0 UV-I 0 W/m² 6,4 °C 8,4 °C 0,0 km/h (0 Bft)
10.10.2019 19:26 8,4 °C 87 % 1020,3 hPa 0,0 mm 0,0 km/h (0 Bft) S 171 ° 0 min 0,000 mm 0,0 UV-I 0 W/m² 6,4 °C 8,4 °C 0,0 km/h (0 Bft)
10.10.2019 19:28 8,4 °C 87 % 1020,3 hPa 0,0 mm 0,0 km/h (0 Bft) S 171 ° 0 min 0,000 mm 0,0 UV-I 0 W/m² 6,4 °C 8,4 °C 0,0 km/h (0 Bft)
10.10.2019 19:29 8,4 °C 88 % 1020,3 hPa 0,0 mm 0,0 km/h (0 Bft) S 171 ° 0 min 0,000 mm 0,0 UV-I 0 W/m² 6,5 °C 8,4 °C 0,0 km/h (0 Bft)
10.10.2019 19:30 8,4 °C 87 % 1020,3 hPa 0,0 mm 0,0 km/h (0 Bft) S 171 ° 0 min 0,000 mm 0,0 UV-I 0 W/m² 6,4 °C 8,4 °C 0,0 km/h (0 Bft)
10.10.2019 19:31 8,4 °C 87 % 1020,3 hPa 0,0 mm 0,0 km/h (0 Bft) S 171 ° 0 min 0,000 mm 0,0 UV-I 0 W/m² 6,4 °C 8,4 °C 0,0 km/h (0 Bft)
10.10.2019 19:32 8,4 °C 87 % 1020,3 hPa 0,0 mm 0,0 km/h (0 Bft) S 171 ° 0 min 0,000 mm 0,0 UV-I 0 W/m² 6,4 °C 8,4 °C 0,0 km/h (0 Bft)
10.10.2019 19:33 8,4 °C 87 % 1020,3 hPa 0,0 mm 0,0 km/h (0 Bft) S 171 ° 0 min 0,000 mm 0,0 UV-I 0 W/m² 6,4 °C 8,4 °C 0,0 km/h (0 Bft)
10.10.2019 19:34 8,4 °C 88 % 1020,4 hPa 0,0 mm 0,0 km/h (0 Bft) S 171 ° 0 min 0,000 mm 0,0 UV-I 0 W/m² 6,5 °C 8,4 °C 0,0 km/h (0 Bft)
10.10.2019 19:35 8,3 °C 88 % 1020,3 hPa 0,0 mm 0,0 km/h (0 Bft) S 171 ° 0 min 0,000 mm 0,0 UV-I 0 W/m² 6,4 °C 8,3 °C 0,0 km/h (0 Bft)
10.10.2019 19:36 8,3 °C 88 % 1020,3 hPa 0,0 mm 0,0 km/h (0 Bft) S 171 ° 0 min 0,000 mm 0,0 UV-I 0 W/m² 6,4 °C 8,3 °C 0,0 km/h (0 Bft)
10.10.2019 19:37 8,3 °C 88 % 1020,4 hPa 0,0 mm 2,0 km/h (1 Bft) S-SW 202 ° 0 min 0,000 mm 0,0 UV-I 0 W/m² 6,4 °C 8,3 °C 3,2 km/h (1 Bft)
10.10.2019 19:38 8,3 °C 89 % 1020,4 hPa 0,0 mm 0,1 km/h (0 Bft) S-SW 202 ° 0 min 0,000 mm 0,0 UV-I 0 W/m² 6,6 °C 8,3 °C 1,6 km/h (1 Bft)
10.10.2019 19:39 8,3 °C 89 % 1020,4 hPa 0,0 mm 0,1 km/h (0 Bft) S-SW 202 ° 0 min 0,000 mm 0,0 UV-I 0 W/m² 6,6 °C 8,3 °C 1,6 km/h (1 Bft)
10.10.2019 19:40 8,3 °C 89 % 1020,4 hPa 0,0 mm 0,0 km/h (0 Bft) S-SW 202 ° 0 min 0,000 mm 0,0 UV-I 0 W/m² 6,6 °C 8,3 °C 0,0 km/h (0 Bft)
10.10.2019 19:41 8,3 °C 89 % 1020,4 hPa 0,0 mm 0,0 km/h (0 Bft) S-SW 202 ° 0 min 0,000 mm 0,0 UV-I 0 W/m² 6,6 °C 8,3 °C 0,0 km/h (0 Bft)
10.10.2019 19:42 8,3 °C 89 % 1020,4 hPa 0,0 mm 0,1 km/h (0 Bft) S-SW 202 ° 0 min 0,000 mm 0,0 UV-I 0 W/m² 6,6 °C 8,3 °C 1,6 km/h (1 Bft)
10.10.2019 19:43 8,4 °C 88 % 1020,4 hPa 0,0 mm 4,0 km/h (1 Bft) S-SO 155 ° 0 min 0,000 mm 0,0 UV-I 0 W/m² 6,5 °C 8,4 °C 6,4 km/h (2 Bft)
10.10.2019 19:44 8,4 °C 88 % 1020,4 hPa 0,0 mm 0,9 km/h (0 Bft) S-SO 155 ° 0 min 0,000 mm 0,0 UV-I 0 W/m² 6,5 °C 8,4 °C 3,2 km/h (1 Bft)
10.10.2019 19:45 8,5 °C 88 % 1020,4 hPa 0,0 mm 0,7 km/h (0 Bft) S-SO 155 ° 0 min 0,000 mm 0,0 UV-I 0 W/m² 6,6 °C 8,5 °C 3,2 km/h (1 Bft)
10.10.2019 19:46 8,5 °C 88 % 1020,4 hPa 0,0 mm 0,0 km/h (0 Bft) S-SO 155 ° 0 min 0,000 mm 0,0 UV-I 0 W/m² 6,6 °C 8,5 °C 0,0 km/h (0 Bft)
10.10.2019 19:47 8,6 °C 88 % 1020,4 hPa 0,0 mm 0,0 km/h (0 Bft) S-SO 155 ° 0 min 0,000 mm 0,0 UV-I 0 W/m² 6,7 °C 8,6 °C 0,0 km/h (0 Bft)
10.10.2019 19:48 8,6 °C 88 % 1020,5 hPa 0,0 mm 0,0 km/h (0 Bft) S-SO 155 ° 0 min 0,000 mm 0,0 UV-I 0 W/m² 6,7 °C 8,6 °C 0,0 km/h (0 Bft)
10.10.2019 19:49 8,6 °C 88 % 1020,5 hPa 0,0 mm 0,0 km/h (0 Bft) S-SO 155 ° 0 min 0,000 mm 0,0 UV-I 0 W/m² 6,7 °C 8,6 °C 0,0 km/h (0 Bft)
10.10.2019 19:50 8,6 °C 88 % 1020,6 hPa 0,0 mm 2,3 km/h (1 Bft) S 188 ° 0 min 0,000 mm 0,0 UV-I 0 W/m² 6,7 °C 8,6 °C 4,8 km/h (1 Bft)
10.10.2019 19:51 8,6 °C 88 % 1020,6 hPa 0,0 mm 1,2 km/h (1 Bft) S 188 ° 0 min 0,000 mm 0,0 UV-I 0 W/m² 6,7 °C 8,6 °C 3,2 km/h (1 Bft)
10.10.2019 19:52 8,6 °C 88 % 1020,6 hPa 0,0 mm 0,2 km/h (0 Bft) S 188 ° 0 min 0,000 mm 0,0 UV-I 0 W/m² 6,7 °C 8,6 °C 1,6 km/h (1 Bft)
10.10.2019 19:53 8,7 °C 87 % 1020,6 hPa 0,0 mm 0,2 km/h (0 Bft) S 188 ° 0 min 0,000 mm 0,0 UV-I 0 W/m² 6,7 °C 8,7 °C 1,6 km/h (1 Bft)
10.10.2019 19:54 8,7 °C 87 % 1020,6 hPa 0,0 mm 0,0 km/h (0 Bft) S 188 ° 0 min 0,000 mm 0,0 UV-I 0 W/m² 6,7 °C 8,7 °C 0,0 km/h (0 Bft)
10.10.2019 19:55 8,7 °C 87 % 1020,6 hPa 0,0 mm 0,0 km/h (0 Bft) S 188 ° 0 min 0,000 mm 0,0 UV-I 0 W/m² 6,7 °C 8,7 °C 0,0 km/h (0 Bft)
10.10.2019 19:56 8,8 °C 86 % 1020,5 hPa 0,0 mm 0,0 km/h (0 Bft) S 188 ° 0 min 0,000 mm 0,0 UV-I 0 W/m² 6,6 °C 8,8 °C 0,0 km/h (0 Bft)
10.10.2019 19:57 8,8 °C 86 % 1020,6 hPa 0,0 mm 0,0 km/h (0 Bft) S 188 ° 0 min 0,000 mm 0,0 UV-I 0 W/m² 6,6 °C 8,8 °C 0,0 km/h (0 Bft)
10.10.2019 19:58 8,8 °C 86 % 1020,6 hPa 0,0 mm 0,9 km/h (0 Bft) SW 234 ° 0 min 0,000 mm 0,0 UV-I 0 W/m² 6,6 °C 8,8 °C 4,8 km/h (1 Bft)
10.10.2019 19:59 8,7 °C 86 % 1020,6 hPa 0,0 mm 1,0 km/h (0 Bft) SW 234 ° 0 min 0,000 mm 0,0 UV-I 0 W/m² 6,5 °C 8,7 °C 3,2 km/h (1 Bft)
10.10.2019 20:00 8,7 °C 86 % 1020,6 hPa 0,0 mm 1,1 km/h (1 Bft) SW 234 ° 0 min 0,000 mm 0,0 UV-I 0 W/m² 6,5 °C 8,7 °C 1,6 km/h (1 Bft)
10.10.2019 20:01 8,6 °C 85 % 1020,6 hPa 0,0 mm 0,0 km/h (0 Bft) S-SW 211 ° 0 min 0,000 mm 0,0 UV-I 0 W/m² 6,2 °C 8,6 °C 0,0 km/h (0 Bft)
10.10.2019 20:02 8,6 °C 86 % 1020,6 hPa 0,0 mm 0,0 km/h (0 Bft) S 180 ° 0 min 0,000 mm 0,0 UV-I 0 W/m² 6,4 °C 8,6 °C 0,0 km/h (0 Bft)
10.10.2019 20:03 8,4 °C 86 % 1020,6 hPa 0,0 mm 0,0 km/h (0 Bft) S-SW 212 ° 0 min 0,000 mm 0,0 UV-I 0 W/m² 6,2 °C 8,4 °C 0,0 km/h (0 Bft)
10.10.2019 20:04 8,5 °C 86 % 1020,6 hPa 0,0 mm 0,7 km/h (0 Bft) SW 225 ° 0 min 0,000 mm 0,0 UV-I 0 W/m² 6,3 °C 8,5 °C 4,8 km/h (1 Bft)
10.10.2019 20:05 8,6 °C 86 % 1020,6 hPa 0,0 mm 1,7 km/h (1 Bft) SW 225 ° 0 min 0,000 mm 0,0 UV-I 0 W/m² 6,4 °C 8,6 °C 4,8 km/h (1 Bft)
10.10.2019 20:06 8,6 °C 85 % 1020,6 hPa 0,0 mm 1,4 km/h (1 Bft) SW 224 ° 0 min 0,000 mm 0,0 UV-I 0 W/m² 6,2 °C 8,6 °C 3,2 km/h (1 Bft)
10.10.2019 20:07 8,7 °C 85 % 1020,6 hPa 0,0 mm 3,0 km/h (1 Bft) SW 236 ° 0 min 0,000 mm 0,0 UV-I 0 W/m² 6,3 °C 8,7 °C 4,8 km/h (1 Bft)
10.10.2019 20:08 8,8 °C 85 % 1020,6 hPa 0,0 mm 1,1 km/h (1 Bft) SW 236 ° 0 min 0,000 mm 0,0 UV-I 0 W/m² 6,4 °C 8,8 °C 3,2 km/h (1 Bft)
10.10.2019 20:09 8,8 °C 84 % 1020,6 hPa 0,0 mm 1,5 km/h (1 Bft) SW 236 ° 0 min 0,000 mm 0,0 UV-I 0 W/m² 6,2 °C 8,8 °C 3,2 km/h (1 Bft)
10.10.2019 20:10 8,9 °C 84 % 1020,8 hPa 0,0 mm 0,0 km/h (0 Bft) SW 236 ° 0 min 0,000 mm 0,0 UV-I 0 W/m² 6,3 °C 8,9 °C 0,0 km/h (0 Bft)
10.10.2019 20:11 8,9 °C 84 % 1020,7 hPa 0,0 mm 0,0 km/h (0 Bft) SW 236 ° 0 min 0,000 mm 0,0 UV-I 0 W/m² 6,3 °C 8,9 °C 0,0 km/h (0 Bft)
10.10.2019 20:12 8,9 °C 84 % 1020,8 hPa 0,0 mm 0,0 km/h (0 Bft) SW 236 ° 0 min 0,000 mm 0,0 UV-I 0 W/m² 6,3 °C 8,9 °C 0,0 km/h (0 Bft)
10.10.2019 20:13 8,9 °C 84 % 1020,8 hPa 0,0 mm 0,0 km/h (0 Bft) SW 236 ° 0 min 0,000 mm 0,0 UV-I 0 W/m² 6,3 °C 8,9 °C 0,0 km/h (0 Bft)
10.10.2019 20:14 8,9 °C 84 % 1020,7 hPa 0,0 mm 0,0 km/h (0 Bft) SW 236 ° 0 min 0,000 mm 0,0 UV-I 0 W/m² 6,3 °C 8,9 °C 0,0 km/h (0 Bft)
10.10.2019 20:15 8,9 °C 84 % 1020,8 hPa 0,0 mm 0,0 km/h (0 Bft) SW 236 ° 0 min 0,000 mm 0,0 UV-I 0 W/m² 6,3 °C 8,9 °C 0,0 km/h (0 Bft)
10.10.2019 20:16 8,9 °C 84 % 1020,7 hPa 0,0 mm 0,0 km/h (0 Bft) SW 236 ° 0 min 0,000 mm 0,0 UV-I 0 W/m² 6,3 °C 8,9 °C 0,0 km/h (0 Bft)
10.10.2019 20:17 8,9 °C 83 % 1020,7 hPa 0,0 mm 0,0 km/h (0 Bft) SW 236 ° 0 min 0,000 mm 0,0 UV-I 0 W/m² 6,2 °C 8,9 °C 0,0 km/h (0 Bft)
10.10.2019 20:18 8,9 °C 83 % 1020,7 hPa 0,0 mm 0,0 km/h (0 Bft) SW 236 ° 0 min 0,000 mm 0,0 UV-I 0 W/m² 6,2 °C 8,9 °C 0,0 km/h (0 Bft)
10.10.2019 20:19 9,0 °C 83 % 1020,8 hPa 0,0 mm 0,0 km/h (0 Bft) SW 236 ° 0 min 0,000 mm 0,0 UV-I 0 W/m² 6,3 °C 9,0 °C 0,0 km/h (0 Bft)
10.10.2019 20:20 9,0 °C 83 % 1020,8 hPa 0,0 mm 0,0 km/h (0 Bft) SW 236 ° 0 min 0,000 mm 0,0 UV-I 0 W/m² 6,3 °C 9,0 °C 0,0 km/h (0 Bft)
10.10.2019 20:21 9,0 °C 83 % 1020,8 hPa 0,0 mm 0,0 km/h (0 Bft) SW 236 ° 0 min 0,000 mm 0,0 UV-I 0 W/m² 6,3 °C 9,0 °C 0,0 km/h (0 Bft)
10.10.2019 20:22 9,1 °C 83 % 1020,8 hPa 0,0 mm 0,0 km/h (0 Bft) SW 236 ° 0 min 0,000 mm 0,0 UV-I 0 W/m² 6,4 °C 9,1 °C 0,0 km/h (0 Bft)
10.10.2019 20:23 9,1 °C 83 % 1020,9 hPa 0,0 mm 0,0 km/h (0 Bft) SW 236 ° 0 min 0,000 mm 0,0 UV-I 0 W/m² 6,4 °C 9,1 °C 0,0 km/h (0 Bft)
10.10.2019 20:24 9,0 °C 84 % 1020,9 hPa 0,0 mm 0,0 km/h (0 Bft) SW 236 ° 0 min 0,000 mm 0,0 UV-I 0 W/m² 6,4 °C 9,0 °C 0,0 km/h (0 Bft)
10.10.2019 20:25 8,9 °C 84 % 1020,9 hPa 0,0 mm 0,0 km/h (0 Bft) SW 236 ° 0 min 0,000 mm 0,0 UV-I 0 W/m² 6,3 °C 8,9 °C 0,0 km/h (0 Bft)
10.10.2019 20:26 8,9 °C 84 % 1020,8 hPa 0,0 mm 0,0 km/h (0 Bft) SW 236 ° 0 min 0,000 mm 0,0 UV-I 0 W/m² 6,3 °C 8,9 °C 0,0 km/h (0 Bft)
10.10.2019 20:27 8,8 °C 85 % 1020,9 hPa 0,0 mm 0,0 km/h (0 Bft) SW 236 ° 0 min 0,000 mm 0,0 UV-I 0 W/m² 6,4 °C 8,8 °C 0,0 km/h (0 Bft)
10.10.2019 20:28 8,8 °C 85 % 1020,9 hPa 0,0 mm 0,0 km/h (0 Bft) SW 236 ° 0 min 0,000 mm 0,0 UV-I 0 W/m² 6,4 °C 8,8 °C 0,0 km/h (0 Bft)
10.10.2019 20:29 8,7 °C 85 % 1020,9 hPa 0,0 mm 0,0 km/h (0 Bft) SW 236 ° 0 min 0,000 mm 0,0 UV-I 0 W/m² 6,3 °C 8,7 °C 0,0 km/h (0 Bft)
10.10.2019 20:30 8,7 °C 85 % 1020,9 hPa 0,0 mm 0,0 km/h (0 Bft) SW 236 ° 0 min 0,000 mm 0,0 UV-I 0 W/m² 6,3 °C 8,7 °C 0,0 km/h (0 Bft)
10.10.2019 20:31 8,6 °C 85 % 1020,9 hPa 0,0 mm 0,0 km/h (0 Bft) SW 236 ° 0 min 0,000 mm 0,0 UV-I 0 W/m² 6,2 °C 8,6 °C 0,0 km/h (0 Bft)
10.10.2019 20:32 8,6 °C 85 % 1020,9 hPa 0,0 mm 0,0 km/h (0 Bft) SW 236 ° 0 min 0,000 mm 0,0 UV-I 0 W/m² 6,2 °C 8,6 °C 0,0 km/h (0 Bft)
10.10.2019 20:33 8,7 °C 85 % 1020,9 hPa 0,0 mm 0,0 km/h (0 Bft) SW 234 ° 0 min 0,000 mm 0,0 UV-I 0 W/m² 6,3 °C 8,7 °C 0,0 km/h (0 Bft)
10.10.2019 20:34 8,7 °C 85 % 1020,9 hPa 0,0 mm 0,0 km/h (0 Bft) SW 234 ° 0 min 0,000 mm 0,0 UV-I 0 W/m² 6,3 °C 8,7 °C 0,0 km/h (0 Bft)
10.10.2019 20:35 8,8 °C 85 % 1020,9 hPa 0,0 mm 0,0 km/h (0 Bft) SW 234 ° 0 min 0,000 mm 0,0 UV-I 0 W/m² 6,4 °C 8,8 °C 0,0 km/h (0 Bft)
10.10.2019 20:36 8,8 °C 84 % 1020,9 hPa 0,0 mm 4,0 km/h (1 Bft) SW 229 ° 0 min 0,000 mm 0,0 UV-I 0 W/m² 6,2 °C 8,8 °C 6,4 km/h (2 Bft)
10.10.2019 20:37 8,9 °C 84 % 1020,9 hPa 0,0 mm 3,0 km/h (1 Bft) SW 229 ° 0 min 0,000 mm 0,0 UV-I 0 W/m² 6,3 °C 8,9 °C 4,8 km/h (1 Bft)
10.10.2019 20:38 8,9 °C 84 % 1020,9 hPa 0,0 mm 4,4 km/h (1 Bft) SW 229 ° 0 min 0,000 mm 0,0 UV-I 0 W/m² 6,3 °C 8,9 °C 6,4 km/h (2 Bft)
10.10.2019 20:39 8,8 °C 84 % 1020,9 hPa 0,0 mm 4,4 km/h (1 Bft) S-SW 209 ° 0 min 0,000 mm 0,0 UV-I 0 W/m² 6,2 °C 8,8 °C 8,0 km/h (2 Bft)
10.10.2019 20:40 8,9 °C 84 % 1020,9 hPa 0,0 mm 3,2 km/h (1 Bft) S-SW 209 ° 0 min 0,000 mm 0,0 UV-I 0 W/m² 6,3 °C 8,9 °C 4,8 km/h (1 Bft)
10.10.2019 20:41 8,9 °C 84 % 1020,9 hPa 0,0 mm 2,4 km/h (1 Bft) S-SW 208 ° 0 min 0,000 mm 0,0 UV-I 0 W/m² 6,3 °C 8,9 °C 3,2 km/h (1 Bft)
10.10.2019 20:42 8,9 °C 84 % 1020,9 hPa 0,0 mm 2,2 km/h (1 Bft) S-SW 208 ° 0 min 0,000 mm 0,0 UV-I 0 W/m² 6,3 °C 8,9 °C 4,8 km/h (1 Bft)
10.10.2019 20:43 8,9 °C 84 % 1020,9 hPa 0,0 mm 2,1 km/h (1 Bft) S-SW 208 ° 0 min 0,000 mm 0,0 UV-I 0 W/m² 6,3 °C 8,9 °C 4,8 km/h (1 Bft)
10.10.2019 20:44 8,9 °C 84 % 1020,9 hPa 0,0 mm 1,3 km/h (1 Bft) S-SW 208 ° 0 min 0,000 mm 0,0 UV-I 0 W/m² 6,3 °C 8,9 °C 3,2 km/h (1 Bft)
10.10.2019 20:45 8,9 °C 84 % 1020,9 hPa 0,0 mm 0,0 km/h (0 Bft) S-SW 208 ° 0 min 0,000 mm 0,0 UV-I 0 W/m² 6,3 °C 8,9 °C 0,0 km/h (0 Bft)
10.10.2019 20:46 8,9 °C 84 % 1020,9 hPa 0,0 mm 0,0 km/h (0 Bft) S-SW 208 ° 0 min 0,000 mm 0,0 UV-I 0 W/m² 6,3 °C 8,9 °C 0,0 km/h (0 Bft)
10.10.2019 20:47 8,8 °C 84 % 1020,9 hPa 0,0 mm 0,0 km/h (0 Bft) S-SW 209 ° 0 min 0,000 mm 0,0 UV-I 0 W/m² 6,2 °C 8,8 °C 0,0 km/h (0 Bft)
10.10.2019 20:48 8,8 °C 84 % 1020,9 hPa 0,0 mm 1,9 km/h (1 Bft) S-SW 207 ° 0 min 0,000 mm 0,0 UV-I 0 W/m² 6,2 °C 8,8 °C 4,8 km/h (1 Bft)
10.10.2019 20:49 8,8 °C 84 % 1020,9 hPa 0,0 mm 2,1 km/h (1 Bft) S-SW 207 ° 0 min 0,000 mm 0,0 UV-I 0 W/m² 6,2 °C 8,8 °C 4,8 km/h (1 Bft)
10.10.2019 20:50 8,8 °C 84 % 1020,9 hPa 0,0 mm 1,8 km/h (1 Bft) S-SW 207 ° 0 min 0,000 mm 0,0 UV-I 0 W/m² 6,2 °C 8,8 °C 6,4 km/h (2 Bft)
10.10.2019 20:51 8,7 °C 84 % 1020,9 hPa 0,0 mm 0,0 km/h (0 Bft) S-SW 207 ° 0 min 0,000 mm 0,0 UV-I 0 W/m² 6,2 °C 8,7 °C 0,0 km/h (0 Bft)
10.10.2019 20:52 8,8 °C 84 % 1020,9 hPa 0,0 mm 0,6 km/h (0 Bft) S-SW 207 ° 0 min 0,000 mm 0,0 UV-I 0 W/m² 6,2 °C 8,8 °C 3,2 km/h (1 Bft)
10.10.2019 20:53 8,8 °C 84 % 1020,9 hPa 0,0 mm 3,7 km/h (1 Bft) S-SW 207 ° 0 min 0,000 mm 0,0 UV-I 0 W/m² 6,2 °C 8,8 °C 6,4 km/h (2 Bft)
10.10.2019 20:54 8,7 °C 85 % 1021,0 hPa 0,0 mm 0,2 km/h (0 Bft) S-SW 207 ° 0 min 0,000 mm 0,0 UV-I 0 W/m² 6,3 °C 8,7 °C 1,6 km/h (1 Bft)
10.10.2019 20:55 8,7 °C 85 % 1021,0 hPa 0,0 mm 0,0 km/h (0 Bft) S-SW 206 ° 0 min 0,000 mm 0,0 UV-I 0 W/m² 6,3 °C 8,7 °C 0,0 km/h (0 Bft)
10.10.2019 20:56 8,7 °C 85 % 1020,9 hPa 0,0 mm 0,0 km/h (0 Bft) S-SW 207 ° 0 min 0,000 mm 0,0 UV-I 0 W/m² 6,3 °C 8,7 °C 0,0 km/h (0 Bft)
10.10.2019 20:57 8,7 °C 85 % 1020,9 hPa 0,0 mm 0,0 km/h (0 Bft) S-SW 207 ° 0 min 0,000 mm 0,0 UV-I 0 W/m² 6,3 °C 8,7 °C 0,0 km/h (0 Bft)
10.10.2019 20:58 8,7 °C 86 % 1020,9 hPa 0,0 mm 0,0 km/h (0 Bft) S-SW 207 ° 0 min 0,000 mm 0,0 UV-I 0 W/m² 6,5 °C 8,7 °C 0,0 km/h (0 Bft)
10.10.2019 20:59 8,6 °C 86 % 1020,9 hPa 0,0 mm 0,0 km/h (0 Bft) S-SW 207 ° 0 min 0,000 mm 0,0 UV-I 0 W/m² 6,4 °C 8,6 °C 0,0 km/h (0 Bft)
10.10.2019 21:00 8,6 °C 86 % 1020,8 hPa 0,0 mm 0,0 km/h (0 Bft) S-SW 206 ° 0 min 0,000 mm 0,0 UV-I 0 W/m² 6,4 °C 8,6 °C 0,0 km/h (0 Bft)
10.10.2019 21:01 8,4 °C 86 % 1020,9 hPa 0,0 mm 0,0 km/h (0 Bft) S-SW 206 ° 0 min 0,000 mm 0,0 UV-I 0 W/m² 6,2 °C 8,4 °C 0,0 km/h (0 Bft)
10.10.2019 21:02 8,4 °C 86 % 1020,9 hPa 0,0 mm 0,0 km/h (0 Bft) S-SW 206 ° 0 min 0,000 mm 0,0 UV-I 0 W/m² 6,2 °C 8,4 °C 0,0 km/h (0 Bft)
10.10.2019 21:03 8,4 °C 86 % 1020,9 hPa 0,0 mm 0,0 km/h (0 Bft) S-SW 206 ° 0 min 0,000 mm 0,0 UV-I 0 W/m² 6,2 °C 8,4 °C 0,0 km/h (0 Bft)
10.10.2019 21:04 8,3 °C 86 % 1021,0 hPa 0,0 mm 0,0 km/h (0 Bft) S-SW 206 ° 0 min 0,000 mm 0,0 UV-I 0 W/m² 6,1 °C 8,3 °C 0,0 km/h (0 Bft)
10.10.2019 21:05 8,2 °C 86 % 1021,0 hPa 0,0 mm 0,0 km/h (0 Bft) S-SW 206 ° 0 min 0,000 mm 0,0 UV-I 0 W/m² 6,0 °C 8,2 °C 0,0 km/h (0 Bft)
10.10.2019 21:06 8,2 °C 87 % 1021,0 hPa 0,0 mm 0,0 km/h (0 Bft) S-SW 206 ° 0 min 0,000 mm 0,0 UV-I 0 W/m² 6,2 °C 8,2 °C 0,0 km/h (0 Bft)
10.10.2019 21:07 8,2 °C 86 % 1021,0 hPa 0,0 mm 0,0 km/h (0 Bft) S-SW 206 ° 0 min 0,000 mm 0,0 UV-I 0 W/m² 6,0 °C 8,2 °C 0,0 km/h (0 Bft)
10.10.2019 21:08 8,1 °C 86 % 1021,0 hPa 0,0 mm 0,0 km/h (0 Bft) S-SW 206 ° 0 min 0,000 mm 0,0 UV-I 0 W/m² 5,9 °C 8,1 °C 0,0 km/h (0 Bft)
10.10.2019 21:09 8,1 °C 86 % 1021,0 hPa 0,0 mm 0,0 km/h (0 Bft) S-SW 206 ° 0 min 0,000 mm 0,0 UV-I 0 W/m² 5,9 °C 8,1 °C 0,0 km/h (0 Bft)
10.10.2019 21:10 8,1 °C 87 % 1021,0 hPa 0,0 mm 0,0 km/h (0 Bft) S-SW 206 ° 0 min 0,000 mm 0,0 UV-I 0 W/m² 6,1 °C 8,1 °C 0,0 km/h (0 Bft)
10.10.2019 21:11 8,0 °C 87 % 1021,0 hPa 0,0 mm 0,0 km/h (0 Bft) S-SW 206 ° 0 min 0,000 mm 0,0 UV-I 0 W/m² 6,0 °C 8,0 °C 0,0 km/h (0 Bft)
10.10.2019 21:12 8,0 °C 87 % 1021,0 hPa 0,0 mm 0,0 km/h (0 Bft) S-SW 206 ° 0 min 0,000 mm 0,0 UV-I 0 W/m² 6,0 °C 8,0 °C 0,0 km/h (0 Bft)
10.10.2019 21:13 7,9 °C 87 % 1021,0 hPa 0,0 mm 0,0 km/h (0 Bft) S-SW 206 ° 0 min 0,000 mm 0,0 UV-I 0 W/m² 5,9 °C 7,9 °C 0,0 km/h (0 Bft)
10.10.2019 21:14 7,9 °C 87 % 1021,0 hPa 0,0 mm 0,0 km/h (0 Bft) S-SW 206 ° 0 min 0,000 mm 0,0 UV-I 0 W/m² 5,9 °C 7,9 °C 0,0 km/h (0 Bft)
10.10.2019 21:15 7,9 °C 87 % 1021,0 hPa 0,0 mm 0,0 km/h (0 Bft) S-SW 206 ° 0 min 0,000 mm 0,0 UV-I 0 W/m² 5,9 °C 7,9 °C 0,0 km/h (0 Bft)
10.10.2019 21:16 7,8 °C 87 % 1021,0 hPa 0,0 mm 0,0 km/h (0 Bft) S-SW 206 ° 0 min 0,000 mm 0,0 UV-I 0 W/m² 5,8 °C 7,8 °C 0,0 km/h (0 Bft)
10.10.2019 21:17 7,8 °C 88 % 1021,0 hPa 0,0 mm 0,0 km/h (0 Bft) S-SW 206 ° 0 min 0,000 mm 0,0 UV-I 0 W/m² 5,9 °C 7,8 °C 0,0 km/h (0 Bft)
10.10.2019 21:18 7,8 °C 88 % 1021,0 hPa 0,0 mm 0,0 km/h (0 Bft) S-SW 206 ° 0 min 0,000 mm 0,0 UV-I 0 W/m² 5,9 °C 7,8 °C 0,0 km/h (0 Bft)
10.10.2019 21:19 7,6 °C 87 % 1021,1 hPa 0,0 mm 0,0 km/h (0 Bft) S-SW 206 ° 0 min 0,000 mm 0,0 UV-I 0 W/m² 5,6 °C 7,6 °C 0,0 km/h (0 Bft)
10.10.2019 21:20 7,5 °C 87 % 1021,1 hPa 0,0 mm 0,0 km/h (0 Bft) S-SW 206 ° 0 min 0,000 mm 0,0 UV-I 0 W/m² 5,5 °C 7,5 °C 0,0 km/h (0 Bft)
10.10.2019 21:21 7,4 °C 88 % 1021,1 hPa 0,0 mm 0,0 km/h (0 Bft) S-SW 206 ° 0 min 0,000 mm 0,0 UV-I 0 W/m² 5,5 °C 7,4 °C 0,0 km/h (0 Bft)
10.10.2019 21:22 7,3 °C 88 % 1021,1 hPa 0,0 mm 0,0 km/h (0 Bft) S-SW 206 ° 0 min 0,000 mm 0,0 UV-I 0 W/m² 5,4 °C 7,3 °C 0,0 km/h (0 Bft)
10.10.2019 21:23 7,3 °C 89 % 1021,2 hPa 0,0 mm 0,0 km/h (0 Bft) S-SW 206 ° 0 min 0,000 mm 0,0 UV-I 0 W/m² 5,6 °C 7,3 °C 0,0 km/h (0 Bft)
10.10.2019 21:24 7,3 °C 89 % 1021,2 hPa 0,0 mm 0,0 km/h (0 Bft) S-SW 206 ° 0 min 0,000 mm 0,0 UV-I 0 W/m² 5,6 °C 7,3 °C 0,0 km/h (0 Bft)
10.10.2019 21:25 7,3 °C 89 % 1021,2 hPa 0,0 mm 0,0 km/h (0 Bft) S-SW 206 ° 0 min 0,000 mm 0,0 UV-I 0 W/m² 5,6 °C 7,3 °C 0,0 km/h (0 Bft)
10.10.2019 21:26 7,3 °C 89 % 1021,2 hPa 0,0 mm 0,0 km/h (0 Bft) S-SW 206 ° 0 min 0,000 mm 0,0 UV-I 0 W/m² 5,6 °C 7,3 °C 0,0 km/h (0 Bft)
10.10.2019 21:27 7,3 °C 89 % 1021,2 hPa 0,0 mm 0,0 km/h (0 Bft) S-SW 206 ° 0 min 0,000 mm 0,0 UV-I 0 W/m² 5,6 °C 7,3 °C 0,0 km/h (0 Bft)
10.10.2019 21:28 7,3 °C 90 % 1021,2 hPa 0,0 mm 0,0 km/h (0 Bft) S-SW 206 ° 0 min 0,000 mm 0,0 UV-I 0 W/m² 5,8 °C 7,3 °C 0,0 km/h (0 Bft)
10.10.2019 21:29 7,2 °C 90 % 1021,2 hPa 0,0 mm 0,0 km/h (0 Bft) S-SW 206 ° 0 min 0,000 mm 0,0 UV-I 0 W/m² 5,7 °C 7,2 °C 0,0 km/h (0 Bft)
10.10.2019 21:30 7,2 °C 90 % 1021,2 hPa 0,0 mm 0,0 km/h (0 Bft) S-SW 206 ° 0 min 0,000 mm 0,0 UV-I 0 W/m² 5,7 °C 7,2 °C 0,0 km/h (0 Bft)
10.10.2019 21:31 7,2 °C 90 % 1021,2 hPa 0,0 mm 0,0 km/h (0 Bft) S-SW 206 ° 0 min 0,000 mm 0,0 UV-I 0 W/m² 5,7 °C 7,2 °C 0,0 km/h (0 Bft)
10.10.2019 21:32 7,2 °C 90 % 1021,2 hPa 0,0 mm 0,0 km/h (0 Bft) S-SW 206 ° 0 min 0,000 mm 0,0 UV-I 0 W/m² 5,7 °C 7,2 °C 0,0 km/h (0 Bft)
10.10.2019 21:33 7,1 °C 89 % 1021,2 hPa 0,0 mm 0,0 km/h (0 Bft) S-SW 206 ° 0 min 0,000 mm 0,0 UV-I 0 W/m² 5,4 °C 7,1 °C 0,0 km/h (0 Bft)
10.10.2019 21:34 7,1 °C 89 % 1021,2 hPa 0,0 mm 0,0 km/h (0 Bft) S-SW 206 ° 0 min 0,000 mm 0,0 UV-I 0 W/m² 5,4 °C 7,1 °C 0,0 km/h (0 Bft)
10.10.2019 21:35 7,0 °C 89 % 1021,2 hPa 0,0 mm 0,0 km/h (0 Bft) S-SW 206 ° 0 min 0,000 mm 0,0 UV-I 0 W/m² 5,3 °C 7,0 °C 0,0 km/h (0 Bft)
10.10.2019 21:36 7,0 °C 89 % 1021,2 hPa 0,0 mm 0,0 km/h (0 Bft) S-SW 207 ° 0 min 0,000 mm 0,0 UV-I 0 W/m² 5,3 °C 7,0 °C 0,0 km/h (0 Bft)
10.10.2019 21:37 6,9 °C 89 % 1021,2 hPa 0,0 mm 0,0 km/h (0 Bft) S-SW 207 ° 0 min 0,000 mm 0,0 UV-I 0 W/m² 5,2 °C 6,9 °C 0,0 km/h (0 Bft)
10.10.2019 21:38 6,9 °C 89 % 1021,2 hPa 0,0 mm 0,0 km/h (0 Bft) S-SW 206 ° 0 min 0,000 mm 0,0 UV-I 0 W/m² 5,2 °C 6,9 °C 0,0 km/h (0 Bft)
10.10.2019 21:39 6,8 °C 89 % 1021,2 hPa 0,0 mm 0,0 km/h (0 Bft) S-SW 206 ° 0 min 0,000 mm 0,0 UV-I 0 W/m² 5,1 °C 6,8 °C 0,0 km/h (0 Bft)
10.10.2019 21:40 6,8 °C 89 % 1021,2 hPa 0,0 mm 0,0 km/h (0 Bft) S-SW 206 ° 0 min 0,000 mm 0,0 UV-I 0 W/m² 5,1 °C 6,8 °C 0,0 km/h (0 Bft)
10.10.2019 21:41 6,8 °C 89 % 1021,2 hPa 0,0 mm 0,0 km/h (0 Bft) S-SW 206 ° 0 min 0,000 mm 0,0 UV-I 0 W/m² 5,1 °C 6,8 °C 0,0 km/h (0 Bft)
10.10.2019 21:42 6,8 °C 90 % 1021,2 hPa 0,0 mm 0,0 km/h (0 Bft) S-SW 206 ° 0 min 0,000 mm 0,0 UV-I 0 W/m² 5,3 °C 6,8 °C 0,0 km/h (0 Bft)
10.10.2019 21:43 6,8 °C 90 % 1021,2 hPa 0,0 mm 0,0 km/h (0 Bft) S-SW 206 ° 0 min 0,000 mm 0,0 UV-I 0 W/m² 5,3 °C 6,8 °C 0,0 km/h (0 Bft)
10.10.2019 21:44 6,8 °C 89 % 1021,3 hPa 0,0 mm 0,0 km/h (0 Bft) S-SW 206 ° 0 min 0,000 mm 0,0 UV-I 0 W/m² 5,1 °C 6,8 °C 0,0 km/h (0 Bft)
10.10.2019 21:45 6,7 °C 90 % 1021,3 hPa 0,0 mm 0,0 km/h (0 Bft) S-SW 206 ° 0 min 0,000 mm 0,0 UV-I 0 W/m² 5,2 °C 6,7 °C 0,0 km/h (0 Bft)
10.10.2019 21:46 6,7 °C 90 % 1021,3 hPa 0,0 mm 0,0 km/h (0 Bft) S-SW 207 ° 0 min 0,000 mm 0,0 UV-I 0 W/m² 5,2 °C 6,7 °C 0,0 km/h (0 Bft)
10.10.2019 21:47 6,6 °C 89 % 1021,3 hPa 0,0 mm 0,0 km/h (0 Bft) S-SW 207 ° 0 min 0,000 mm 0,0 UV-I 0 W/m² 4,9 °C 6,6 °C 0,0 km/h (0 Bft)
10.10.2019 21:48 6,4 °C 89 % 1021,3 hPa 0,0 mm 0,0 km/h (0 Bft) S-SW 207 ° 0 min 0,000 mm 0,0 UV-I 0 W/m² 4,7 °C 6,4 °C 0,0 km/h (0 Bft)
10.10.2019 21:49 6,3 °C 89 % 1021,4 hPa 0,0 mm 0,0 km/h (0 Bft) S-SW 207 ° 0 min 0,000 mm 0,0 UV-I 0 W/m² 4,6 °C 6,3 °C 0,0 km/h (0 Bft)
10.10.2019 21:50 6,2 °C 90 % 1021,4 hPa 0,0 mm 0,0 km/h (0 Bft) S-SW 207 ° 0 min 0,000 mm 0,0 UV-I 0 W/m² 4,7 °C 6,2 °C 0,0 km/h (0 Bft)
10.10.2019 21:51 6,2 °C 90 % 1021,4 hPa 0,0 mm 0,0 km/h (0 Bft) S-SW 207 ° 0 min 0,000 mm 0,0 UV-I 0 W/m² 4,7 °C 6,2 °C 0,0 km/h (0 Bft)
10.10.2019 21:52 6,2 °C 91 % 1021,4 hPa 0,0 mm 0,0 km/h (0 Bft) S-SW 207 ° 0 min 0,000 mm 0,0 UV-I 0 W/m² 4,8 °C 6,2 °C 0,0 km/h (0 Bft)
10.10.2019 21:53 6,2 °C 91 % 1021,4 hPa 0,0 mm 0,0 km/h (0 Bft) S-SW 207 ° 0 min 0,000 mm 0,0 UV-I 0 W/m² 4,8 °C 6,2 °C 0,0 km/h (0 Bft)
10.10.2019 21:54 6,3 °C 91 % 1021,4 hPa 0,0 mm 0,0 km/h (0 Bft) S-SW 207 ° 0 min 0,000 mm 0,0 UV-I 0 W/m² 4,9 °C 6,3 °C 0,0 km/h (0 Bft)
10.10.2019 21:55 6,3 °C 91 % 1021,5 hPa 0,0 mm 0,0 km/h (0 Bft) S-SW 207 ° 0 min 0,000 mm 0,0 UV-I 0 W/m² 4,9 °C 6,3 °C 0,0 km/h (0 Bft)
10.10.2019 21:56 6,4 °C 91 % 1021,5 hPa 0,0 mm 0,0 km/h (0 Bft) S-SW 207 ° 0 min 0,000 mm 0,0 UV-I 0 W/m² 5,0 °C 6,4 °C 0,0 km/h (0 Bft)
10.10.2019 21:57 6,4 °C 91 % 1021,5 hPa 0,0 mm 0,0 km/h (0 Bft) S-SW 207 ° 0 min 0,000 mm 0,0 UV-I 0 W/m² 5,0 °C 6,4 °C 0,0 km/h (0 Bft)
10.10.2019 21:58 6,4 °C 91 % 1021,5 hPa 0,0 mm 0,0 km/h (0 Bft) S-SW 207 ° 0 min 0,000 mm 0,0 UV-I 0 W/m² 5,0 °C 6,4 °C 0,0 km/h (0 Bft)
10.10.2019 21:59 6,4 °C 91 % 1021,5 hPa 0,0 mm 0,0 km/h (0 Bft) S-SW 207 ° 0 min 0,000 mm 0,0 UV-I 0 W/m² 5,0 °C 6,4 °C 0,0 km/h (0 Bft)
10.10.2019 22:00 6,4 °C 91 % 1021,6 hPa 0,0 mm 0,0 km/h (0 Bft) S-SW 207 ° 0 min 0,000 mm 0,0 UV-I 0 W/m² 5,0 °C 6,4 °C 0,0 km/h (0 Bft)
10.10.2019 22:01 6,4 °C 91 % 1021,6 hPa 0,0 mm 0,0 km/h (0 Bft) S-SW 207 ° 0 min 0,000 mm 0,0 UV-I 0 W/m² 5,0 °C 6,4 °C 0,0 km/h (0 Bft)
10.10.2019 22:02 6,3 °C 91 % 1021,6 hPa 0,0 mm 0,0 km/h (0 Bft) S-SW 207 ° 0 min 0,000 mm 0,0 UV-I 0 W/m² 4,9 °C 6,3 °C 0,0 km/h (0 Bft)
10.10.2019 22:03 6,3 °C 91 % 1021,6 hPa 0,0 mm 0,0 km/h (0 Bft) S-SW 207 ° 0 min 0,000 mm 0,0 UV-I 0 W/m² 4,9 °C 6,3 °C 0,0 km/h (0 Bft)
10.10.2019 22:04 6,3 °C 91 % 1021,6 hPa 0,0 mm 0,0 km/h (0 Bft) S-SW 207 ° 0 min 0,000 mm 0,0 UV-I 0 W/m² 4,9 °C 6,3 °C 0,0 km/h (0 Bft)
10.10.2019 22:05 6,3 °C 91 % 1021,7 hPa 0,0 mm 0,0 km/h (0 Bft) S-SW 207 ° 0 min 0,000 mm 0,0 UV-I 0 W/m² 4,9 °C 6,3 °C 0,0 km/h (0 Bft)
10.10.2019 22:06 6,3 °C 92 % 1021,7 hPa 0,0 mm 0,0 km/h (0 Bft) S-SW 207 ° 0 min 0,000 mm 0,0 UV-I 0 W/m² 5,1 °C 6,3 °C 0,0 km/h (0 Bft)
10.10.2019 22:07 6,3 °C 92 % 1021,7 hPa 0,0 mm 0,0 km/h (0 Bft) S-SW 207 ° 0 min 0,000 mm 0,0 UV-I 0 W/m² 5,1 °C 6,3 °C 0,0 km/h (0 Bft)
10.10.2019 22:08 6,3 °C 92 % 1021,6 hPa 0,0 mm 0,0 km/h (0 Bft) S-SW 207 ° 0 min 0,000 mm 0,0 UV-I 0 W/m² 5,1 °C 6,3 °C 0,0 km/h (0 Bft)
10.10.2019 22:09 6,4 °C 92 % 1021,7 hPa 0,0 mm 0,0 km/h (0 Bft) S-SW 207 ° 0 min 0,000 mm 0,0 UV-I 0 W/m² 5,2 °C 6,4 °C 0,0 km/h (0 Bft)
10.10.2019 22:10 6,5 °C 92 % 1021,7 hPa 0,0 mm 0,0 km/h (0 Bft) S-SW 207 ° 0 min 0,000 mm 0,0 UV-I 0 W/m² 5,3 °C 6,5 °C 0,0 km/h (0 Bft)
10.10.2019 22:11 6,6 °C 92 % 1021,7 hPa 0,0 mm 0,5 km/h (0 Bft) S-SW 205 ° 0 min 0,000 mm 0,0 UV-I 0 W/m² 5,4 °C 6,6 °C 3,2 km/h (1 Bft)
10.10.2019 22:12 6,7 °C 92 % 1021,7 hPa 0,0 mm 1,0 km/h (0 Bft) S-SW 205 ° 0 min 0,000 mm 0,0 UV-I 0 W/m² 5,5 °C 6,7 °C 4,8 km/h (1 Bft)
10.10.2019 22:13 6,8 °C 92 % 1021,7 hPa 0,0 mm 0,0 km/h (0 Bft) S-SW 205 ° 0 min 0,000 mm 0,0 UV-I 0 W/m² 5,6 °C 6,8 °C 0,0 km/h (0 Bft)
10.10.2019 22:14 6,8 °C 91 % 1021,7 hPa 0,0 mm 0,0 km/h (0 Bft) S-SW 205 ° 0 min 0,000 mm 0,0 UV-I 0 W/m² 5,4 °C 6,8 °C 0,0 km/h (0 Bft)
10.10.2019 22:15 6,8 °C 91 % 1021,7 hPa 0,0 mm 0,1 km/h (0 Bft) S-SW 205 ° 0 min 0,000 mm 0,0 UV-I 0 W/m² 5,4 °C 6,8 °C 1,6 km/h (1 Bft)
10.10.2019 22:16 6,8 °C 92 % 1021,8 hPa 0,0 mm 1,7 km/h (1 Bft) S-SW 206 ° 0 min 0,000 mm 0,0 UV-I 0 W/m² 5,6 °C 6,8 °C 4,8 km/h (1 Bft)
10.10.2019 22:17 6,8 °C 91 % 1021,8 hPa 0,0 mm 0,0 km/h (0 Bft) S-SW 206 ° 0 min 0,000 mm 0,0 UV-I 0 W/m² 5,4 °C 6,8 °C 0,0 km/h (0 Bft)
10.10.2019 22:18 6,8 °C 91 % 1021,8 hPa 0,2 mm 0,0 km/h (0 Bft) S-SW 206 ° 0 min 0,000 mm 0,0 UV-I 0 W/m² 5,4 °C 6,8 °C 0,0 km/h (0 Bft)
10.10.2019 22:19 6,8 °C 91 % 1021,8 hPa 0,0 mm 1,1 km/h (1 Bft) S-SW 205 ° 0 min 0,000 mm 0,0 UV-I 0 W/m² 5,4 °C 6,8 °C 4,8 km/h (1 Bft)
10.10.2019 22:20 6,8 °C 91 % 1021,8 hPa 0,0 mm 0,0 km/h (0 Bft) S-SW 205 ° 0 min 0,000 mm 0,0 UV-I 0 W/m² 5,4 °C 6,8 °C 0,0 km/h (0 Bft)
10.10.2019 22:21 6,9 °C 91 % 1021,9 hPa 0,0 mm 0,0 km/h (0 Bft) S-SW 205 ° 0 min 0,000 mm 0,0 UV-I 0 W/m² 5,5 °C 6,9 °C 0,0 km/h (0 Bft)
10.10.2019 22:22 7,1 °C 91 % 1021,9 hPa 0,0 mm 0,0 km/h (0 Bft) S-SW 207 ° 0 min 0,000 mm 0,0 UV-I 0 W/m² 5,7 °C 7,1 °C 0,0 km/h (0 Bft)
10.10.2019 22:23 7,0 °C 90 % 1022,0 hPa 0,0 mm 0,0 km/h (0 Bft) S-SW 207 ° 0 min 0,000 mm 0,0 UV-I 0 W/m² 5,5 °C 7,0 °C 0,0 km/h (0 Bft)
10.10.2019 22:24 6,9 °C 90 % 1022,0 hPa 0,0 mm 0,0 km/h (0 Bft) S-SW 207 ° 0 min 0,000 mm 0,0 UV-I 0 W/m² 5,4 °C 6,9 °C 0,0 km/h (0 Bft)
10.10.2019 22:25 6,8 °C 90 % 1021,9 hPa 0,0 mm 0,0 km/h (0 Bft) S-SW 207 ° 0 min 0,000 mm 0,0 UV-I 0 W/m² 5,3 °C 6,8 °C 0,0 km/h (0 Bft)
10.10.2019 22:26 6,7 °C 90 % 1022,0 hPa 0,0 mm 1,4 km/h (1 Bft) S-SW 205 ° 0 min 0,000 mm 0,0 UV-I 0 W/m² 5,2 °C 6,7 °C 4,8 km/h (1 Bft)
10.10.2019 22:27 6,7 °C 90 % 1022,0 hPa 0,0 mm 2,8 km/h (1 Bft) S 184 ° 0 min 0,000 mm 0,0 UV-I 0 W/m² 5,2 °C 6,7 °C 6,4 km/h (2 Bft)
10.10.2019 22:28 6,8 °C 90 % 1022,0 hPa 0,0 mm 1,1 km/h (1 Bft) S 184 ° 0 min 0,000 mm 0,0 UV-I 0 W/m² 5,3 °C 6,8 °C 4,8 km/h (1 Bft)
10.10.2019 22:29 7,0 °C 91 % 1022,0 hPa 0,0 mm 2,7 km/h (1 Bft) S 184 ° 0 min 0,000 mm 0,0 UV-I 0 W/m² 5,6 °C 7,0 °C 4,8 km/h (1 Bft)
10.10.2019 22:30 7,2 °C 90 % 1022,0 hPa 0,0 mm 4,0 km/h (1 Bft) W 275 ° 0 min 0,000 mm 0,0 UV-I 0 W/m² 5,7 °C 7,2 °C 6,4 km/h (2 Bft)
10.10.2019 22:31 7,5 °C 90 % 1022,0 hPa 0,0 mm 4,8 km/h (1 Bft) SW 226 ° 0 min 0,000 mm 0,0 UV-I 0 W/m² 6,0 °C 7,0 °C 9,7 km/h (2 Bft)
10.10.2019 22:32 7,7 °C 89 % 1022,0 hPa 0,0 mm 2,6 km/h (1 Bft) SW 225 ° 0 min 0,000 mm 0,0 UV-I 0 W/m² 6,0 °C 7,7 °C 3,2 km/h (1 Bft)
10.10.2019 22:33 7,9 °C 88 % 1022,0 hPa 0,0 mm 7,6 km/h (2 Bft) S-SW 198 ° 0 min 0,000 mm 0,0 UV-I 0 W/m² 6,0 °C 6,6 °C 14,5 km/h (3 Bft)
10.10.2019 22:34 8,1 °C 87 % 1022,0 hPa 0,0 mm 3,6 km/h (1 Bft) S 189 ° 0 min 0,000 mm 0,0 UV-I 0 W/m² 6,1 °C 8,1 °C 6,4 km/h (2 Bft)
10.10.2019 22:35 8,2 °C 87 % 1022,0 hPa 0,0 mm 3,4 km/h (1 Bft) SW 221 ° 0 min 0,000 mm 0,0 UV-I 0 W/m² 6,2 °C 8,2 °C 6,4 km/h (2 Bft)
10.10.2019 22:36 8,3 °C 86 % 1022,0 hPa 0,0 mm 3,0 km/h (1 Bft) S-SW 196 ° 0 min 0,000 mm 0,0 UV-I 0 W/m² 6,1 °C 8,3 °C 4,8 km/h (1 Bft)
10.10.2019 22:37 8,5 °C 86 % 1022,0 hPa 0,0 mm 6,9 km/h (2 Bft) SW 221 ° 0 min 0,000 mm 0,0 UV-I 0 W/m² 6,3 °C 7,5 °C 8,0 km/h (2 Bft)
10.10.2019 22:38 8,6 °C 85 % 1022,1 hPa 0,0 mm 3,5 km/h (1 Bft) SW 223 ° 0 min 0,000 mm 0,0 UV-I 0 W/m² 6,2 °C 8,6 °C 6,4 km/h (2 Bft)
10.10.2019 22:39 8,7 °C 84 % 1022,0 hPa 0,0 mm 2,4 km/h (1 Bft) S-SW 213 ° 0 min 0,000 mm 0,0 UV-I 0 W/m² 6,2 °C 8,7 °C 4,8 km/h (1 Bft)
10.10.2019 22:40 8,8 °C 84 % 1022,1 hPa 0,0 mm 0,0 km/h (0 Bft) SW 222 ° 0 min 0,000 mm 0,0 UV-I 0 W/m² 6,2 °C 8,8 °C 0,0 km/h (0 Bft)
10.10.2019 22:41 8,8 °C 84 % 1022,0 hPa 0,0 mm 4,5 km/h (1 Bft) W-SW 246 ° 0 min 0,000 mm 0,0 UV-I 0 W/m² 6,2 °C 8,8 °C 8,0 km/h (2 Bft)
10.10.2019 22:42 8,9 °C 84 % 1022,0 hPa 0,0 mm 2,9 km/h (1 Bft) S-SW 209 ° 0 min 0,000 mm 0,0 UV-I 0 W/m² 6,3 °C 8,9 °C 6,4 km/h (2 Bft)
10.10.2019 22:43 8,9 °C 83 % 1022,0 hPa 0,0 mm 4,9 km/h (1 Bft) W-SW 252 ° 0 min 0,000 mm 0,0 UV-I 0 W/m² 6,2 °C 8,5 °C 9,7 km/h (2 Bft)
10.10.2019 22:44 9,0 °C 83 % 1022,1 hPa 0,0 mm 1,2 km/h (1 Bft) W-SW 239 ° 0 min 0,000 mm 0,0 UV-I 0 W/m² 6,3 °C 9,0 °C 4,8 km/h (1 Bft)
10.10.2019 22:45 9,0 °C 82 % 1022,1 hPa 0,0 mm 3,8 km/h (1 Bft) S-SW 192 ° 0 min 0,000 mm 0,0 UV-I 0 W/m² 6,1 °C 9,0 °C 6,4 km/h (2 Bft)
10.10.2019 22:46 9,1 °C 82 % 1022,1 hPa 0,0 mm 3,6 km/h (1 Bft) W-SW 246 ° 0 min 0,000 mm 0,0 UV-I 0 W/m² 6,2 °C 9,1 °C 8,0 km/h (2 Bft)
10.10.2019 22:47 9,1 °C 82 % 1022,1 hPa 0,0 mm 2,4 km/h (1 Bft) W-SW 239 ° 0 min 0,000 mm 0,0 UV-I 0 W/m² 6,2 °C 9,1 °C 4,8 km/h (1 Bft)
10.10.2019 22:48 9,1 °C 82 % 1022,0 hPa 0,0 mm 4,2 km/h (1 Bft) W-SW 239 ° 0 min 0,000 mm 0,0 UV-I 0 W/m² 6,2 °C 9,1 °C 8,0 km/h (2 Bft)
10.10.2019 22:49 9,0 °C 82 % 1022,0 hPa 0,0 mm 3,4 km/h (1 Bft) SW 227 ° 0 min 0,000 mm 0,0 UV-I 0 W/m² 6,1 °C 9,0 °C 4,8 km/h (1 Bft)
10.10.2019 22:50 9,0 °C 82 % 1022,1 hPa 0,0 mm 3,0 km/h (1 Bft) SW 229 ° 0 min 0,000 mm 0,0 UV-I 0 W/m² 6,1 °C 9,0 °C 4,8 km/h (1 Bft)
10.10.2019 22:51 8,9 °C 81 % 1022,1 hPa 0,0 mm 2,1 km/h (1 Bft) SW 230 ° 0 min 0,000 mm 0,0 UV-I 0 W/m² 5,8 °C 8,9 °C 3,2 km/h (1 Bft)
10.10.2019 22:52 8,8 °C 82 % 1022,0 hPa 0,0 mm 2,3 km/h (1 Bft) SW 225 ° 0 min 0,000 mm 0,0 UV-I 0 W/m² 5,9 °C 8,8 °C 4,8 km/h (1 Bft)
10.10.2019 22:53 8,8 °C 82 % 1022,0 hPa 0,0 mm 1,0 km/h (0 Bft) SW 225 ° 0 min 0,000 mm 0,0 UV-I 0 W/m² 5,9 °C 8,8 °C 3,2 km/h (1 Bft)
10.10.2019 22:54 8,8 °C 82 % 1022,1 hPa 0,0 mm 3,6 km/h (1 Bft) S-SW 194 ° 0 min 0,000 mm 0,0 UV-I 0 W/m² 5,9 °C 8,8 °C 6,4 km/h (2 Bft)
10.10.2019 22:55 8,7 °C 82 % 1022,1 hPa 0,0 mm 1,4 km/h (1 Bft) S-SW 195 ° 0 min 0,000 mm 0,0 UV-I 0 W/m² 5,8 °C 8,7 °C 8,0 km/h (2 Bft)
10.10.2019 22:56 8,7 °C 82 % 1022,2 hPa 0,0 mm 4,7 km/h (1 Bft) S-SW 198 ° 0 min 0,000 mm 0,0 UV-I 0 W/m² 5,8 °C 8,4 °C 6,4 km/h (2 Bft)
10.10.2019 22:57 8,7 °C 82 % 1022,1 hPa 0,0 mm 4,3 km/h (1 Bft) SW 215 ° 0 min 0,000 mm 0,0 UV-I 0 W/m² 5,8 °C 8,7 °C 9,7 km/h (2 Bft)
10.10.2019 22:58 8,7 °C 82 % 1022,1 hPa 0,0 mm 4,2 km/h (1 Bft) S 182 ° 0 min 0,000 mm 0,0 UV-I 0 W/m² 5,8 °C 8,7 °C 6,4 km/h (2 Bft)
10.10.2019 22:59 8,7 °C 82 % 1022,1 hPa 0,0 mm 4,8 km/h (1 Bft) S-SW 197 ° 0 min 0,000 mm 0,0 UV-I 0 W/m² 5,8 °C 8,3 °C 6,4 km/h (2 Bft)
10.10.2019 23:00 8,6 °C 83 % 1022,1 hPa 0,0 mm 4,0 km/h (1 Bft) S-SW 208 ° 0 min 0,000 mm 0,0 UV-I 0 W/m² 5,9 °C 8,6 °C 6,4 km/h (2 Bft)
10.10.2019 23:01 8,5 °C 83 % 1022,2 hPa 0,0 mm 2,8 km/h (1 Bft) S-SW 196 ° 0 min 0,000 mm 0,0 UV-I 0 W/m² 5,8 °C 8,5 °C 4,8 km/h (1 Bft)
10.10.2019 23:02 8,4 °C 83 % 1022,1 hPa 0,0 mm 7,5 km/h (2 Bft) S 187 ° 0 min 0,000 mm 0,0 UV-I 0 W/m² 5,7 °C 7,2 °C 9,7 km/h (2 Bft)
10.10.2019 23:03 8,4 °C 83 % 1022,1 hPa 0,0 mm 5,3 km/h (1 Bft) SW 221 ° 0 min 0,000 mm 0,0 UV-I 0 W/m² 5,7 °C 7,8 °C 8,0 km/h (2 Bft)
10.10.2019 23:04 8,4 °C 83 % 1022,1 hPa 0,0 mm 4,4 km/h (1 Bft) S-SW 203 ° 0 min 0,000 mm 0,0 UV-I 0 W/m² 5,7 °C 8,4 °C 6,4 km/h (2 Bft)
10.10.2019 23:05 8,3 °C 83 % 1022,0 hPa 0,0 mm 5,6 km/h (1 Bft) S-SW 198 ° 0 min 0,000 mm 0,0 UV-I 0 W/m² 5,6 °C 7,6 °C 8,0 km/h (2 Bft)
10.10.2019 23:06 8,3 °C 83 % 1022,0 hPa 0,0 mm 3,1 km/h (1 Bft) S-SW 198 ° 0 min 0,000 mm 0,0 UV-I 0 W/m² 5,6 °C 8,3 °C 4,8 km/h (1 Bft)
10.10.2019 23:07 8,2 °C 83 % 1022,0 hPa 0,0 mm 4,4 km/h (1 Bft) S-SW 200 ° 0 min 0,000 mm 0,0 UV-I 0 W/m² 5,5 °C 8,2 °C 6,4 km/h (2 Bft)
10.10.2019 23:08 8,2 °C 83 % 1022,1 hPa 0,0 mm 4,0 km/h (1 Bft) S-SW 200 ° 0 min 0,000 mm 0,0 UV-I 0 W/m² 5,5 °C 8,2 °C 6,4 km/h (2 Bft)
10.10.2019 23:09 8,1 °C 83 % 1022,1 hPa 0,0 mm 4,2 km/h (1 Bft) S-SW 199 ° 0 min 0,000 mm 0,0 UV-I 0 W/m² 5,4 °C 8,1 °C 6,4 km/h (2 Bft)
10.10.2019 23:10 8,1 °C 83 % 1022,0 hPa 0,0 mm 4,3 km/h (1 Bft) S 188 ° 0 min 0,000 mm 0,0 UV-I 0 W/m² 5,4 °C 8,1 °C 8,0 km/h (2 Bft)
10.10.2019 23:11 8,1 °C 84 % 1022,0 hPa 0,0 mm 4,2 km/h (1 Bft) S-SW 194 ° 0 min 0,000 mm 0,0 UV-I 0 W/m² 5,6 °C 8,1 °C 8,0 km/h (2 Bft)
10.10.2019 23:12 8,1 °C 84 % 1022,0 hPa 0,0 mm 4,0 km/h (1 Bft) SW 220 ° 0 min 0,000 mm 0,0 UV-I 0 W/m² 5,6 °C 8,1 °C 4,8 km/h (1 Bft)
10.10.2019 23:13 8,1 °C 84 % 1022,0 hPa 0,0 mm 2,0 km/h (1 Bft) S-SW 213 ° 0 min 0,000 mm 0,0 UV-I 0 W/m² 5,6 °C 8,1 °C 4,8 km/h (1 Bft)
10.10.2019 23:14 8,1 °C 84 % 1022,0 hPa 0,0 mm 3,6 km/h (1 Bft) S-SW 212 ° 0 min 0,000 mm 0,0 UV-I 0 W/m² 5,6 °C 8,1 °C 4,8 km/h (1 Bft)
10.10.2019 23:15 8,1 °C 84 % 1022,0 hPa 0,0 mm 5,5 km/h (1 Bft) S-SW 198 ° 0 min 0,000 mm 0,0 UV-I 0 W/m² 5,6 °C 7,4 °C 8,0 km/h (2 Bft)
10.10.2019 23:16 8,0 °C 84 % 1022,0 hPa 0,0 mm 4,0 km/h (1 Bft) S-SW 199 ° 0 min 0,000 mm 0,0 UV-I 0 W/m² 5,5 °C 8,0 °C 6,4 km/h (2 Bft)
10.10.2019 23:17 7,9 °C 84 % 1021,9 hPa 0,0 mm 0,8 km/h (0 Bft) S-SW 199 ° 0 min 0,000 mm 0,0 UV-I 0 W/m² 5,4 °C 7,9 °C 3,2 km/h (1 Bft)
10.10.2019 23:18 7,8 °C 84 % 1021,9 hPa 0,0 mm 0,0 km/h (0 Bft) S-SW 199 ° 0 min 0,000 mm 0,0 UV-I 0 W/m² 5,3 °C 7,8 °C 0,0 km/h (0 Bft)
10.10.2019 23:19 7,7 °C 84 % 1021,9 hPa 0,0 mm 0,0 km/h (0 Bft) S-SW 198 ° 0 min 0,000 mm 0,0 UV-I 0 W/m² 5,2 °C 7,7 °C 0,0 km/h (0 Bft)
10.10.2019 23:20 7,7 °C 85 % 1021,9 hPa 0,0 mm 0,0 km/h (0 Bft) S-SW 196 ° 0 min 0,000 mm 0,0 UV-I 0 W/m² 5,3 °C 7,7 °C 0,0 km/h (0 Bft)
10.10.2019 23:21 7,6 °C 85 % 1022,0 hPa 0,0 mm 1,9 km/h (1 Bft) S 179 ° 0 min 0,000 mm 0,0 UV-I 0 W/m² 5,2 °C 7,6 °C 4,8 km/h (1 Bft)
10.10.2019 23:22 7,6 °C 86 % 1022,0 hPa 0,0 mm 0,4 km/h (0 Bft) S 188 ° 0 min 0,000 mm 0,0 UV-I 0 W/m² 5,4 °C 7,6 °C 3,2 km/h (1 Bft)
10.10.2019 23:23 7,5 °C 86 % 1022,0 hPa 0,0 mm 2,8 km/h (1 Bft) S 188 ° 0 min 0,000 mm 0,0 UV-I 0 W/m² 5,3 °C 7,5 °C 3,2 km/h (1 Bft)
10.10.2019 23:24 7,5 °C 86 % 1021,9 hPa 0,0 mm 3,1 km/h (1 Bft) S 190 ° 0 min 0,000 mm 0,0 UV-I 0 W/m² 5,3 °C 7,5 °C 6,4 km/h (2 Bft)
10.10.2019 23:25 7,4 °C 86 % 1021,9 hPa 0,0 mm 0,6 km/h (0 Bft) S 190 ° 0 min 0,000 mm 0,0 UV-I 0 W/m² 5,2 °C 7,4 °C 1,6 km/h (1 Bft)
10.10.2019 23:26 7,3 °C 86 % 1021,8 hPa 0,0 mm 1,8 km/h (1 Bft) S 191 ° 0 min 0,000 mm 0,0 UV-I 0 W/m² 5,1 °C 7,3 °C 3,2 km/h (1 Bft)
10.10.2019 23:27 7,3 °C 86 % 1021,8 hPa 0,0 mm 1,5 km/h (1 Bft) S 191 ° 0 min 0,000 mm 0,0 UV-I 0 W/m² 5,1 °C 7,3 °C 3,2 km/h (1 Bft)
10.10.2019 23:28 7,2 °C 86 % 1021,9 hPa 0,0 mm 2,0 km/h (1 Bft) S 191 ° 0 min 0,000 mm 0,0 UV-I 0 W/m² 5,0 °C 7,2 °C 3,2 km/h (1 Bft)
10.10.2019 23:29 7,2 °C 86 % 1021,8 hPa 0,0 mm 0,6 km/h (0 Bft) S 190 ° 0 min 0,000 mm 0,0 UV-I 0 W/m² 5,0 °C 7,2 °C 3,2 km/h (1 Bft)
10.10.2019 23:30 7,2 °C 86 % 1021,9 hPa 0,0 mm 0,0 km/h (0 Bft) S 190 ° 0 min 0,000 mm 0,0 UV-I 0 W/m² 5,0 °C 7,2 °C 0,0 km/h (0 Bft)
10.10.2019 23:31 7,1 °C 87 % 1021,9 hPa 0,0 mm 2,6 km/h (1 Bft) S 188 ° 0 min 0,000 mm 0,0 UV-I 0 W/m² 5,1 °C 7,1 °C 6,4 km/h (2 Bft)
10.10.2019 23:32 7,1 °C 87 % 1021,9 hPa 0,0 mm 1,7 km/h (1 Bft) S 188 ° 0 min 0,000 mm 0,0 UV-I 0 W/m² 5,1 °C 7,1 °C 3,2 km/h (1 Bft)
10.10.2019 23:33 7,1 °C 87 % 1021,9 hPa 0,0 mm 0,1 km/h (0 Bft) S 188 ° 0 min 0,000 mm 0,0 UV-I 0 W/m² 5,1 °C 7,1 °C 1,6 km/h (1 Bft)
10.10.2019 23:34 7,1 °C 88 % 1021,9 hPa 0,0 mm 0,1 km/h (0 Bft) S 187 ° 0 min 0,000 mm 0,0 UV-I 0 W/m² 5,2 °C 7,1 °C 3,2 km/h (1 Bft)
10.10.2019 23:35 7,2 °C 87 % 1021,9 hPa 0,0 mm 2,8 km/h (1 Bft) S 188 ° 0 min 0,000 mm 0,0 UV-I 0 W/m² 5,2 °C 7,2 °C 4,8 km/h (1 Bft)
10.10.2019 23:36 7,2 °C 87 % 1021,9 hPa 0,0 mm 0,0 km/h (0 Bft) S 188 ° 0 min 0,000 mm 0,0 UV-I 0 W/m² 5,2 °C 7,2 °C 0,0 km/h (0 Bft)
10.10.2019 23:37 7,2 °C 87 % 1022,0 hPa 0,0 mm 0,0 km/h (0 Bft) S 188 ° 0 min 0,000 mm 0,0 UV-I 0 W/m² 5,2 °C 7,2 °C 0,0 km/h (0 Bft)
10.10.2019 23:38 7,2 °C 86 % 1022,0 hPa 0,0 mm 1,9 km/h (1 Bft) S-SW 195 ° 0 min 0,000 mm 0,0 UV-I 0 W/m² 5,0 °C 7,2 °C 4,8 km/h (1 Bft)
10.10.2019 23:39 7,3 °C 86 % 1022,0 hPa 0,0 mm 5,1 km/h (1 Bft) S-SW 194 ° 0 min 0,000 mm 0,0 UV-I 0 W/m² 5,1 °C 6,7 °C 6,4 km/h (2 Bft)
10.10.2019 23:40 7,3 °C 86 % 1022,0 hPa 0,0 mm 2,8 km/h (1 Bft) S-SW 194 ° 0 min 0,000 mm 0,0 UV-I 0 W/m² 5,1 °C 7,3 °C 4,8 km/h (1 Bft)
10.10.2019 23:41 7,2 °C 86 % 1022,0 hPa 0,0 mm 2,1 km/h (1 Bft) S-SW 195 ° 0 min 0,000 mm 0,0 UV-I 0 W/m² 5,0 °C 7,2 °C 4,8 km/h (1 Bft)
10.10.2019 23:42 7,3 °C 85 % 1021,9 hPa 0,0 mm 4,3 km/h (1 Bft) S-SW 193 ° 0 min 0,000 mm 0,0 UV-I 0 W/m² 4,9 °C 7,3 °C 6,4 km/h (2 Bft)
10.10.2019 23:43 7,2 °C 85 % 1021,9 hPa 0,0 mm 3,0 km/h (1 Bft) S-SW 193 ° 0 min 0,000 mm 0,0 UV-I 0 W/m² 4,9 °C 7,2 °C 4,8 km/h (1 Bft)
10.10.2019 23:44 7,2 °C 85 % 1021,8 hPa 0,0 mm 2,5 km/h (1 Bft) S-SW 192 ° 0 min 0,000 mm 0,0 UV-I 0 W/m² 4,9 °C 7,2 °C 4,8 km/h (1 Bft)
10.10.2019 23:45 7,1 °C 85 % 1021,8 hPa 0,0 mm 0,0 km/h (0 Bft) S-SW 192 ° 0 min 0,000 mm 0,0 UV-I 0 W/m² 4,8 °C 7,1 °C 0,0 km/h (0 Bft)
10.10.2019 23:46 6,9 °C 85 % 1021,8 hPa 0,0 mm 0,0 km/h (0 Bft) S-SW 192 ° 0 min 0,000 mm 0,0 UV-I 0 W/m² 4,6 °C 6,9 °C 0,0 km/h (0 Bft)
10.10.2019 23:47 6,8 °C 86 % 1021,8 hPa 0,0 mm 0,0 km/h (0 Bft) S-SW 192 ° 0 min 0,000 mm 0,0 UV-I 0 W/m² 4,6 °C 6,8 °C 0,0 km/h (0 Bft)
10.10.2019 23:48 6,7 °C 86 % 1021,8 hPa 0,0 mm 0,0 km/h (0 Bft) S-SW 192 ° 0 min 0,000 mm 0,0 UV-I 0 W/m² 4,5 °C 6,7 °C 0,0 km/h (0 Bft)
10.10.2019 23:49 6,7 °C 86 % 1021,8 hPa 0,0 mm 0,0 km/h (0 Bft) S-SW 192 ° 0 min 0,000 mm 0,0 UV-I 0 W/m² 4,5 °C 6,7 °C 0,0 km/h (0 Bft)
10.10.2019 23:50 6,6 °C 87 % 1021,8 hPa 0,0 mm 0,0 km/h (0 Bft) S-SW 192 ° 0 min 0,000 mm 0,0 UV-I 0 W/m² 4,6 °C 6,6 °C 0,0 km/h (0 Bft)
10.10.2019 23:51 6,6 °C 87 % 1021,8 hPa 0,0 mm 0,0 km/h (0 Bft) S-SW 192 ° 0 min 0,000 mm 0,0 UV-I 0 W/m² 4,6 °C 6,6 °C 0,0 km/h (0 Bft)
10.10.2019 23:52 6,5 °C 87 % 1021,7 hPa 0,0 mm 0,0 km/h (0 Bft) S-SW 192 ° 0 min 0,000 mm 0,0 UV-I 0 W/m² 4,5 °C 6,5 °C 0,0 km/h (0 Bft)
10.10.2019 23:53 6,4 °C 87 % 1021,7 hPa 0,0 mm 0,0 km/h (0 Bft) S-SW 192 ° 0 min 0,000 mm 0,0 UV-I 0 W/m² 4,4 °C 6,4 °C 0,0 km/h (0 Bft)
10.10.2019 23:54 6,4 °C 87 % 1021,8 hPa 0,0 mm 0,0 km/h (0 Bft) S-SW 192 ° 0 min 0,000 mm 0,0 UV-I 0 W/m² 4,4 °C 6,4 °C 0,0 km/h (0 Bft)
10.10.2019 23:55 6,4 °C 88 % 1021,7 hPa 0,0 mm 0,0 km/h (0 Bft) S-SW 192 ° 0 min 0,000 mm 0,0 UV-I 0 W/m² 4,6 °C 6,4 °C 0,0 km/h (0 Bft)
10.10.2019 23:56 6,5 °C 88 % 1021,7 hPa 0,0 mm 0,0 km/h (0 Bft) S-SW 192 ° 0 min 0,000 mm 0,0 UV-I 0 W/m² 4,7 °C 6,5 °C 0,0 km/h (0 Bft)
10.10.2019 23:57 6,4 °C 87 % 1021,7 hPa 0,0 mm 0,0 km/h (0 Bft) S-SW 192 ° 0 min 0,000 mm 0,0 UV-I 0 W/m² 4,4 °C 6,4 °C 0,0 km/h (0 Bft)
10.10.2019 23:58 6,5 °C 87 % 1021,7 hPa 0,0 mm 3,9 km/h (1 Bft) S-SW 194 ° 0 min 0,000 mm 0,0 UV-I 0 W/m² 4,5 °C 6,5 °C 6,4 km/h (2 Bft)
10.10.2019 23:59 6,5 °C 87 % 1021,7 hPa 0,0 mm 5,1 km/h (1 Bft) S-SW 204 ° 0 min 0,000 mm 0,0 UV-I 0 W/m² 4,5 °C 5,7 °C 8,0 km/h (2 Bft)
_ Min-Zeit 21:53 13:00 00:28 - 23:57 - - - - - - 23:57 02:21 23:57
Minimum _ 6,2 °C 66 % 1013,0 hPa - 0,0 km/h (0 Bft) - - - - - - 4,4 °C 3,6 °C 0,0 km/h (0 Bft)
_ Max-Zeit 11:47 06:55 23:01 22:18 13:00 - - 14:40 13:01 13:00 13:02 11:43 11:47 13:24
Maximum _ 12,4 °C 93 % 1022,2 hPa 0,2 mm 30,2 km/h
W-NW (5 Bft)
- - 1 min 0,229 mm 4,0 UV-I 824 W/m² 7,3 °C 12,4 °C 51,5 km/h
W-SW (7 Bft)
Durchschnitt _ 8,8 °C 83 % 1017,3 hPa #1,6 mm 9,2 km/h (2 Bft) W - #22 min. #1,346 mm 1,7 UV-I 73 W/m² 6,1 °C 8,2 °C 14,8 km/h (3 Bft)